[[{"header":{"parameterUnit":"m.s-1","parameterCategory":1,"la1":31.0,"la2":29.5877,"lo1":-88.7671,"lo2":-86.6584,"dy":0.0162,"dx":0.0185,"nx":115,"ny":88,"refTime":"2026-03-17T00:00:00:Z","depth":0,"parameterNumber":2,"parameterNumberName":"U-component_of_WINDS"},"data":[0.0,0.0,0.0,0.0,0.0,0.0,0.0,0.0,0.0,0.0,0.0,0.0,0.0,0.0,0.0,0.0,0.0,0.0,0.0,0.0,0.0,0.0,0.0,0.0,0.0,0.0,0.0,0.0,0.0,0.0,0.0,0.0,0.0,0.0,0.0,0.0,0.0,0.0,0.0,0.0,0.0,0.0,0.0,0.0,0.0,0.0,0.0,0.0,0.0,0.0,0.0,0.0,0.0,0.0,0.0,0.0,0.0,0.0,0.0,0.0,0.0,0.0,0.0,0.0,0.0,0.0,0.0,0.0,0.0,0.0,0.0,0.0,0.0,0.0,0.0,0.0,0.0,0.0,0.0,0.0,0.0,0.0,0.0,0.0,0.0,0.0,0.0,0.0,0.0,0.0,0.0,0.0,0.0,0.0,0.0,0.0,0.0,0.0,0.0,0.0,0.0,0.0,0.0,0.0,0.0,0.0,0.0,0.0,0.0,0.0,0.0,0.0,0.0,0.0,0.0,0.0,0.0,0.0,0.0,0.0,0.0,0.0,0.0,0.0,0.0,0.0,0.0,0.0,0.0,0.0,0.0,0.0,0.0,0.0,0.0,0.0,0.0,0.0,0.0,0.0,0.0,0.0,0.0,0.0,0.0,0.0,0.0,0.0,0.0,0.0,0.0,0.0,0.0,0.0,0.0,0.0,0.0,0.0,0.0,0.0,0.0,0.0,0.0,0.0,0.0,0.0,0.0,0.0,0.0,0.0,0.0,0.0,0.0,0.0,0.0,0.0,0.0,0.0,0.0,0.0,0.0,0.0,0.0,0.0,0.0,0.0,0.0,0.0,0.0,0.0,0.0,0.0,0.0,0.0,0.0,0.0,0.0,0.0,0.0,0.0,0.0,0.0,0.0,0.0,0.0,0.0,0.0,0.0,0.0,0.0,0.0,0.0,0.0,0.0,0.0,0.0,0.0,0.0,0.0,0.0,0.0,0.0,0.0,0.0,0.0,0.0,0.0,0.0,0.0,0.0,0.0,0.0,0.0,0.0,0.0,0.0,0.0,0.0,0.0,0.0,0.0,0.0,0.0,0.0,0.0,0.0,0.0,0.0,0.0,0.0,0.0,0.0,0.0,0.0,0.0,0.0,0.0,0.0,0.0,0.0,0.0,0.0,0.0,0.0,0.0,0.0,0.0,0.0,0.0,0.0,0.0,0.0,0.0,0.0,0.0,0.0,0.0,0.0,0.0,0.0,0.0,0.0,0.0,0.0,0.0,0.0,0.0,0.0,0.0,0.0,0.0,0.0,0.0,0.0,0.0,0.0,0.0,0.0,0.0,0.0,0.0,0.0,0.0,0.0,0.0,0.0,0.0,0.0,0.0,0.0,0.0,0.0,0.0,0.0,0.0,0.0,0.0,0.0,0.0,0.0,0.0,0.0,0.0,0.0,0.0,0.0,0.0,0.0,0.0,0.0,0.0,0.0,0.0,0.0,0.0,0.0,0.0,0.0,0.0,0.0,0.0,0.0,0.0,0.0,0.0,0.0,0.0,0.0,0.0,0.0,0.0,0.0,0.0,0.0,0.0,0.0,0.0,0.0,0.0,0.0,0.0,0.0,0.0,0.0,0.0,0.0,0.0,0.0,0.0,0.0,0.0,0.0,0.0,0.0,0.0,0.0,0.0,0.0,0.0,0.0,0.0,0.0,0.0,0.0,0.0,0.0,0.0,0.0,0.0,0.0,0.0,0.0,0.0,0.0,0.0,0.0,0.0,0.0,0.0,0.0,0.0,0.0,0.0,0.0,0.0,0.0,0.0,0.0,0.0,0.0,0.0,0.0,0.0,0.0,0.0,0.0,0.0,0.0,0.0,0.0,0.0,0.0,0.0,0.0,0.0,0.0,0.0,0.0,0.0,0.0,0.0,0.0,0.0,0.0,0.0,0.0,0.0,0.0,0.0,0.0,0.0,0.0,0.0,0.0,0.0,0.0,0.0,0.0,0.0,0.0,0.0,0.0,0.0,0.0,0.0,0.0,0.0,0.0,0.0,0.0,0.0,0.0,0.0,0.0,0.0,0.0,0.0,0.0,0.0,0.0,0.0,0.0,0.0,0.0,0.0,0.0,0.0,0.0,0.0,0.0,0.0,0.0,0.0,0.0,0.0,0.0,0.0,0.0,0.0,0.0,0.0,0.0,0.0,0.0,0.0,0.0,0.0,0.0,0.0,0.0,0.0,0.0,0.0,0.0,0.0,0.0,0.0,0.0,0.0,0.0,0.0,0.0,0.0,0.0,0.0,0.0,0.0,0.0,0.0,0.0,0.0,0.0,0.0,0.0,0.0,0.0,0.0,0.0,0.0,0.0,0.0,0.0,0.0,0.0,0.0,0.0,0.0,0.0,0.0,0.0,0.0,0.0,0.0,0.0,0.0,0.0,0.0,0.0,0.0,0.0,0.0,0.0,0.0,0.0,0.0,0.0,0.0,0.0,0.0,0.0,0.0,0.0,0.0,0.0,0.0,0.0,0.0,0.0,0.0,0.0,0.0,0.0,0.0,0.0,0.0,0.0,0.0,0.0,0.0,0.0,0.0,0.0,0.0,0.0,0.0,0.0,0.0,0.0,0.0,0.0,0.0,0.0,0.0,0.0,0.0,0.0,0.0,0.0,0.0,0.0,0.0,0.0,0.0,0.0,0.0,0.0,0.0,0.0,0.0,0.0,0.0,0.0,0.0,0.0,0.0,0.0,0.0,0.0,0.0,0.0,0.0,0.0,0.0,0.0,0.0,0.0,0.0,0.0,0.0,0.0,0.0,0.0,0.0,0.0,0.0,0.0,0.0,0.0,0.0,0.0,0.0,0.0,0.0,0.0,0.0,0.0,0.0,0.0,0.0,0.0,0.0,0.0,0.0,0.0,0.0,0.0,0.0,0.0,0.0,0.0,0.0,0.0,0.0,0.0,0.0,0.0,0.0,0.0,0.0,0.0,0.0,0.0,0.0,0.0,0.0,0.0,0.0,0.0,0.0,0.0,0.0,0.0,0.0,0.0,0.0,0.0,0.0,0.0,0.0,0.0,0.0,0.0,0.0,0.0,0.0,0.0,0.0,0.0,0.0,0.0,0.0,0.0,0.0,0.0,0.0,0.0,0.0,0.0,0.0,0.0,0.0,0.0,0.0,0.0,0.0,0.0,0.0,0.0,0.0,0.0,0.0,0.0,0.0,0.0,0.0,0.0,0.0,0.0,0.0,0.0,0.0,0.0,0.0,0.0,0.0,0.0,0.0,0.0,0.0,0.0,0.0,0.0,0.0,0.0,0.0,0.0,0.0,0.0,0.0,0.0,0.0,0.0,0.0,0.0,0.0,0.0,0.0,0.0,0.0,0.0,0.0,0.0,0.0,0.0,0.0,0.0,0.0,0.0,0.0,0.0,0.0,0.0,0.0,0.0,0.0,0.0,0.0,0.0,0.0,0.0,0.0,0.0,0.0,0.0,0.0,0.0,0.0,0.0,0.0,0.0,0.0,0.0,0.0,0.0,0.0,0.0,0.0,0.0,0.0,0.0,0.0,0.0,0.0,0.0,0.0,0.0,0.0,0.0,0.0,0.0,0.0,0.0,0.0,0.0,0.0,0.0,0.0,0.0,0.0,0.0,0.0,0.0,0.0,0.0,0.0,0.0,0.0,0.0,0.0,0.0,0.0,0.0,0.0,0.0,0.0,0.0,0.0,0.0,0.0,0.0,0.0,0.0,0.0,0.0,0.0,0.0,0.0,0.0,0.0,0.0,0.0,0.0,0.0,0.0,0.0,0.0,0.0,0.0,0.0,0.0,0.0,0.0,0.0,0.0,0.0,0.0,0.0,0.0,0.0,0.0,0.0,0.0,0.0,0.0,0.0,0.0,0.0,0.0,0.0,0.0,0.0,0.0,0.0,0.0,0.0,0.0,0.0,0.0,0.0,0.0,0.0,0.0,0.0,0.0,0.0,0.0,0.0,0.0,0.0,0.0,0.0,0.0,0.0,0.0,0.0,0.0,0.0,0.0,0.0,0.0,0.0,0.0,0.0,0.0,0.0,0.0,0.0,0.0,0.0,0.0,0.0,0.0,0.0,0.0,0.0,0.0,0.0,0.0,0.0,0.0,0.0,0.0,0.0,0.0,0.0,0.0,0.0,0.0,0.0,0.0,0.0,0.0,0.0,0.0,0.0,0.0,0.0,0.0,0.0,0.0,0.0,0.0,0.0,0.0,0.0,0.0,0.0,0.0,0.0,0.0,0.0,0.0,0.0,0.0,0.0,0.0,-1.4861,0.0,0.0,0.0,0.0,0.0,0.0,0.0,0.0,0.0,0.0,0.0,0.0,0.0,0.0,0.0,0.0,0.0,0.0,0.0,0.0,0.0,0.0,0.0,0.0,0.0,0.0,0.0,0.0,0.0,0.0,0.0,0.0,0.0,0.0,0.0,0.0,0.0,0.0,0.0,0.0,0.0,0.0,0.0,0.0,0.0,0.0,0.0,0.0,0.0,0.0,0.0,0.0,0.0,0.0,0.0,0.0,0.0,0.0,0.0,0.0,0.0,0.0,0.0,0.0,0.0,0.0,0.0,0.0,0.0,0.0,0.0,0.0,0.0,0.0,0.0,0.0,0.0,0.0,0.0,0.0,0.0,0.0,0.0,0.0,0.0,0.0,0.0,0.0,0.0,0.0,0.0,0.0,0.0,0.0,0.0,0.0,0.0,0.0,0.0,0.0,0.0,0.0,0.0,0.0,0.0,0.0,0.0,0.0,0.0,0.0,-1.6648,-1.6427,-1.6532,-1.6297,-1.5625,0.0,0.0,0.0,0.0,0.0,0.0,0.0,0.0,0.0,0.0,0.0,0.0,0.0,0.0,0.0,0.0,0.0,0.0,0.0,0.0,0.0,0.0,0.0,0.0,0.0,0.0,0.0,0.0,0.0,0.0,0.0,0.0,0.0,0.0,0.0,0.0,0.0,0.0,0.0,0.0,0.0,0.0,0.0,0.0,0.0,0.0,0.0,0.0,0.0,0.0,0.0,0.0,0.0,0.0,0.0,0.0,0.0,0.0,0.0,0.0,0.0,0.0,0.0,0.0,0.0,0.0,0.0,0.0,0.0,0.0,0.0,0.0,0.0,0.0,0.0,0.0,0.0,0.0,0.0,0.0,0.0,0.0,0.0,0.0,0.0,0.0,0.0,0.0,0.0,0.0,0.0,0.0,0.0,0.0,0.0,0.0,0.0,0.0,0.0,0.0,0.0,0.0,0.0,0.0,0.0,0.0,0.0,0.0,0.0,0.0,0.0,0.0,-1.7103,-1.688,-1.5979,0.0,0.0,0.0,0.0,0.0,0.0,0.0,0.0,0.0,0.0,0.0,0.0,0.0,0.0,0.0,0.0,0.0,0.0,0.0,0.0,0.0,0.0,0.0,0.0,0.0,0.0,0.0,0.0,0.0,0.0,0.0,0.0,0.0,0.0,0.0,0.0,0.0,0.0,0.0,0.0,0.0,0.0,0.0,0.0,0.0,0.0,0.0,0.0,0.0,0.0,0.0,0.0,0.0,0.0,0.0,0.0,0.0,0.0,0.0,0.0,0.0,0.0,0.0,0.0,0.0,0.0,0.0,0.0,0.0,0.0,0.0,0.0,0.0,0.0,0.0,0.0,0.0,0.0,0.0,0.0,0.0,0.0,0.0,0.0,0.0,0.0,0.0,0.0,0.0,0.0,0.0,0.0,0.0,0.0,0.0,0.0,0.0,0.0,0.0,0.0,0.0,0.0,0.0,0.0,0.0,0.0,0.0,0.0,0.0,0.0,-1.6809,-1.7144,-1.7406,0.0,-1.5404,0.0,0.0,0.0,0.0,0.0,0.0,0.0,0.0,0.0,0.0,0.0,0.0,0.0,0.0,0.0,0.0,0.0,0.0,0.0,0.0,0.0,0.0,0.0,0.0,0.0,0.0,0.0,0.0,0.0,0.0,0.0,0.0,0.0,0.0,0.0,0.0,0.0,0.0,0.0,0.0,0.0,0.0,0.0,0.0,0.0,0.0,0.0,0.0,0.0,0.0,0.0,0.0,0.0,0.0,0.0,0.0,0.0,0.0,0.0,0.0,0.0,0.0,0.0,0.0,0.0,0.0,0.0,0.0,0.0,0.0,0.0,0.0,0.0,0.0,0.0,0.0,0.0,0.0,0.0,0.0,0.0,0.0,0.0,0.0,0.0,0.0,0.0,0.0,0.0,0.0,0.0,0.0,0.0,0.0,0.0,0.0,0.0,0.0,0.0,0.0,0.0,0.0,0.0,0.0,0.0,0.0,0.0,0.0,0.0,0.0,0.0,-1.7961,-1.7773,-1.6973,0.0,0.0,0.0,0.0,0.0,0.0,0.0,0.0,0.0,0.0,0.0,0.0,0.0,0.0,0.0,0.0,0.0,0.0,0.0,0.0,0.0,0.0,0.0,0.0,0.0,0.0,0.0,0.0,0.0,0.0,0.0,0.0,0.0,0.0,0.0,0.0,0.0,0.0,0.0,0.0,0.0,0.0,0.0,0.0,0.0,0.0,0.0,0.0,0.0,0.0,0.0,0.0,0.0,0.0,0.0,0.0,0.0,0.0,0.0,0.0,0.0,0.0,0.0,0.0,0.0,0.0,0.0,0.0,0.0,0.0,0.0,0.0,0.0,0.0,0.0,0.0,0.0,0.0,0.0,0.0,0.0,0.0,0.0,0.0,0.0,0.0,0.0,0.0,0.0,0.0,0.0,0.0,0.0,0.0,0.0,0.0,0.0,0.0,0.0,0.0,0.0,0.0,0.0,0.0,0.0,0.0,0.0,0.0,0.0,0.0,-1.8121,0.0,-1.8748,-1.8237,-1.723,-1.5722,0.0,0.0,0.0,0.0,0.0,0.0,0.0,0.0,0.0,0.0,0.0,0.0,0.0,0.0,0.0,0.0,0.0,0.0,0.0,0.0,0.0,0.0,0.0,0.0,0.0,0.0,0.0,0.0,0.0,0.0,0.0,0.0,0.0,0.0,0.0,0.0,0.0,0.0,0.0,0.0,0.0,0.0,0.0,0.0,0.0,0.0,0.0,0.0,0.0,0.0,0.0,0.0,0.0,0.0,0.0,0.0,0.0,0.0,0.0,0.0,0.0,0.0,0.0,0.0,0.0,0.0,0.0,0.0,0.0,0.0,0.0,0.0,0.0,0.0,0.0,0.0,0.0,0.0,0.0,0.0,0.0,0.0,0.0,0.0,0.0,0.0,0.0,0.0,0.0,0.0,0.0,0.0,0.0,0.0,0.0,0.0,0.0,0.0,0.0,0.0,0.0,0.0,0.0,0.0,0.0,0.0,0.0,0.0,0.0,-1.8137,-1.8574,-1.9458,-1.8876,-1.7639,0.0,0.0,0.0,0.0,0.0,0.0,0.0,0.0,0.0,0.0,0.0,0.0,0.0,0.0,0.0,0.0,0.0,0.0,0.0,0.0,0.0,0.0,0.0,0.0,0.0,0.0,0.0,0.0,0.0,0.0,0.0,0.0,0.0,0.0,0.0,0.0,0.0,0.0,0.0,0.0,0.0,0.0,0.0,0.0,0.0,0.0,0.0,0.0,0.0,0.0,0.0,0.0,0.0,0.0,0.0,0.0,0.0,0.0,0.0,0.0,0.0,0.0,0.0,0.0,0.0,0.0,0.0,0.0,0.0,0.0,0.0,0.0,0.0,0.0,0.0,0.0,0.0,0.0,0.0,0.0,0.0,0.0,0.0,0.0,0.0,0.0,0.0,0.0,0.0,0.0,0.0,0.0,0.0,0.0,0.0,0.0,0.0,0.0,0.0,0.0,0.0,0.0,0.0,0.0,0.0,0.0,0.0,0.0,0.0,-1.8216,-1.896,-1.995,-2.1139,-1.8941,-1.7316,0.0,0.0,0.0,0.0,0.0,0.0,0.0,0.0,0.0,0.0,0.0,0.0,0.0,0.0,0.0,0.0,0.0,0.0,0.0,0.0,0.0,0.0,0.0,0.0,0.0,0.0,0.0,0.0,0.0,0.0,0.0,0.0,0.0,0.0,0.0,0.0,0.0,0.0,0.0,0.0,0.0,0.0,0.0,0.0,0.0,0.0,0.0,0.0,0.0,0.0,0.0,0.0,0.0,0.0,0.0,0.0,0.0,0.0,0.0,0.0,0.0,0.0,0.0,0.0,0.0,0.0,0.0,0.0,0.0,0.0,0.0,0.0,0.0,0.0,0.0,0.0,0.0,0.0,0.0,0.0,0.0,0.0,0.0,0.0,0.0,0.0,0.0,0.0,0.0,0.0,0.0,0.0,0.0,0.0,0.0,0.0,0.0,0.0,0.0,0.0,0.0,0.0,0.0,0.0,0.0,0.0,0.0,0.0,0.0,-1.8761,0.0,-2.0692,0.0,-1.8958,-1.7208,0.0,0.0,0.0,0.0,0.0,0.0,0.0,0.0,0.0,0.0,0.0,0.0,0.0,0.0,0.0,0.0,0.0,0.0,0.0,0.0,0.0,0.0,0.0,0.0,0.0,0.0,0.0,0.0,0.0,0.0,0.0,0.0,0.0,0.0,0.0,0.0,0.0,0.0,0.0,0.0,0.0,0.0,0.0,0.0,0.0,0.0,0.0,0.0,0.0,0.0,0.0,0.0,0.0,0.0,0.0,0.0,0.0,0.0,0.0,0.0,0.0,0.0,0.0,0.0,0.0,0.0,0.0,0.0,0.0,0.0,0.0,0.0,0.0,0.0,0.0,0.0,0.0,0.0,0.0,0.0,0.0,0.0,0.0,0.0,0.0,0.0,0.0,0.0,0.0,0.0,0.0,0.0,0.0,0.0,0.0,0.0,0.0,0.0,0.0,0.0,0.0,0.0,0.0,0.0,0.0,0.0,0.0,0.0,-1.7992,-1.9718,-2.0424,-2.0666,-2.0233,-1.9027,-1.7326,0.0,0.0,0.0,0.0,0.0,0.0,0.0,0.0,0.0,0.0,0.0,0.0,0.0,0.0,0.0,0.0,0.0,0.0,0.0,0.0,0.0,0.0,0.0,0.0,0.0,0.0,0.0,0.0,0.0,0.0,0.0,0.0,0.0,0.0,0.0,0.0,0.0,0.0,0.0,0.0,0.0,0.0,0.0,0.0,0.0,0.0,0.0,0.0,0.0,0.0,0.0,0.0,0.0,0.0,0.0,0.0,0.0,0.0,0.0,0.0,0.0,0.0,0.0,0.0,0.0,0.0,0.0,0.0,0.0,0.0,0.0,0.0,0.0,0.0,0.0,0.0,0.0,0.0,0.0,0.0,0.0,0.0,0.0,0.0,0.0,0.0,0.0,0.0,0.0,0.0,0.0,0.0,0.0,0.0,0.0,0.0,0.0,0.0,0.0,0.0,0.0,0.0,0.0,0.0,0.0,0.0,0.0,0.0,0.0,-1.9794,-2.0672,-2.1339,-2.1626,-1.9161,-1.7389,0.0,0.0,0.0,0.0,0.0,0.0,0.0,0.0,0.0,0.0,0.0,0.0,0.0,0.0,0.0,0.0,0.0,0.0,0.0,0.0,0.0,0.0,0.0,0.0,0.0,0.0,0.0,0.0,0.0,0.0,0.0,0.0,0.0,0.0,0.0,0.0,0.0,0.0,0.0,0.0,0.0,0.0,0.0,0.0,0.0,0.0,0.0,0.0,0.0,0.0,0.0,0.0,0.0,0.0,0.0,0.0,0.0,0.0,0.0,0.0,0.0,0.0,0.0,0.0,0.0,0.0,0.0,0.0,0.0,0.0,0.0,0.0,0.0,0.0,0.0,0.0,0.0,0.0,0.0,0.0,0.0,0.0,0.0,0.0,0.0,0.0,0.0,0.0,0.0,0.0,0.0,0.0,0.0,0.0,0.0,0.0,0.0,0.0,0.0,0.0,0.0,0.0,0.0,0.0,0.0,0.0,0.0,0.0,0.0,-1.9879,-2.0632,-2.1147,-2.139,-1.8839,-1.724,-1.669,0.0,0.0,0.0,0.0,0.0,0.0,0.0,0.0,0.0,0.0,0.0,0.0,0.0,0.0,0.0,0.0,0.0,0.0,0.0,0.0,0.0,0.0,0.0,0.0,0.0,0.0,0.0,0.0,0.0,0.0,0.0,0.0,0.0,0.0,0.0,0.0,0.0,0.0,0.0,0.0,0.0,0.0,0.0,0.0,0.0,0.0,0.0,0.0,0.0,0.0,0.0,0.0,0.0,0.0,0.0,0.0,0.0,0.0,0.0,0.0,0.0,0.0,0.0,0.0,0.0,0.0,0.0,0.0,0.0,0.0,0.0,0.0,0.0,0.0,0.0,0.0,0.0,0.0,0.0,0.0,0.0,0.0,0.0,0.0,0.0,0.0,0.0,0.0,0.0,0.0,0.0,0.0,0.0,0.0,0.0,0.0,0.0,0.0,0.0,0.0,0.0,0.0,0.0,0.0,0.0,0.0,0.0,0.0,-1.9829,-2.0229,-2.0194,-1.9727,-1.8245,-1.6952,0.0,0.0,0.0,0.0,0.0,0.0,0.0,0.0,0.0,0.0,0.0,0.0,0.0,0.0,0.0,0.0,0.0,0.0,0.0,0.0,0.0,0.0,0.0,0.0,0.0,0.0,0.0,0.0,0.0,0.0,0.0,0.0,0.0,0.0,0.0,0.0,0.0,0.0,0.0,0.0,0.0,0.0,0.0,0.0,0.0,0.0,0.0,0.0,0.0,0.0,0.0,0.0,0.0,0.0,0.0,0.0,0.0,0.0,0.0,0.0,0.0,0.0,0.0,0.0,0.0,0.0,0.0,0.0,0.0,0.0,0.0,0.0,0.0,0.0,0.0,0.0,0.0,0.0,0.0,0.0,0.0,0.0,0.0,0.0,0.0,0.0,0.0,0.0,0.0,0.0,0.0,0.0,0.0,0.0,0.0,0.0,0.0,0.0,0.0,0.0,0.0,0.0,0.0,0.0,0.0,0.0,0.0,0.0,0.0,-1.7881,-1.8251,-1.8868,-1.9694,-1.8568,-1.7313,0.0,0.0,0.0,0.0,0.0,0.0,0.0,0.0,0.0,0.0,0.0,0.0,0.0,0.0,0.0,0.0,0.0,0.0,0.0,0.0,0.0,0.0,0.0,0.0,0.0,0.0,0.0,0.0,0.0,0.0,0.0,0.0,0.0,0.0,0.0,0.0,0.0,0.0,0.0,0.0,0.0,0.0,0.0,0.0,0.0,0.0,0.0,0.0,0.0,0.0,0.0,0.0,0.0,0.0,0.0,0.0,0.0,0.0,0.0,0.0,0.0,0.0,0.0,0.0,0.0,0.0,0.0,0.0,0.0,0.0,0.0,0.0,0.0,0.0,0.0,0.0,0.0,0.0,0.0,0.0,0.0,0.0,0.0,0.0,0.0,0.0,0.0,0.0,0.0,0.0,0.0,0.0,0.0,0.0,0.0,0.0,0.0,0.0,0.0,0.0,0.0,0.0,0.0,0.0,0.0,0.0,0.0,0.0,-1.7796,-1.773,-1.7343,-1.7579,-1.8421,-1.8082,-1.7367,0.0,0.0,0.0,0.0,0.0,0.0,0.0,0.0,0.0,0.0,0.0,0.0,0.0,0.0,0.0,0.0,0.0,0.0,0.0,0.0,0.0,0.0,0.0,0.0,0.0,0.0,0.0,0.0,0.0,0.0,0.0,0.0,0.0,0.0,0.0,0.0,0.0,0.0,0.0,0.0,0.0,0.0,0.0,0.0,0.0,0.0,0.0,0.0,0.0,0.0,0.0,0.0,0.0,0.0,0.0,0.0,0.0,0.0,0.0,0.0,0.0,0.0,0.0,0.0,0.0,0.0,0.0,0.0,0.0,0.0,0.0,0.0,0.0,0.0,0.0,0.0,0.0,0.0,0.0,0.0,0.0,0.0,0.0,0.0,0.0,0.0,0.0,0.0,0.0,0.0,0.0,0.0,0.0,0.0,0.0,0.0,0.0,0.0,0.0,0.0,0.0,0.0,0.0,0.0,0.0,0.0,0.0,0.0,-1.7703,-1.8306,-1.7075,-1.6452,-1.6572,-1.7141,-1.7127,0.0,0.0,0.0,0.0,0.0,0.0,0.0,0.0,0.0,0.0,0.0,0.0,0.0,0.0,0.0,0.0,0.0,0.0,0.0,0.0,0.0,0.0,0.0,0.0,0.0,0.0,0.0,0.0,0.0,0.0,0.0,0.0,0.0,0.0,0.0,0.0,0.0,0.0,0.0,0.0,0.0,0.0,0.0,0.0,0.0,0.0,0.0,0.0,0.0,0.0,0.0,0.0,0.0,0.0,0.0,0.0,0.0,0.0,0.0,0.0,0.0,0.0,0.0,0.0,0.0,0.0,0.0,0.0,0.0,0.0,0.0,0.0,0.0,0.0,0.0,0.0,0.0,0.0,0.0,0.0,0.0,0.0,0.0,0.0,0.0,0.0,0.0,0.0,0.0,0.0,0.0,0.0,0.0,0.0,0.0,0.0,0.0,0.0,0.0,0.0,0.0,0.0,0.0,0.0,0.0,0.0,0.0,0.0,-1.7152,-1.6636,-1.6483,-1.6357,-1.6275,-1.643,-1.6262,0.0,0.0,0.0,0.0,0.0,0.0,0.0,0.0,0.0,0.0,0.0,0.0,0.0,0.0,0.0,0.0,0.0,0.0,0.0,0.0,0.0,0.0,0.0,0.0,0.0,0.0,0.0,0.0,0.0,0.0,0.0,0.0,0.0,0.0,0.0,0.0,0.0,0.0,0.0,0.0,0.0,0.0,0.0,0.0,0.0,0.0,0.0,0.0,-0.145,0.0,0.0,0.0,0.0,0.0,0.0,0.0,0.0,0.0,0.0,0.0,0.0,0.0,0.0,0.0,0.0,0.0,0.0,0.0,0.0,0.0,0.0,0.0,0.0,0.0,0.0,0.0,0.0,0.0,0.0,0.0,0.0,0.0,0.0,0.0,0.0,0.0,0.0,0.0,0.0,0.0,0.0,0.0,0.0,0.0,0.0,0.0,0.0,0.0,0.0,0.0,0.0,0.0,0.0,0.0,0.0,0.0,0.0,0.0,-1.6621,-1.5884,-1.5538,-1.5487,-1.5716,-1.5731,-1.577,0.0,0.0,0.0,0.0,0.0,0.0,0.0,0.0,0.0,0.0,0.0,0.0,0.0,0.0,0.0,0.0,0.0,0.0,0.0,0.0,0.0,0.0,0.0,0.0,0.0,0.0,0.0,0.0,0.0,0.0,0.0,0.0,0.0,0.0,0.0,0.0,0.0,0.0,0.0,0.0,0.0,0.0,0.0,0.0,0.0,0.0,0.0,0.0,0.0,0.0,0.0,0.0,0.0,0.0,0.0,0.0,0.0,0.0,0.0,0.0,0.0,0.0,0.0,0.0,0.0,0.0,0.0,0.0,0.0,0.0,0.0,0.0,0.0,0.0,0.0,0.0,0.0,0.0,0.0,0.0,0.0,0.0,0.0,0.0,0.0,0.0,0.0,0.0,0.0,0.0,0.0,0.0,0.0,0.0,0.0,0.0,0.0,0.0,0.0,0.0,0.0,0.0,0.0,0.0,0.0,0.0,0.0,-1.6266,-1.6054,-1.5432,-1.4604,-1.4455,-1.5037,-1.5147,-1.547,-1.601,0.0,0.0,0.0,0.0,0.0,0.0,0.0,0.0,0.0,0.0,0.0,0.0,0.0,0.0,0.0,0.0,0.0,0.0,0.0,0.0,0.0,0.0,0.0,0.0,0.0,0.0,0.0,0.0,0.0,0.0,0.0,0.0,0.0,0.0,0.0,0.0,0.0,0.0,-0.524,-0.556,0.0,0.0,0.0,0.0,0.0,0.0,0.0,0.0,-0.2534,0.0,0.0,0.0,0.0,0.0,0.0,0.0,0.0,0.0,0.0,0.0,0.0,0.0,0.0,0.0,0.0,0.0,0.0,0.0,0.0,0.0,0.0,0.0,0.0,0.0,0.0,0.0,0.0,0.0,0.0,0.0,0.0,0.0,0.0,0.0,0.0,0.0,0.0,0.0,0.0,0.0,0.0,0.0,0.0,0.0,0.0,0.0,0.0,0.0,0.0,0.0,0.0,0.0,0.0,0.0,0.0,-1.5935,-1.5827,-1.5389,-1.4712,-1.4379,-1.4252,-1.4363,-1.4916,-1.5255,-1.5378,0.0,0.0,0.0,0.0,0.0,0.0,0.0,0.0,0.0,0.0,0.0,0.0,0.0,0.0,0.0,0.0,0.0,0.0,0.0,0.0,0.0,0.0,0.0,0.0,0.0,0.0,0.0,0.0,0.0,0.0,0.0,0.0,0.0,0.0,0.0,0.0,0.0,0.0,0.0,-0.681,-0.6906,0.0,0.0,0.0,0.0,0.0,0.0,0.0,0.0,-0.2012,0.0,0.0,0.0,0.0,0.0,0.0,0.0,0.0,0.0,0.0,0.0,0.0,0.0,0.0,0.0,0.0,0.0,0.0,0.0,0.0,0.0,0.0,0.0,0.0,0.0,0.0,0.0,0.0,0.0,0.0,0.0,0.0,0.0,0.0,0.0,0.0,0.0,0.0,0.0,0.0,0.0,0.0,0.0,0.0,0.0,0.0,0.0,0.0,0.0,0.0,0.0,0.0,0.0,0.0,0.0,-1.5416,-1.5006,-1.4645,-1.4283,-1.3693,-1.369,-1.4339,-1.4669,-1.5054,0.0,0.0,0.0,0.0,0.0,0.0,0.0,0.0,0.0,0.0,0.0,0.0,0.0,0.0,0.0,0.0,0.0,0.0,0.0,0.0,0.0,0.0,0.0,0.0,0.0,0.0,0.0,0.0,0.0,0.0,0.0,0.0,0.0,0.0,0.0,0.0,0.0,0.0,0.0,0.0,-0.7054,-0.6987,-0.6334,0.0,0.0,0.0,0.0,0.0,0.0,-0.3175,-0.2507,0.0,0.0,0.0,0.0,0.0,0.0,0.0,0.0,0.0,0.0,0.0,0.0,0.0,0.0,0.0,0.0,0.0,0.0,0.0,0.0,0.0,0.0,0.0,0.0,0.0,0.0,0.0,0.0,0.0,0.0,0.0,0.0,0.0,0.0,0.0,0.0,0.0,0.0,0.0,0.0,0.0,0.0,0.0,0.0,0.0,0.0,0.0,0.0,0.0,0.0,0.0,0.0,0.0,0.0,0.0,-1.4914,-1.4369,-1.4099,-1.407,-1.3234,-1.3273,-1.4273,-1.4434,-1.4855,0.0,0.0,0.0,0.0,0.0,0.0,0.0,0.0,0.0,0.0,0.0,0.0,0.0,0.0,0.0,0.0,0.0,0.0,0.0,0.0,0.0,0.0,0.0,0.0,0.0,0.0,0.0,0.0,0.0,0.0,0.0,0.0,0.0,0.0,0.0,0.0,0.0,0.0,0.0,0.0,0.0,-0.6983,-0.6526,-0.6335,0.0,0.0,0.0,0.0,-0.4907,-0.3963,0.0,0.0,0.0,0.0,0.0,0.0,0.0,0.0,0.0,0.0,0.0,0.0,0.0,0.0,0.0,0.0,0.0,0.0,0.0,0.0,0.0,0.0,0.0,0.0,0.0,0.0,0.0,0.0,0.0,0.0,0.0,0.0,0.0,0.0,0.0,0.0,0.0,0.0,0.0,0.0,0.0,0.0,0.0,0.0,0.0,0.0,0.0,0.0,0.0,0.0,0.0,0.0,0.0,0.0,0.0,0.0,-1.4824,-1.434,-1.4099,-1.4084,-1.3656,-1.3441,-1.3616,-1.4171,-1.4551,0.0,0.0,0.0,0.0,0.0,0.0,0.0,0.0,0.0,0.0,0.0,0.0,0.0,0.0,0.0,0.0,0.0,0.0,0.0,0.0,0.0,0.0,0.0,0.0,0.0,0.0,0.0,0.0,0.0,0.0,0.0,0.0,0.0,0.0,0.0,0.0,0.0,0.0,0.0,0.0,0.0,-0.7583,-0.7009,-0.6818,-0.6657,0.0,0.0,-0.5468,-0.564,-0.453,0.0,0.0,0.0,0.0,0.0,0.0,0.0,0.0,0.0,0.0,0.0,0.0,0.0,0.0,0.0,0.0,0.0,0.0,0.0,0.0,0.0,0.0,0.0,0.0,0.0,0.0,0.0,0.0,0.0,0.0,0.0,0.0,0.0,0.0,0.0,0.0,0.0,0.0,0.0,0.0,0.0,0.0,0.0,0.0,0.0,0.0,0.0,0.0,0.0,0.0,0.0,0.0,0.0,0.0,0.0,-1.524,-1.4522,-1.3965,-1.3918,-1.4464,-1.3984,-1.3799,-1.3965,-1.4439,-1.4642,0.0,0.0,0.0,0.0,0.0,0.0,0.0,0.0,0.0,0.0,0.0,0.0,0.0,0.0,0.0,0.0,0.0,0.0,0.0,0.0,0.0,0.0,0.0,0.0,0.0,0.0,0.0,0.0,0.0,0.0,0.0,0.0,0.0,0.0,0.0,0.0,0.0,0.0,0.0,0.0,0.0,0.0,-0.6925,-0.7042,0.0,0.0,0.0,-0.6252,-0.6362,0.0,0.0,0.0,0.0,0.0,0.0,0.0,0.0,0.0,0.0,0.0,0.0,0.0,0.0,0.0,0.0,0.0,0.0,0.0,0.0,0.0,0.0,0.0,0.0,0.0,0.0,0.0,0.0,0.0,0.0,0.0,0.0,0.0,0.0,0.0,0.0,0.0,0.0,0.0,0.0,0.0,0.0,0.0,0.0,0.0,0.0,0.0,0.0,0.0,0.0,0.0,0.0,0.0,0.0,0.0,0.0,0.0,-1.4154,-1.3653,-1.3765,-1.447,-1.4101,-1.3948,-1.413,-1.4399,0.0,0.0,0.0,0.0,0.0,0.0,0.0,0.0,0.0,0.0,0.0,0.0,0.0,0.0,0.0,0.0,0.0,0.0,0.0,0.0,0.0,0.0,0.0,0.0,0.0,0.0,0.0,0.0,0.0,0.0,0.0,0.0,0.0,0.0,0.0,0.0,0.0,0.0,0.0,0.0,0.0,0.0,-0.7106,-0.6997,-0.7282,-0.7372,0.0,0.0,-0.6949,-0.6877,-0.5941,-0.4961,0.0,0.0,0.0,0.0,0.0,0.0,0.0,0.0,0.0,0.0,0.0,0.0,0.0,0.0,0.0,0.0,0.0,0.0,0.0,0.0,0.0,0.0,0.0,0.0,0.0,0.0,0.0,0.0,0.0,0.0,0.0,0.0,0.0,0.0,0.0,0.0,0.0,0.0,0.0,0.0,0.0,0.0,0.0,0.0,0.0,0.0,0.0,0.0,0.0,0.0,0.0,0.0,0.0,0.0,0.0,-1.3762,-1.3696,-1.3696,-1.3769,-1.3742,-1.3713,-1.3749,-1.3769,-1.3769,0.0,0.0,0.0,0.0,0.0,0.0,0.0,0.0,0.0,0.0,0.0,0.0,0.0,0.0,0.0,0.0,0.0,0.0,0.0,0.0,0.0,0.0,0.0,0.0,0.0,0.0,0.0,0.0,0.0,0.0,0.0,0.0,0.0,0.0,0.0,0.0,0.0,0.0,0.0,0.0,0.0,-0.7457,-0.7462,-0.7491,-0.7491,0.0,0.0,-0.7361,-0.7128,-0.6185,-0.5358,-0.5061,0.0,0.0,0.0,0.0,0.0,0.0,0.0,0.0,0.0,0.0,0.0,0.0,0.0,0.0,0.0,0.0,0.0,0.0,0.0,0.0,0.0,0.0,0.0,0.0,0.0,0.0,0.0,0.0,0.0,0.0,0.0,0.0,0.0,0.0,0.0,0.0,0.0,0.0,0.0,0.0,0.0,0.0,0.0,0.0,0.0,0.0,0.0,0.0,0.0,0.0,0.0,0.0,0.0,-1.3765,-1.3399,-1.3382,-1.3484,-1.3685,-1.3702,-1.3602,-1.3399,-1.3585,-1.3589,0.0,0.0,0.0,0.0,0.0,0.0,0.0,0.0,0.0,0.0,0.0,0.0,0.0,0.0,0.0,0.0,0.0,0.0,0.0,0.0,0.0,0.0,0.0,0.0,0.0,0.0,0.0,0.0,-0.7245,-0.7162,-0.6911,0.0,0.0,0.0,0.0,0.0,0.0,0.0,0.0,0.0,0.0,-0.7513,-0.7513,-0.7513,0.0,0.0,-0.7513,-0.753,-0.7592,-0.6562,-0.5703,-0.5608,-0.44,0.0,0.0,0.0,0.0,0.0,0.0,0.0,0.0,0.0,0.0,0.0,0.0,0.0,0.0,0.0,0.0,0.0,0.0,0.0,0.0,0.0,0.0,0.0,0.0,0.0,0.0,0.0,0.0,0.0,0.0,0.0,0.0,0.0,0.0,0.0,0.0,0.0,0.0,0.0,0.0,0.0,0.0,0.0,0.0,0.0,0.0,0.0,0.0,0.0,0.0,0.0,0.0,-1.3423,-1.3275,-1.3132,-1.316,-1.3395,-1.3412,-1.328,-1.3074,-1.316,-1.3113,0.0,0.0,0.0,0.0,0.0,0.0,0.0,0.0,0.0,0.0,0.0,0.0,0.0,0.0,0.0,0.0,0.0,0.0,0.0,0.0,0.0,0.0,0.0,0.0,0.0,0.0,0.0,0.0,-0.7963,-0.7686,-0.7194,0.0,0.0,0.0,0.0,0.0,0.0,0.0,0.0,0.0,0.0,-0.7262,-0.7582,-0.7609,-0.7625,-0.7625,-0.7705,-0.7736,-0.7665,-0.6748,-0.5955,-0.5726,0.0,0.0,0.0,0.0,0.0,0.0,0.0,0.0,0.0,0.0,0.0,0.0,0.0,0.0,0.0,0.0,0.0,0.0,0.0,0.0,0.0,0.0,0.0,0.0,0.0,0.0,0.0,0.0,0.0,0.0,-1.5062,0.0,0.0,0.0,0.0,0.0,0.0,0.0,0.0,0.0,0.0,0.0,0.0,0.0,0.0,0.0,0.0,0.0,0.0,0.0,0.0,0.0,0.0,0.0,-1.3469,-1.2944,-1.2709,-1.2727,-1.2709,-1.2709,-1.2692,-1.233,-1.212,-1.2131,0.0,0.0,0.0,0.0,0.0,0.0,0.0,0.0,0.0,0.0,0.0,0.0,0.0,0.0,0.0,0.0,0.0,0.0,0.0,0.0,0.0,0.0,0.0,0.0,0.0,0.0,-0.8304,-0.8067,-0.758,0.0,0.0,0.0,0.0,0.0,0.0,0.0,0.0,0.0,0.0,-0.6659,-0.6702,-0.7688,-0.7868,-0.7831,-0.7831,-0.8119,-0.807,-0.723,-0.6701,-0.6139,0.0,0.0,0.0,0.0,0.0,0.0,0.0,0.0,0.0,0.0,0.0,0.0,0.0,0.0,0.0,0.0,0.0,0.0,0.0,0.0,0.0,0.0,0.0,0.0,0.0,0.0,0.0,-1.4063,-1.4177,0.0,0.0,0.0,0.0,0.0,0.0,0.0,0.0,0.0,0.0,0.0,-1.1699,-1.169,0.0,0.0,0.0,0.0,0.0,0.0,0.0,0.0,0.0,0.0,0.0,0.0,-1.2549,-1.2557,-1.2133,-1.1902,-1.1884,-1.1902,-1.1902,-1.1884,-1.1774,-1.17,-1.17,0.0,0.0,0.0,0.0,0.0,0.0,0.0,0.0,0.0,0.0,0.0,0.0,0.0,0.0,0.0,0.0,0.0,0.0,0.0,0.0,0.0,0.0,0.0,0.0,0.0,-0.878,0.0,0.0,0.0,0.0,0.0,0.0,0.0,0.0,0.0,0.0,0.0,-0.6508,-0.6503,-0.6508,-0.6562,-0.6726,-0.6774,-0.6716,0.0,0.0,0.0,0.0,0.0,0.0,0.0,0.0,0.0,0.0,0.0,0.0,0.0,0.0,0.0,0.0514,0.0669,0.09,0.1413,0.0,0.0,0.0,0.0,0.0,0.0,0.0,0.0,0.0,0.0,0.0,0.0,0.0,0.0,-1.3278,0.0,-1.2763,0.0,0.0,0.0,0.0,0.0,0.0,0.0,0.0,-1.0768,-1.0635,-1.0643,-1.0643,-1.0635,0.0,-1.0829,-1.1103,0.0,0.0,0.0,0.0,0.0,0.0,0.0,0.0,-1.2378,-1.2356,-1.1806,-1.1497,-1.1497,-1.1497,-1.1497,-1.1497,-1.1367,-1.1236,-1.1086,-1.1065,-1.093,0.0,0.0,0.0,0.0,0.0,0.0,0.0,0.0,0.0,0.0,0.0,0.0,0.0,0.0,0.0,0.0,0.0,0.0,0.0,0.0,0.0,0.0,0.0,-0.8682,0.0,0.0,0.0,0.0,0.0,0.0,0.0,0.0,0.0,-0.5693,-0.5937,-0.6076,-0.5951,-0.6096,-0.6242,-0.6344,0.0,0.0,0.0,0.0,0.0,0.0,0.0,-0.6042,-0.5585,-0.5157,-0.4515,-0.3568,-0.2838,-0.2208,-0.1694,0.0,0.0,0.0125,0.0485,0.0754,0.1093,0.1341,0.1572,0.1859,0.2691,0.3405,0.0,0.0,0.0,0.0,0.0,0.0,0.0,0.0,-1.289,-1.2794,0.0,-1.2378,0.0,0.0,0.0,0.0,0.0,0.0,0.0,0.0,-1.0023,-0.9614,-0.9614,-0.964,-0.9614,-0.964,-1.0138,-1.0246,-1.0027,-1.0389,0.0,0.0,0.0,0.0,0.0,0.0,-1.2825,-1.2718,-1.1841,-1.1404,-1.1404,-1.1423,-1.1442,-1.1412,-1.1029,-1.0649,-1.0273,-1.0196,-1.0143,-1.0073,-1.0571,0.0,0.0,0.0,0.0,0.0,0.0,0.0,0.0,0.0,0.0,0.0,0.0,0.0,0.0,0.0,0.0,0.0,0.0,0.0,0.0,-0.8384,0.0,0.0,0.0,0.0,0.0,0.0,0.0,0.0,0.0,0.0,-0.4816,-0.5042,-0.5264,-0.5483,0.0,0.0,0.0,0.0,-0.666,-0.694,-0.7015,-0.6826,-0.6244,-0.6012,-0.5645,-0.4931,0.0,0.0,-0.3103,-0.2668,-0.2265,-0.1843,-0.1678,-0.1248,0.0133,0.0818,0.12,0.1281,0.1415,0.1592,0.1677,0.2638,0.3482,-1.6959,0.0,0.0,0.0,0.0,-1.4686,-1.4185,-1.3624,-1.2913,-1.2634,-1.2639,-1.2288,0.0,0.0,0.0,0.0,0.0,0.0,-1.0745,-1.0319,-0.9847,-0.9614,-0.9614,-0.9614,-0.9614,-0.9614,-0.9744,-0.969,-0.9447,-0.9547,-1.0197,-1.1355,0.0,0.0,0.0,0.0,-1.077,-1.0528,-0.9995,-0.9697,-0.9699,-1.0001,-1.0138,-1.0138,-0.9746,-0.9478,-0.9388,-0.9348,-0.9332,-0.9334,-0.9682,0.0,0.0,0.0,0.0,0.0,0.0,0.0,0.0,0.0,0.0,0.0,0.0,0.0,0.0,0.0,0.0,0.0,0.0,0.0,-0.8079,-0.7644,-0.7135,0.0,0.0,0.0,0.0,0.0,0.0,0.0,0.0,0.0,-0.4101,-0.4781,-0.5295,0.0,0.0,-0.5424,-0.564,-0.5676,-0.5676,-0.5672,0.0,0.0,0.0,-0.553,-0.5426,-0.4828,-0.4004,-0.3254,-0.2795,-0.2539,-0.2231,-0.1662,-0.1317,-0.0798,-0.0027,0.0274,0.0527,0.0897,0.1167,0.1315,0.1422,0.2387,0.326,-1.577,-1.5145,-1.513,-1.4948,-1.4632,-1.4227,-1.3763,-1.3181,-1.2488,-1.2261,-1.2319,-1.1893,-1.1829,-1.1975,-1.1632,0.0,0.0,0.0,-1.0113,-0.975,-0.9384,-0.9203,-0.9126,-0.9283,-0.9361,-0.9368,-0.9536,-0.946,-0.9175,-0.9317,-0.9627,-1.0157,0.0,0.0,-1.0588,-1.0126,-0.9803,-0.9585,-0.9204,-0.9007,-0.901,-0.9231,-0.9359,-0.9359,-0.9128,-0.8996,-0.8996,-0.8834,-0.8807,-0.8919,-0.9014,-0.8933,0.0,0.0,0.0,0.0,0.0,0.0,0.0,0.0,0.0,0.0,0.0,-0.9205,0.0,0.0,0.0,0.0,-0.7716,-0.7703,-0.7272,-0.6713,0.0,0.0,0.0,0.0,0.0,0.0,0.0,-0.4575,-0.4192,-0.3872,-0.3899,-0.4382,-0.4776,-0.471,-0.4758,-0.477,-0.477,0.0,-0.4765,-0.4694,-0.4732,-0.4765,-0.4694,-0.4747,-0.464,-0.4104,-0.3533,-0.3011,-0.2678,-0.2298,-0.1885,-0.1359,-0.0741,-0.016,0.0407,0.0498,0.0583,0.0886,0.1309,0.1604,0.1616,0.2582,0.3411,-1.4949,-1.466,-1.5168,-1.4912,-1.4193,-1.38,-1.3227,-1.2498,-1.1948,-1.1828,-1.2035,-1.1458,-1.1144,-1.1032,-1.0243,0.0,0.0,-0.9485,-0.9168,-0.9182,-0.8846,-0.8601,-0.8427,-0.8765,-0.8956,-0.8956,-0.9335,-0.9358,-0.9122,-0.9344,-0.9329,-0.9057,-0.9251,-0.9629,-1.0163,-0.9768,-0.9512,-0.947,-0.9114,-0.8949,-0.8943,-0.8923,-0.8915,-0.8955,-0.8949,-0.8925,-0.8925,-0.863,-0.8519,-0.8723,-0.85,-0.8236,-0.7933,0.0,0.0,0.0,0.0,0.0,0.0,0.0,0.0,0.0,0.0,0.0,0.0,0.0,0.0,0.0,-0.7034,0.0,-0.6154,-0.5737,0.0,0.0,0.0,-0.4269,-0.3847,-0.389,-0.3965,-0.3965,0.0,0.0,0.0,0.0,-0.3841,-0.3717,-0.3863,-0.3993,-0.3993,-0.4021,-0.3993,-0.4042,-0.4021,-0.4021,-0.4061,-0.3953,-0.3664,-0.318,-0.2991,-0.2866,-0.2548,-0.2038,-0.1417,-0.0908,-0.0164,0.0513,0.1004,0.1202,0.1327,0.1146,0.1698,0.2183,0.225,0.3099,0.3842,-1.4975,-1.458,-1.4483,-1.4139,-1.3671,-1.3324,-1.3044,-1.2854,-1.2444,-1.2197,-1.2089,-1.1905,-1.1505,-1.0854,-1.0647,-1.0405,-1.0039,-0.9653,-0.9381,-0.9182,-0.8846,-0.8601,-0.8401,-0.8501,-0.8553,-0.8553,-0.8633,-0.8534,-0.8213,-0.8265,-0.8122,-0.7854,-0.7865,-0.8423,-0.941,-0.9097,-0.8776,-0.8547,-0.8449,-0.8452,-0.8524,-0.8201,-0.8167,-0.8516,-0.8458,-0.8389,-0.8389,-0.855,-0.848,-0.8215,-0.8213,-0.796,-0.7263,-0.7448,0.0,0.0,0.0,0.0,0.0,0.0,0.0,0.0,0.0,-0.8068,-0.7291,0.0,-0.7996,0.0,-0.6421,-0.5769,-0.5399,-0.4791,0.0,0.0,-0.4113,-0.4064,-0.3948,-0.3699,-0.3552,-0.3552,-0.3218,-0.2996,-0.2996,-0.3023,-0.2989,-0.2991,-0.3561,-0.3993,-0.3993,-0.3993,-0.3993,-0.3993,-0.3965,-0.3993,-0.3935,-0.3724,-0.3304,-0.2848,-0.276,-0.2604,-0.2098,-0.1869,-0.1402,-0.0447,0.0028,0.0473,0.1007,0.1566,0.1919,0.1883,0.2113,0.2491,0.2906,0.3574,0.4066,-1.4705,-1.4366,-1.4179,-1.3711,-1.3073,-1.2854,-1.2561,-1.2201,-1.1881,-1.1514,-1.1163,-1.1163,-1.0881,-1.044,-1.0225,-0.997,-0.9671,-0.9285,-0.8924,-0.8581,-0.8403,-0.8143,-0.7836,-0.8017,-0.8096,-0.8103,-0.8289,-0.8318,-0.8107,-0.798,-0.7911,-0.7847,-0.7577,-0.7845,-0.8618,-0.8311,-0.8023,-0.7829,-0.7829,-0.7883,-0.796,-0.771,-0.7688,-0.7953,-0.7877,-0.7836,-0.7829,-0.8016,-0.8011,-0.7743,-0.7808,-0.7605,-0.7128,-0.7182,-0.7217,0.0,0.0,0.0,0.0,0.0,0.0,0.0,0.0,0.0,0.0,0.0,-0.671,0.0,0.0,0.0,-0.4849,-0.4133,-0.3634,-0.3631,-0.3449,-0.3284,-0.3284,-0.3143,-0.3039,-0.3039,-0.2832,-0.2691,-0.2691,-0.2691,-0.2691,-0.2691,-0.288,-0.313,-0.3357,-0.3413,-0.3413,-0.3413,-0.3413,-0.3299,-0.3074,-0.2852,-0.2517,-0.2014,-0.1875,-0.1762,-0.1453,-0.1159,-0.0714,-0.0056,0.0438,0.0915,0.1472,0.1999,0.2445,0.2836,0.3051,0.3244,0.3405,0.3815,0.4236,-1.4158,-1.3796,-1.3804,-1.3288,-1.2464,-1.2357,-1.1908,-1.1227,-1.0855,-1.0446,-1.0021,-1.0021,-0.9952,-0.9894,-0.9492,-0.9274,-0.9177,-0.87,-0.8243,-0.7855,-0.7844,-0.7607,-0.7209,-0.7558,-0.7715,-0.7742,-0.8096,-0.8259,-0.8253,-0.8016,-0.7998,-0.8204,-0.7679,-0.7548,-0.7804,-0.7456,-0.7331,-0.7409,-0.7378,-0.7336,-0.7353,-0.7391,-0.7385,-0.7385,-0.7441,-0.7459,-0.7459,-0.7515,-0.7516,-0.7437,-0.7406,-0.7321,-0.7135,-0.6908,-0.6965,0.0,-0.6957,0.0,0.0,0.0,0.0,0.0,0.0,0.0,0.0,-0.5484,-0.5041,-0.4873,-0.435,-0.4129,-0.435,-0.3662,-0.3165,-0.3123,-0.2724,-0.2441,-0.2458,-0.255,-0.2626,-0.2626,-0.2587,-0.2579,-0.2549,-0.2521,-0.2465,-0.2354,-0.2014,-0.1958,-0.2352,-0.2436,-0.2436,-0.2465,-0.2493,-0.2266,-0.1874,-0.1706,-0.1538,-0.1034,-0.0978,-0.0866,-0.081,-0.0301,0.0136,0.036,0.0913,0.1564,0.2131,0.2458,0.2975,0.3701,0.4029,0.4102,0.3892,0.4093,0.4483,-1.2952,-1.2144,-1.215,-1.204,-1.1859,-1.1579,-1.1279,-1.0936,-1.038,-1.0117,-1.0021,-1.0021,-0.9799,-0.9428,-0.9338,-0.9081,-0.8641,-0.8544,-0.8361,-0.8117,-0.8111,-0.796,-0.7672,-0.7748,-0.7783,-0.7766,-0.7643,-0.7577,-0.76,-0.7377,-0.7304,-0.7343,-0.7006,-0.6895,0.0,0.0,0.0,0.0,-0.7214,-0.7078,-0.7084,-0.729,-0.7385,-0.7416,-0.7653,0.0,-0.7829,-0.8063,-0.8027,-0.7649,-0.7491,0.0,0.0,0.0,0.0,0.0,0.0,0.0,0.0,0.0,0.0,0.0,-0.4787,-0.4682,-0.4834,-0.4963,-0.4937,-0.474,-0.4336,-0.401,-0.3773,-0.3336,-0.2998,-0.2898,-0.2787,-0.2721,-0.265,-0.2654,-0.2694,-0.2666,-0.2259,-0.1959,-0.1962,-0.1538,-0.1258,-0.1316,-0.1146,-0.1118,-0.1229,-0.1286,-0.1258,-0.1258,-0.1342,-0.1229,-0.109,-0.109,-0.1006,-0.0894,-0.0894,-0.0671,-0.0224,0.0028,0.0389,0.0813,0.1276,0.1756,0.2344,0.2817,0.3387,0.4036,0.4426,0.4672,0.4601,0.465,0.4771,-1.2181,0.0,-1.1706,-1.1521,0.0,-1.0973,-1.0611,-1.0249,-1.0057,-0.9811,-0.9456,-0.9456,-0.9261,-0.8894,-0.8894,-0.8738,-0.8517,-0.8517,-0.8382,-0.8218,-0.8213,-0.8057,-0.7801,-0.7801,-0.7801,-0.7795,-0.7653,-0.7594,-0.7583,-0.7386,-0.7327,-0.7458,-0.7085,-0.6907,-0.6896,-0.6563,-0.6584,-0.6966,-0.6783,-0.6701,-0.6707,-0.694,-0.7043,-0.7073,0.0,0.0,0.0,0.0,0.0,0.0,0.0,0.0,0.0,0.0,0.0,-0.5328,-0.5226,-0.5109,-0.4917,-0.4713,-0.4592,-0.4493,-0.3918,-0.3639,-0.3832,-0.4028,-0.4037,-0.3859,-0.3684,-0.3501,-0.3317,-0.3067,-0.2856,-0.2742,-0.2463,-0.2213,-0.2096,-0.1894,-0.1775,-0.1752,-0.1524,-0.1349,-0.1344,-0.11,-0.0902,-0.0884,-0.0621,-0.0448,-0.0504,-0.0727,-0.0894,-0.0894,-0.0894,-0.0783,-0.0503,-0.0392,-0.0224,-0.0028,0.014,0.028,0.0589,0.0774,0.0962,0.1308,0.1722,0.2246,0.2796,0.3406,0.3981,0.4404,0.4735,0.5027,0.5179,0.5247,0.5347,-1.1484,-1.1372,-1.1378,-1.1111,-1.0614,-1.0448,-1.0112,-0.9657,0.0,0.0,0.0,-0.8954,-0.8846,-0.8608,-0.8635,-0.8641,-0.8635,-0.8635,-0.8506,-0.8306,-0.8337,-0.8182,-0.793,-0.7925,-0.793,-0.7925,-0.7881,-0.783,-0.7765,-0.7507,-0.7462,-0.7565,-0.7191,-0.6939,-0.6839,-0.6449,-0.6244,-0.625,-0.639,-0.6455,-0.6466,-0.665,-0.6774,-0.6774,-0.6982,-0.7106,-0.7106,-0.7004,-0.6945,-0.6891,-0.681,-0.6507,-0.6018,-0.5882,-0.5569,-0.4986,-0.4845,-0.478,-0.4697,-0.4215,-0.3919,-0.3919,-0.3347,-0.3071,-0.3166,-0.3166,-0.3142,-0.303,-0.3034,-0.3034,-0.3034,-0.2942,-0.2771,-0.2598,-0.2074,-0.1664,-0.1403,-0.1047,-0.0854,-0.0796,-0.0783,-0.0714,-0.0647,-0.0544,-0.0538,-0.0435,-0.0029,0.0224,0.0168,-0.014,-0.0419,-0.0419,-0.0307,-0.028,0.0084,0.0308,0.0617,0.0953,0.115,0.129,0.1341,0.1507,0.1689,0.1757,0.2266,0.2864,0.3411,0.3971,0.4494,0.4829,0.5019,0.5267,0.5675,0.5878,0.6057,-1.0631,-1.0143,-1.0143,-1.0105,-1.003,-0.9997,-0.9948,-0.9836,-0.9471,-0.9254,-0.9157,-0.9157,-0.9136,-0.9109,-0.9109,-0.9074,-0.9109,-0.9109,-0.898,0.0,-0.8798,-0.8673,-0.842,-0.8414,-0.8382,-0.8366,-0.823,-0.7948,-0.7649,-0.741,-0.7176,-0.6942,-0.663,-0.6336,-0.598,-0.5742,-0.5628,-0.5658,-0.6303,-0.6661,-0.6666,-0.6912,-0.7036,-0.7036,-0.7063,-0.7106,-0.7112,-0.6593,-0.629,-0.6145,-0.5651,-0.53,-0.5093,-0.466,-0.4352,-0.4243,-0.3881,-0.359,-0.3481,-0.3392,-0.3316,-0.3249,-0.3134,-0.3102,-0.3102,-0.3134,-0.3137,-0.3177,-0.3179,-0.3156,-0.3187,-0.3103,-0.2792,-0.2187,-0.2014,-0.1674,-0.0987,-0.0808,-0.072,-0.0689,-0.0385,-0.003,0.0151,0.0495,0.077,0.099,0.0918,0.1066,0.101,0.0954,0.0813,0.0841,0.0925,0.101,0.101,0.1122,0.115,0.1262,0.1318,0.1402,0.143,0.1975,0.2356,0.2371,0.2975,0.3599,0.4173,0.4405,0.4701,0.51,0.5244,0.5437,0.6023,0.6532,0.6865,-1.0143,-0.9922,-0.9884,-0.9997,-1.0137,-1.0256,-1.0201,-1.011,-0.9895,-0.9647,-0.9452,-0.941,-0.933,-0.9206,-0.9171,-0.9171,-0.9171,-0.9171,-0.9048,-0.875,-0.8745,-0.8484,-0.8084,-0.8074,-0.8037,-0.7954,-0.7844,-0.7575,-0.715,-0.703,-0.6732,-0.631,-0.6035,-0.5784,-0.5482,-0.5393,-0.5357,-0.5349,-0.5817,-0.5917,-0.5686,-0.5935,-0.5955,-0.5686,-0.5859,-0.5974,-0.5946,-0.5767,-0.5616,-0.5554,-0.5295,-0.4984,-0.4584,-0.4319,-0.4025,-0.364,-0.3418,-0.3257,-0.3151,-0.317,-0.3184,-0.316,-0.3164,-0.3162,-0.313,-0.3162,-0.3181,-0.3188,-0.3192,-0.3058,-0.272,-0.2653,-0.2324,-0.1486,-0.1127,-0.0763,-0.0372,0.0,0.0154,0.0185,0.0396,0.0581,0.0693,0.1004,0.1218,0.1293,0.1278,0.1321,0.1319,0.1347,0.1318,0.1234,0.1262,0.129,0.1318,0.1403,0.1459,0.1487,0.1793,0.2015,0.2099,0.2653,0.3042,0.3123,0.3624,0.4125,0.4487,0.4743,0.5018,0.5187,0.5301,0.5626,0.6458,0.7375,0.7921,-1.0078,-1.0045,-1.004,-1.0196,-1.0385,-1.0517,-1.049,-1.0374,-1.0369,-1.0164,-0.9836,-0.9707,-0.955,-0.9373,-0.9367,-0.9367,-0.9367,-0.9367,-0.9163,-0.8837,-0.8837,-0.8433,-0.7745,-0.7664,-0.7486,-0.7197,-0.7152,-0.69,-0.6437,-0.6375,-0.6141,-0.5687,-0.5414,-0.5213,-0.5071,-0.5036,-0.4985,-0.5017,-0.5132,-0.5125,-0.4918,-0.5094,-0.5023,-0.4718,-0.4908,-0.5035,-0.5046,-0.5012,-0.4985,-0.4955,-0.4833,-0.4503,-0.405,-0.4016,-0.3755,-0.3235,-0.3194,-0.3175,-0.3115,-0.3185,-0.3192,-0.3192,-0.3192,-0.3125,-0.2989,-0.2956,-0.2989,-0.2956,-0.2757,-0.2452,-0.2048,-0.1946,-0.163,-0.0815,-0.0293,0.0032,0.0316,0.0755,0.1071,0.107,0.1096,0.1167,0.1221,0.1295,0.1384,0.1392,0.1403,0.1475,0.1602,0.1738,0.1794,0.1821,0.1709,0.1653,0.1625,0.1905,0.2073,0.2046,0.2517,0.2792,0.2959,0.3403,0.3766,0.3849,0.4267,0.4629,0.4712,0.5152,0.5458,0.5567,0.5732,0.6109,0.7079,0.8023,0.8725,-1.0522,-1.0533,-1.0512,-1.0538,-1.0565,-1.0597,-1.0597,-1.0565,-1.0565,-1.0549,-1.0386,-1.0045,-0.9841,-0.9857,-0.9804,-0.9793,-0.9793,-0.9852,-0.9659,-0.9452,-0.9509,-0.8867,-0.7672,-0.7543,-0.7039,-0.6241,-0.6107,-0.587,-0.5444,-0.5408,-0.5243,-0.4932,-0.4748,-0.4655,-0.4627,-0.4451,-0.4388,-0.4388,-0.4396,-0.464,-0.514,-0.5184,-0.5191,-0.5128,-0.5123,-0.5175,-0.5085,-0.4679,-0.4324,-0.4169,-0.3694,-0.3324,-0.3149,-0.3189,-0.3172,-0.3113,-0.3152,-0.3207,-0.318,-0.3188,-0.3129,-0.3192,-0.3133,-0.2864,-0.2356,-0.2285,-0.2283,-0.2186,-0.1682,-0.1344,-0.121,-0.1211,-0.0875,-0.0201,0.0,0.0234,0.0832,0.1167,0.1267,0.1267,0.1367,0.1623,0.1685,0.1726,0.1745,0.1985,0.2043,0.2147,0.2499,0.2599,0.2793,0.3086,0.2963,0.2601,0.2599,0.3042,0.3181,0.3292,0.343,0.3514,0.3624,0.399,0.4405,0.446,0.4798,0.5105,0.5348,0.5704,0.6077,0.6186,0.6512,0.7079,0.7717,0.8342,0.8725,-1.0597,-1.0597,-1.0597,-1.0672,-1.0853,-1.0951,-1.093,-1.0801,-1.0212,-0.993,-0.9679,-0.8969,-0.9193,-1.0093,-0.9986,-0.9884,-0.9846,-0.9268,-0.8841,-0.8501,-0.789,-0.7116,-0.6397,-0.62,-0.587,-0.5424,-0.5316,-0.5014,-0.4553,-0.4223,-0.3987,-0.3887,-0.3812,-0.3762,-0.3757,-0.3684,-0.363,-0.3662,-0.3662,-0.3791,-0.3995,-0.4185,-0.4138,-0.3933,-0.3934,-0.394,-0.3945,-0.3754,-0.3628,-0.3565,-0.3309,-0.318,-0.3115,-0.315,-0.3171,-0.314,-0.2802,-0.2619,-0.2586,-0.2181,-0.1894,-0.1895,-0.1886,-0.176,-0.1514,-0.1092,-0.0846,-0.0878,-0.0993,-0.0941,-0.0539,-0.0478,-0.0172,0.0482,0.0655,0.0757,0.1033,0.1154,0.121,0.1276,0.1365,0.1525,0.1767,0.2143,0.2615,0.3063,0.3205,0.326,0.3485,0.3514,0.3632,0.3826,0.3866,0.3699,0.3368,0.3403,0.3597,0.3683,0.3904,0.4128,0.4184,0.4574,0.4963,0.4963,0.5187,0.5485,0.5805,0.5996,0.629,0.6642,0.7155,0.7664,0.7877,0.8368,0.8725,-1.079,-1.079,-1.079,-1.0934,-1.1053,-1.0967,-1.0855,-1.0583,-0.9715,-0.9161,-0.886,-0.8101,-0.8388,-0.9359,-0.9261,-0.9138,-0.896,-0.8304,-0.7808,-0.7468,-0.67,-0.6026,-0.5434,-0.5267,-0.4973,-0.4629,-0.4482,-0.4256,-0.3844,-0.3474,-0.3264,-0.326,-0.324,-0.3192,-0.3192,-0.3192,-0.3192,-0.3226,-0.3192,-0.3192,-0.3241,-0.3384,-0.3342,-0.3097,-0.3093,-0.3128,-0.313,-0.3158,-0.3192,-0.3192,-0.3192,-0.3192,-0.3192,-0.3192,-0.3125,-0.2891,-0.2266,-0.1867,-0.1867,-0.1324,-0.0991,-0.0992,-0.1008,-0.0909,-0.0655,-0.0218,0.0182,0.0327,-0.0141,-0.0172,0.0207,0.035,0.0566,0.1063,0.1134,0.1134,0.1202,0.1217,0.1344,0.1479,0.1814,0.1996,0.2348,0.29,0.3531,0.3964,0.4088,0.4228,0.4296,0.4342,0.4372,0.4564,0.4862,0.4658,0.4066,0.4089,0.4024,0.4128,0.4491,0.4715,0.4715,0.5105,0.5301,0.516,0.538,0.5673,0.6073,0.629,0.6869,0.7429,0.7857,0.8123,0.8229,0.8586,0.8725,-1.1278,-1.1268,-1.1273,-1.1171,-1.1203,-1.0337,-0.9937,-0.9822,-0.8913,-0.8424,-0.8198,-0.7858,-0.7651,-0.7435,-0.7412,-0.7274,-0.7011,-0.6957,-0.6881,-0.6808,-0.6692,-0.6185,-0.5369,-0.5205,-0.4654,-0.3843,-0.3719,-0.361,-0.3543,-0.3432,-0.3393,-0.3389,-0.3283,-0.32,-0.3208,-0.3212,-0.3198,-0.3212,-0.3212,-0.3202,-0.32,-0.3222,-0.3249,-0.3215,-0.3215,-0.318,-0.3182,-0.319,-0.3192,-0.3192,-0.3192,-0.3192,-0.3192,-0.3161,-0.2827,-0.2258,-0.1482,-0.1049,-0.1051,-0.093,-0.0871,-0.0907,-0.0802,-0.0656,0.0,0.0147,0.0477,0.1059,0.0986,0.1017,0.109,0.1053,0.1091,0.1201,0.1201,0.1273,0.1455,0.1628,0.1779,0.2128,0.2717,0.3335,0.4,0.4217,0.4251,0.4344,0.4296,0.4448,0.4917,0.4992,0.5186,0.5555,0.5707,0.5568,0.4901,0.4777,0.5029,0.5041,0.5001,0.5191,0.5274,0.5301,0.5329,0.5494,0.5891,0.6182,0.6394,0.6972,0.7839,0.8359,0.8467,0.8646,0.8533,0.8699,0.8778,-1.1311,-1.1224,-1.0646,-1.0386,-1.0299,-0.9375,-0.8934,-0.8707,-0.7837,-0.7261,-0.6939,-0.6323,-0.58,-0.5509,-0.5513,-0.5987,-0.671,-0.615,-0.5844,-0.5764,-0.519,-0.4688,-0.437,-0.4232,-0.3997,-0.3651,-0.354,-0.3499,-0.3497,-0.3467,-0.3452,-0.3448,-0.342,-0.3401,-0.3401,-0.3401,-0.3399,-0.3399,-0.3366,-0.3403,-0.3397,-0.3401,-0.3401,-0.3393,-0.3253,-0.3192,-0.3192,-0.3192,-0.3192,-0.3192,-0.3194,-0.2989,-0.2555,-0.2084,-0.169,-0.1417,-0.0708,-0.0287,-0.0252,0.0147,0.041,0.0411,0.0455,0.0534,0.0803,0.088,0.1033,0.1339,0.1454,0.1493,0.1564,0.151,0.142,0.1569,0.1569,0.1607,0.1787,0.2172,0.2619,0.2935,0.3617,0.4346,0.4837,0.5014,0.516,0.5549,0.56,0.5661,0.5828,0.5898,0.5946,0.6133,0.6159,0.5999,0.5759,0.5485,0.5458,0.5426,0.5406,0.5318,0.5321,0.5748,0.5867,0.6004,0.6389,0.7071,0.7417,0.797,0.8806,0.8874,0.9031,0.8945,0.8778,0.8904,0.8871,-1.0646,-1.0299,-0.9728,-0.9419,-0.9244,-0.8317,-0.7834,-0.7522,-0.6643,-0.6113,-0.5758,-0.5186,-0.4733,-0.4439,-0.4385,-0.4895,-0.5756,-0.5156,-0.4841,-0.4771,-0.4112,-0.3802,-0.3793,-0.3699,-0.3669,-0.3665,-0.3616,-0.3585,-0.3579,-0.3554,-0.354,-0.354,-0.3516,-0.3499,-0.3499,-0.3499,-0.3499,-0.3499,-0.3499,-0.3499,-0.3499,-0.3499,-0.3499,-0.3483,-0.3344,-0.3316,-0.3281,-0.3281,-0.314,-0.2933,-0.2899,-0.2551,-0.1829,-0.1088,-0.0638,-0.0569,0.0073,0.0443,0.0518,0.0944,0.1226,0.1227,0.1244,0.1336,0.1375,0.1415,0.1493,0.1651,0.1691,0.1768,0.1919,0.1818,0.1763,0.184,0.1841,0.1878,0.1991,0.2639,0.3381,0.412,0.4712,0.5269,0.5757,0.5828,0.6041,0.6476,0.6432,0.6424,0.642,0.642,0.642,0.6412,0.6306,0.6245,0.6113,0.5943,0.5792,0.5735,0.564,0.5514,0.5679,0.6099,0.6458,0.6589,0.7104,0.7908,0.8546,0.9071,0.926,0.9344,0.9332,0.9265,0.9185,0.9138,0.92,-0.9375,-0.8671,-0.8496,-0.836,-0.8049,-0.7173,-0.664,-0.6287,-0.545,-0.5055,-0.4879,-0.4705,-0.4524,-0.428,-0.4231,-0.4207,-0.4231,-0.4151,-0.4029,-0.3955,-0.3866,-0.3826,-0.3826,-0.3773,-0.3793,-0.3789,-0.3793,-0.3791,-0.3775,-0.3665,-0.359,-0.3576,-0.3558,-0.3536,-0.3509,-0.3528,-0.3516,-0.3524,-0.3528,-0.352,-0.3503,-0.3522,-0.3489,-0.3447,-0.3396,-0.3354,-0.3352,-0.3382,-0.3002,-0.228,-0.2172,-0.1815,-0.1048,-0.0291,0.0109,0.0183,0.0746,0.1135,0.1177,0.1238,0.1292,0.1331,0.1335,0.1415,0.1579,0.1617,0.1698,0.1903,0.1941,0.2013,0.2172,0.2286,0.2239,0.2002,0.2112,0.2189,0.2501,0.3012,0.4103,0.551,0.5969,0.6269,0.671,0.6657,0.6591,0.6597,0.6526,0.642,0.642,0.642,0.642,0.642,0.6388,0.6355,0.6319,0.6294,0.615,0.6032,0.5898,0.5816,0.6129,0.6521,0.7044,0.7286,0.812,0.8893,0.9173,0.9621,0.9621,0.9673,0.9655,0.9588,0.9507,0.9489,0.9726,-0.8671,-0.8229,-0.757,-0.7214,-0.6858,-0.5983,-0.5453,-0.5235,-0.4882,-0.4659,-0.4433,-0.4433,-0.4372,-0.4309,-0.4259,-0.4212,-0.4132,-0.4095,-0.4036,-0.3963,-0.3948,-0.3944,-0.3934,-0.3883,-0.3826,-0.381,-0.3802,-0.3804,-0.38,-0.3775,-0.372,-0.3714,-0.3732,-0.3721,-0.3713,-0.3721,-0.3719,-0.3719,-0.3717,-0.3721,-0.3681,-0.3679,-0.3412,-0.2876,-0.2801,-0.257,-0.2029,-0.2375,-0.2184,-0.142,-0.1381,-0.1018,-0.0292,0.0445,0.0823,0.0863,0.1073,0.1282,0.1283,0.129,0.1377,0.1455,0.1494,0.1625,0.1845,0.185,0.1984,0.2215,0.2266,0.2348,0.2594,0.3166,0.3364,0.3222,0.321,0.3448,0.3988,0.4763,0.5711,0.6585,0.6808,0.6882,0.6945,0.6849,0.6733,0.6708,0.6529,0.6448,0.6428,0.644,0.642,0.642,0.642,0.6585,0.6735,0.6928,0.7026,0.6818,0.6608,0.652,0.6794,0.7199,0.7656,0.827,0.9112,0.9588,0.9884,0.998,0.998,0.995,0.9899,0.9831,0.9793,1.0053,1.0486,-0.7705,-0.7202,-0.6475,-0.6051,-0.5776,-0.5119,-0.4748,-0.4569,-0.4569,-0.4478,-0.4342,-0.4297,-0.4297,-0.4297,-0.4297,-0.4269,-0.4222,-0.4218,-0.4189,-0.4124,-0.4012,-0.3994,-0.3988,-0.394,-0.3924,-0.3875,-0.3865,-0.3846,-0.3853,-0.3814,-0.3797,-0.3808,-0.3802,-0.38,-0.3802,-0.3802,-0.3684,-0.3372,-0.329,-0.3175,-0.2938,-0.286,-0.2626,-0.2155,-0.2077,-0.1645,-0.0938,-0.1215,-0.1159,-0.0673,-0.0337,0.0075,0.0526,0.0952,0.1228,0.1232,0.1284,0.1296,0.1298,0.1307,0.1354,0.1474,0.1564,0.1742,0.197,0.2057,0.224,0.2473,0.2853,0.3065,0.3317,0.4068,0.4625,0.4911,0.4577,0.4734,0.5368,0.5893,0.6479,0.7048,0.7288,0.7257,0.7192,0.7005,0.6899,0.6836,0.6737,0.6574,0.655,0.6526,0.6568,0.6688,0.6905,0.7068,0.7265,0.7517,0.7842,0.7668,0.7433,0.7448,0.7601,0.8161,0.8676,0.926,1.0019,1.0076,1.0311,1.0287,1.0311,1.0235,1.0238,1.0574,1.0777,1.1256,1.1696,-0.6499,-0.5643,-0.5257,-0.5018,-0.4863,-0.4696,-0.4525,-0.4344,-0.4297,-0.4344,-0.4297,-0.4297,-0.4297,-0.4297,-0.4297,-0.4291,-0.4295,-0.4287,-0.4283,-0.4238,-0.4103,-0.4031,-0.4057,-0.4004,-0.3988,-0.3972,-0.3972,-0.3938,-0.391,-0.3906,-0.3867,-0.3847,-0.3845,-0.3746,-0.3642,-0.3702,-0.3229,-0.2523,-0.2437,-0.2117,-0.1488,-0.141,-0.1332,-0.1254,-0.1214,-0.0824,-0.0079,0.0,0.0039,0.0196,0.0741,0.1092,0.1254,0.1296,0.1293,0.1293,0.1297,0.1302,0.1307,0.137,0.1386,0.1469,0.1654,0.181,0.2104,0.2485,0.2745,0.2974,0.3689,0.4187,0.4356,0.5029,0.5889,0.6599,0.6044,0.5878,0.62,0.6331,0.6727,0.731,0.7514,0.751,0.7461,0.7285,0.7167,0.7114,0.7017,0.6878,0.6784,0.6787,0.6988,0.7104,0.7227,0.7414,0.7569,0.8236,0.8528,0.8554,0.8409,0.852,0.8529,0.9015,0.9499,1.0083,1.043,1.0508,1.0553,1.0512,1.0506,1.0445,1.0764,1.1392,1.1789,1.2011,1.2465,-0.5662,-0.503,-0.491,-0.4717,-0.4428,-0.4395,-0.4391,-0.43,-0.4302,-0.4306,-0.43,-0.4297,-0.4297,-0.4297,-0.4297,-0.4297,-0.4297,-0.4297,-0.4297,-0.4293,-0.4259,-0.4191,-0.4148,-0.4136,-0.4104,-0.401,-0.401,-0.3982,-0.396,-0.3916,-0.3942,-0.3926,-0.3784,-0.3501,-0.3047,-0.2915,-0.2413,-0.1684,-0.158,-0.1531,-0.1295,-0.1217,-0.0979,-0.0392,-0.0353,0.0079,0.0844,0.0967,0.0958,0.0982,0.1139,0.1297,0.13,0.1301,0.1303,0.1305,0.132,0.1331,0.1336,0.1482,0.1666,0.1834,0.2102,0.2329,0.2584,0.3313,0.3729,0.4031,0.4708,0.5267,0.5444,0.6135,0.7009,0.7693,0.7308,0.7114,0.7245,0.725,0.7288,0.7446,0.7526,0.7535,0.7447,0.7358,0.7207,0.7212,0.7106,0.7063,0.7085,0.7086,0.7281,0.7238,0.7362,0.7609,0.7989,0.8739,0.921,0.9326,0.9424,0.9653,0.9635,0.9755,1.0154,1.0566,1.0514,1.0573,1.0579,1.0559,1.0586,1.0649,1.0958,1.1382,1.1787,1.2112,1.2739,-0.5285,-0.4936,-0.4806,-0.4616,-0.4467,-0.443,-0.4414,-0.4406,-0.4371,-0.4357,-0.4349,-0.4312,-0.4297,-0.4297,-0.4297,-0.4297,-0.4297,-0.4297,-0.4297,-0.4297,-0.4293,-0.4265,-0.4232,-0.4268,-0.4197,-0.4155,-0.4101,-0.4126,-0.397,-0.3663,-0.3435,-0.3276,-0.3025,-0.2562,-0.205,-0.1991,-0.1564,-0.0822,-0.069,-0.0606,-0.0242,-0.0202,0.0,0.0485,0.0525,0.0856,0.1237,0.1322,0.1312,0.1296,0.1326,0.1322,0.1294,0.1295,0.1295,0.1296,0.1394,0.1485,0.1491,0.1726,0.1917,0.2136,0.2574,0.3039,0.3423,0.4218,0.4868,0.4947,0.5764,0.6207,0.6428,0.7143,0.7851,0.8264,0.8196,0.7996,0.7882,0.778,0.7679,0.7626,0.7633,0.76,0.7543,0.7391,0.735,0.7322,0.7281,0.7425,0.759,0.7573,0.7744,0.8032,0.8383,0.8867,0.9253,0.9907,1.012,1.0202,1.016,1.0471,1.0386,1.036,1.0428,1.0586,1.0586,1.0618,1.0649,1.0713,1.0776,1.0902,1.1083,1.1632,1.2251,1.2673,1.3263,-0.5183,-0.5116,-0.479,-0.4702,-0.4667,-0.4654,-0.4598,-0.4549,-0.4417,-0.438,-0.4364,-0.4336,-0.43,-0.4297,-0.4297,-0.4297,-0.4297,-0.4297,-0.4297,-0.4253,-0.4119,-0.4022,-0.3974,-0.4237,-0.4146,-0.4003,-0.4113,-0.3894,-0.3496,-0.2872,-0.2585,-0.2392,-0.1742,-0.1271,-0.1149,-0.1099,-0.059,0.0084,0.0209,0.0459,0.0876,0.1002,0.1043,0.1086,0.1176,0.122,0.1309,0.1309,0.1309,0.1314,0.1325,0.1321,0.13,0.1304,0.1344,0.1427,0.1596,0.173,0.1777,0.198,0.2267,0.2533,0.3362,0.4026,0.4283,0.5166,0.5836,0.5852,0.6694,0.7183,0.736,0.8076,0.8428,0.8555,0.8433,0.8247,0.8113,0.8036,0.7951,0.7857,0.7829,0.7739,0.762,0.7551,0.7581,0.7867,0.787,0.8076,0.837,0.8562,0.8964,0.9512,0.9967,1.0445,1.0789,1.1129,1.1139,1.1107,1.0902,1.0936,1.0763,1.0677,1.0583,1.0586,1.0586,1.0713,1.087,1.0933,1.1052,1.1452,1.181,1.2612,1.3381,1.3653,1.4093,-0.5049,-0.4784,-0.4716,-0.4667,-0.4606,-0.4627,-0.4623,-0.4616,-0.4477,-0.4396,-0.437,-0.434,-0.4302,-0.4297,-0.4297,-0.4297,-0.4297,-0.4253,-0.4297,-0.4208,-0.3448,-0.3224,-0.3358,-0.3807,-0.3807,-0.3358,-0.3179,-0.2812,-0.2132,-0.1907,-0.1686,-0.1588,-0.1273,-0.0971,-0.0308,-0.0217,0.0216,0.0946,0.1063,0.1057,0.1226,0.1311,0.1311,0.1313,0.1371,0.138,0.1381,0.1381,0.1349,0.1354,0.1371,0.1346,0.1352,0.1521,0.1606,0.1696,0.1885,0.2028,0.2078,0.2329,0.2761,0.3421,0.4011,0.452,0.5317,0.6207,0.6738,0.6962,0.7672,0.814,0.8247,0.8444,0.8584,0.862,0.8575,0.8522,0.8453,0.8195,0.8036,0.7979,0.7955,0.7894,0.7807,0.7818,0.7995,0.8333,0.8623,0.8822,0.917,0.9547,1.0002,1.0538,1.0809,1.1098,1.1249,1.1541,1.16,1.1603,1.1456,1.1329,1.1189,1.0902,1.0814,1.0693,1.0586,1.0776,1.1052,1.1296,1.1445,1.1996,1.2573,1.3183,1.3773,1.4261,1.4638,-0.4908,-0.4767,-0.472,-0.4741,-0.4698,-0.4696,-0.4696,-0.4667,-0.4553,-0.45,-0.4469,-0.4361,-0.43,-0.4297,-0.4297,-0.4297,-0.4164,-0.3805,-0.3626,-0.3403,-0.2686,-0.2238,-0.2238,-0.2596,-0.264,-0.2193,-0.2192,-0.1835,-0.1431,-0.094,-0.076,-0.0672,-0.0358,0.0223,0.0582,0.062,0.0882,0.1233,0.1354,0.1345,0.1345,0.1345,0.1345,0.1346,0.1403,0.1411,0.1411,0.1411,0.1463,0.1557,0.1538,0.1562,0.1562,0.1778,0.1908,0.1957,0.2144,0.2294,0.235,0.2939,0.3582,0.4121,0.4964,0.5761,0.6428,0.7231,0.776,0.7982,0.8333,0.8714,0.8796,0.8714,0.8694,0.8666,0.8657,0.862,0.858,0.839,0.8227,0.8178,0.8146,0.8329,0.8395,0.8335,0.8929,0.9498,0.9537,0.9732,1.0291,1.0619,1.082,1.1206,1.1382,1.1563,1.161,1.1758,1.1928,1.1884,1.1777,1.1718,1.1605,1.1263,1.0962,1.0946,1.0967,1.1059,1.1351,1.1593,1.2228,1.2926,1.3502,1.3773,1.413,1.474,1.496,-0.4782,-0.4782,-0.4782,-0.4782,-0.4782,-0.4778,-0.4764,-0.4779,-0.4645,-0.4549,-0.4567,-0.4369,-0.4297,-0.4253,-0.4074,-0.403,-0.3626,-0.3133,-0.2685,-0.2506,-0.1657,-0.1253,-0.1208,-0.1074,-0.094,-0.0985,-0.1119,-0.1074,-0.0672,-0.0224,0.0179,0.0359,0.0897,0.1121,0.13,0.139,0.1342,0.1385,0.1383,0.1382,0.1383,0.1383,0.1383,0.1383,0.1384,0.1475,0.1475,0.1521,0.1614,0.184,0.1885,0.1885,0.1974,0.2064,0.2244,0.224,0.2417,0.2683,0.3042,0.3728,0.4371,0.4676,0.6138,0.7131,0.7544,0.8068,0.8485,0.868,0.8873,0.8917,0.906,0.8958,0.8857,0.88,0.8682,0.8653,0.8616,0.8612,0.8459,0.8369,0.8363,0.8501,0.8837,0.8996,0.9867,1.0538,1.057,1.074,1.1263,1.163,1.1765,1.1789,1.1955,1.1944,1.1948,1.1985,1.2128,1.2138,1.2051,1.2069,1.1982,1.1665,1.1391,1.1421,1.1458,1.1688,1.2169,1.2846,1.3449,1.4061,1.4517,1.4888,1.5137,1.5317,1.5407,-0.4782,-0.4782,-0.4782,-0.4782,-0.4782,-0.4782,-0.4798,-0.472,-0.4626,-0.4528,-0.4413,-0.4349,-0.4306,-0.4078,-0.3403,-0.2731,-0.2238,-0.179,-0.1656,-0.1478,-0.0717,-0.0224,-0.0134,0.0314,0.0717,0.0672,0.0224,0.009,0.0628,0.1121,0.0987,0.1166,0.1301,0.1391,0.1391,0.1391,0.1391,0.1391,0.1391,0.1391,0.1391,0.1436,0.1436,0.1436,0.148,0.157,0.1705,0.175,0.1885,0.211,0.2289,0.2382,0.2479,0.2569,0.2567,0.2649,0.2835,0.3243,0.3961,0.4416,0.5443,0.6524,0.7365,0.7994,0.8517,0.8848,0.8982,0.9027,0.906,0.9084,0.9088,0.908,0.8982,0.8877,0.8808,0.8727,0.8669,0.8629,0.8656,0.8709,0.8605,0.8754,0.9338,0.994,1.0693,1.1362,1.1617,1.1809,1.2246,1.2454,1.2563,1.2533,1.2488,1.2388,1.2294,1.2264,1.2331,1.2338,1.2328,1.2418,1.226,1.1986,1.1885,1.2524,1.2654,1.2775,1.3348,1.4018,1.4663,1.5216,1.5657,1.6018,1.5999,1.5988,1.6175,-0.4782,-0.4782,-0.4782,-0.4782,-0.4782,-0.4782,-0.4812,-0.4714,-0.4681,-0.4618,-0.4545,-0.439,-0.405,-0.3631,-0.3192,-0.2329,-0.1477,-0.0851,-0.0717,-0.0493,0.0269,0.0718,0.0673,0.1211,0.1346,0.1256,0.0942,0.0897,0.1346,0.1391,0.1391,0.1391,0.1391,0.1391,0.1391,0.1391,0.1391,0.1391,0.1391,0.1392,0.1437,0.1527,0.1616,0.1616,0.1752,0.1885,0.1978,0.2,0.2144,0.2378,0.2534,0.2959,0.3375,0.3551,0.3572,0.3522,0.3668,0.4186,0.5149,0.5731,0.6679,0.7389,0.8023,0.857,0.8956,0.9088,0.9149,0.9226,0.9344,0.9372,0.9384,0.9287,0.919,0.9108,0.9019,0.8885,0.8755,0.8751,0.8973,0.9222,0.9432,0.974,1.0239,1.0916,1.1595,1.2123,1.2559,1.2853,1.3127,1.316,1.316,1.3006,1.2852,1.2766,1.2672,1.2645,1.2585,1.2565,1.2647,1.274,1.298,1.2879,1.3637,1.4559,1.4458,1.391,1.4369,1.4997,1.5698,1.6271,1.637,1.6487,1.6541,1.6624,1.6763,-0.4782,-0.4782,-0.4782,-0.4782,-0.4782,-0.4782,-0.4774,-0.4748,-0.4685,-0.4687,-0.4611,-0.4233,-0.3646,-0.3032,-0.24,-0.1701,-0.0806,0.0045,0.0224,0.0403,0.0942,0.1346,0.1391,0.1391,0.1391,0.1391,0.1357,0.1395,0.1391,0.1391,0.1391,0.1391,0.1391,0.1391,0.1391,0.1391,0.1391,0.1392,0.1399,0.1446,0.1542,0.1719,0.1902,0.1908,0.2136,0.2232,0.2286,0.231,0.2651,0.2941,0.3246,0.3703,0.4701,0.4939,0.4915,0.4981,0.497,0.5458,0.6279,0.7023,0.7624,0.815,0.8757,0.9111,0.9179,0.9275,0.9287,0.9409,0.951,0.9592,0.9555,0.949,0.9445,0.9359,0.9253,0.9177,0.9304,0.9446,0.9854,1.0089,1.0343,1.0696,1.1122,1.1562,1.2186,1.2602,1.301,1.3253,1.3487,1.3507,1.3474,1.3333,1.3206,1.314,1.308,1.3039,1.2953,1.2859,1.3002,1.3169,1.3632,1.4022,1.4989,1.5769,1.5365,1.4965,1.5477,1.5974,1.6562,1.6933,1.6964,1.7028,1.7184,1.7181,1.7243,-0.4782,-0.4782,-0.4782,-0.4782,-0.4782,-0.4782,-0.4742,-0.4683,-0.4624,-0.4661,-0.4328,-0.3603,-0.3054,-0.2479,-0.0995,0.009,0.0807,0.0986,0.1076,0.1121,0.1301,0.1391,0.1391,0.1391,0.1392,0.1397,0.1463,0.1457,0.1403,0.1397,0.1395,0.1397,0.1401,0.1393,0.1403,0.1405,0.1391,0.1397,0.1463,0.1626,0.1831,0.2045,0.2189,0.2256,0.2312,0.2495,0.2772,0.2883,0.3272,0.422,0.4419,0.4993,0.5792,0.6028,0.6541,0.6745,0.6701,0.6473,0.7342,0.7882,0.8357,0.8868,0.934,0.9486,0.9462,0.9502,0.9518,0.953,0.9575,0.9575,0.9624,0.9604,0.951,0.9578,0.9636,0.9926,1.0204,1.0467,1.0827,1.1488,1.1886,1.1762,1.1859,1.2299,1.2735,1.3082,1.3432,1.3631,1.3788,1.3788,1.3774,1.3627,1.3534,1.3467,1.3467,1.3427,1.3347,1.318,1.355,1.3794,1.4405,1.507,1.5811,1.631,1.6045,1.629,1.6911,1.7373,1.7562,1.7538,1.7496,1.7656,1.7871,1.7832,1.7642,-0.4782,-0.4782,-0.4782,-0.4782,-0.4782,-0.4782,-0.4412,-0.3937,-0.3833,-0.347,-0.2935,-0.2427,-0.1858,-0.1139,0.0225,0.0987,0.1346,0.1391,0.1391,0.1392,0.1392,0.1392,0.1395,0.1451,0.1455,0.1407,0.1476,0.1488,0.1474,0.1433,0.144,0.1438,0.1486,0.1443,0.148,0.1485,0.158,0.1679,0.1877,0.2033,0.2137,0.232,0.2504,0.2526,0.2672,0.3101,0.3582,0.3852,0.4394,0.5324,0.5644,0.6174,0.6955,0.7298,0.7641,0.8572,0.8419,0.8327,0.8607,0.8776,0.9081,0.9315,0.9579,0.9604,0.9624,0.9624,0.9624,0.9624,0.9624,0.9624,0.9624,0.9624,0.9972,1.0152,1.0241,1.0948,1.1395,1.1584,1.1987,1.2699,1.3314,1.3159,1.3043,1.3373,1.3647,1.3763,1.3893,1.3906,1.3995,1.3975,1.3961,1.3915,1.3841,1.3788,1.3808,1.3801,1.3729,1.3764,1.4483,1.4842,1.5405,1.61,1.6867,1.762,1.7907,1.819,1.8511,1.8157,1.7813,1.7886,1.7998,1.8037,1.8066,1.7998,1.7837,-0.4782,-0.4782,-0.4782,-0.4684,-0.4431,-0.4381,-0.3776,-0.287,-0.282,-0.2361,-0.1685,-0.1296,-0.0602,0.0271,0.0987,0.1346,0.1391,0.1397,0.1401,0.1401,0.1402,0.1408,0.1418,0.1478,0.1472,0.1412,0.1513,0.1523,0.1522,0.1528,0.1493,0.148,0.1469,0.1568,0.1619,0.1664,0.1758,0.2012,0.2241,0.2397,0.2466,0.2649,0.2796,0.2947,0.3287,0.3862,0.4544,0.5026,0.5657,0.651,0.6752,0.7282,0.8185,0.8424,0.8629,0.9276,0.9272,0.9286,0.9336,0.9433,0.9612,0.9624,0.9624,0.9624,0.9624,0.9628,0.9624,0.9624,0.9624,0.9624,0.9624,0.9624,1.01,1.0623,1.1049,1.192,1.2649,1.2831,1.3279,1.4052,1.4507,1.4588,1.4546,1.4622,1.4705,1.4585,1.4469,1.4289,1.4215,1.4188,1.4108,1.4068,1.4035,1.3988,1.4043,1.405,1.4026,1.4372,1.5099,1.5952,1.6625,1.7282,1.8012,1.8732,1.9288,1.9185,1.8961,1.8443,1.8012,1.827,1.8418,1.8203,1.8125,1.8096,1.8037,-0.4782,-0.4782,-0.4782,-0.423,-0.3374,-0.3325,-0.272,-0.1713,-0.1714,-0.1648,-0.1226,-0.0662,0.0368,0.1084,0.126,0.1393,0.1395,0.1466,0.1474,0.1476,0.1479,0.149,0.1499,0.1499,0.1498,0.1515,0.155,0.1564,0.1569,0.1579,0.1518,0.1488,0.1591,0.1676,0.1821,0.1929,0.2084,0.2337,0.2565,0.2732,0.2813,0.3017,0.3206,0.3444,0.4109,0.4764,0.4864,0.5797,0.6787,0.7783,0.7855,0.8247,0.9061,0.9267,0.9474,0.9614,0.9717,0.9697,0.9685,0.9648,0.9579,0.9632,0.964,0.9652,0.9628,0.9636,0.9632,0.9632,0.9624,0.9644,0.964,0.9776,1.0457,1.1288,1.2087,1.298,1.3632,1.4011,1.4522,1.5326,1.5557,1.5391,1.5338,1.5265,1.5084,1.4957,1.4827,1.4646,1.4462,1.4402,1.4262,1.4188,1.4168,1.4177,1.4213,1.4313,1.4565,1.5081,1.5809,1.6911,1.794,1.858,1.9088,1.9391,1.9788,1.9602,1.9424,1.9046,1.8796,1.887,1.8838,1.8603,1.8477,1.8457,1.8301,-0.4431,-0.3827,-0.3828,-0.3577,-0.3225,-0.3225,-0.2216,-0.0806,-0.0605,-0.02,0.0294,0.0763,0.1079,0.1391,0.1405,0.1412,0.1438,0.1479,0.1493,0.1504,0.1512,0.1516,0.1523,0.1533,0.1536,0.1541,0.1572,0.1586,0.1574,0.1603,0.1706,0.1736,0.1823,0.188,0.1978,0.2265,0.2526,0.2679,0.2923,0.3043,0.3202,0.3812,0.4153,0.4277,0.5229,0.6126,0.6719,0.7123,0.7975,0.8676,0.8874,0.9283,0.9658,0.9774,0.9835,0.9904,0.992,0.9925,0.99,0.9847,0.9786,0.9786,0.9782,0.9754,0.9693,0.9721,0.9701,0.9673,0.9648,0.9697,0.9778,1.0443,1.132,1.2279,1.316,1.4013,1.4643,1.5042,1.5182,1.5762,1.5804,1.5711,1.5691,1.5658,1.5484,1.5271,1.5142,1.4968,1.4827,1.4656,1.4529,1.4469,1.4462,1.4539,1.4626,1.4854,1.5191,1.5908,1.6617,1.7802,1.8954,1.9441,1.9887,2.014,2.0216,2.0127,1.9922,1.9668,1.9492,1.9394,1.9219,1.9004,1.8906,1.8818,1.8652,-0.3726,-0.2771,-0.2719,-0.2518,-0.2266,-0.2266,-0.1209,0.0252,0.0504,0.0849,0.157,0.154,0.1478,0.1465,0.1442,0.1436,0.1513,0.1517,0.1524,0.1533,0.154,0.1545,0.1555,0.1561,0.1562,0.1563,0.1585,0.1603,0.1739,0.1708,0.1861,0.2065,0.2121,0.2168,0.2368,0.2676,0.3078,0.3379,0.353,0.3932,0.423,0.4828,0.5277,0.5432,0.6326,0.7074,0.7723,0.8173,0.8775,0.9298,0.9585,0.9716,0.9855,0.9996,1.0034,1.0167,1.0216,1.022,1.0175,1.0114,0.9965,0.9969,1.002,0.9904,0.9855,0.9896,0.9912,0.9847,0.9811,0.9835,1.0067,1.0888,1.1914,1.2831,1.397,1.4849,1.5517,1.6012,1.5904,1.6039,1.5992,1.5965,1.5784,1.5758,1.5738,1.5518,1.5317,1.5223,1.5135,1.5015,1.4901,1.4867,1.4881,1.4972,1.5057,1.5812,1.6612,1.7307,1.8029,1.8883,1.981,2.0275,2.0536,2.0634,2.0664,2.0615,2.0439,2.0107,1.9922,1.9775,1.96,1.9414,1.915,1.9053,1.9033,-0.262,-0.1664,-0.1664,-0.1058,-0.0252,-0.0101,0.0454,0.1313,0.1414,0.1451,0.1574,0.1544,0.1532,0.153,0.1473,0.1523,0.1539,0.1555,0.1566,0.1568,0.1571,0.1587,0.1591,0.1591,0.1587,0.1609,0.1616,0.1716,0.1915,0.1867,0.202,0.2282,0.2391,0.2586,0.2779,0.3079,0.3732,0.4583,0.4734,0.5281,0.5796,0.6203,0.6406,0.6687,0.7497,0.8263,0.8521,0.9022,0.9488,0.965,0.9835,0.9912,0.9973,1.0095,1.0228,1.0273,1.0269,1.0253,1.0228,1.022,1.0228,1.0216,1.0156,1.0167,1.018,1.02,1.018,1.0034,1.0063,1.0211,1.0612,1.1286,1.2493,1.3667,1.4832,1.5632,1.636,1.6547,1.638,1.6286,1.6246,1.6228,1.5985,1.5824,1.5892,1.5758,1.5545,1.5424,1.5364,1.5357,1.5302,1.5659,1.5718,1.6021,1.633,1.7207,1.7991,1.8716,1.9262,1.9859,2.0447,2.0924,2.1089,2.1121,2.0966,2.082,2.0684,2.0566,2.0361,2.0127,2.0019,1.9824,1.9521,1.9365,1.9424,-0.1512,-0.0554,-0.0554,0.0101,0.0858,0.0302,0.0605,0.1465,0.1566,0.1611,0.1597,0.1569,0.157,0.1571,0.1549,0.1549,0.1581,0.1566,0.1577,0.16,0.16,0.1606,0.1611,0.1608,0.1606,0.1563,0.1617,0.1667,0.1716,0.1772,0.1938,0.2154,0.2639,0.3196,0.3704,0.4079,0.458,0.5627,0.5884,0.6107,0.6633,0.7262,0.7703,0.7878,0.8812,0.9273,0.9269,0.9827,0.9882,0.9945,1.009,1.0103,1.0193,1.0322,1.0387,1.0465,1.0505,1.0513,1.0513,1.0509,1.0452,1.0391,1.0339,1.029,1.0249,1.0294,1.0266,1.0261,1.037,1.0666,1.151,1.2578,1.3775,1.5013,1.5998,1.6529,1.6947,1.676,1.66,1.6573,1.654,1.6513,1.638,1.6219,1.6192,1.6092,1.5899,1.5725,1.5631,1.5752,1.5798,1.649,1.6814,1.7139,1.7644,1.8208,1.8927,1.9609,1.9943,2.0285,2.0874,2.152,2.1627,2.1609,2.1318,2.0996,2.0977,2.0938,2.0693,2.0498,2.0469,2.0352,2.0088,2.0038,2.0077,-0.0403,0.0504,0.0555,0.0959,0.1415,0.0858,0.1009,0.1516,0.1566,0.1566,0.1611,0.1595,0.1596,0.1599,0.1583,0.1521,0.1564,0.1599,0.1592,0.1566,0.1566,0.1566,0.1616,0.1667,0.1665,0.1667,0.1719,0.1772,0.1838,0.1785,0.2009,0.2355,0.2806,0.3825,0.4494,0.5039,0.5244,0.6269,0.6791,0.7527,0.8049,0.8598,0.8998,0.9268,0.9715,1.014,1.0152,1.0216,1.022,1.0237,1.029,1.0302,1.0416,1.0509,1.057,1.0664,1.0688,1.0684,1.0668,1.0664,1.059,1.0538,1.0526,1.0465,1.0433,1.0473,1.0456,1.0506,1.0701,1.1394,1.2341,1.3535,1.4848,1.6054,1.6649,1.7126,1.7235,1.7054,1.6947,1.6914,1.6854,1.6827,1.676,1.666,1.6547,1.6413,1.6266,1.6086,1.5858,1.5926,1.6204,1.6831,1.7358,1.7587,1.8118,1.8904,1.9667,2.0492,2.0855,2.1113,2.1584,2.224,2.2165,2.2051,2.1728,2.1475,2.1406,2.1279,2.1182,2.1134,2.1123,2.0947,2.0703,2.0576,2.0517,0.0656,0.1516,0.1566,0.1566,0.1566,0.1516,0.1566,0.1566,0.1566,0.1566,0.1566,0.1564,0.1564,0.1565,0.1562,0.1562,0.1564,0.1563,0.1564,0.1566,0.1566,0.1566,0.1667,0.1768,0.1718,0.1718,0.1771,0.1833,0.2069,0.2035,0.2212,0.2765,0.3219,0.4434,0.5375,0.6054,0.635,0.7412,0.8173,0.8883,0.9466,0.9855,0.9947,1.0096,1.0217,1.0322,1.0322,1.031,1.0298,1.0282,1.0359,1.042,1.0501,1.0607,1.0664,1.0692,1.0692,1.0692,1.0692,1.0692,1.0688,1.0698,1.0824,1.0781,1.0765,1.0837,1.1025,1.135,1.1747,1.2278,1.2925,1.4314,1.5701,1.6433,1.7028,1.7364,1.7528,1.7435,1.7341,1.732,1.7239,1.7166,1.6974,1.6874,1.6887,1.6754,1.665,1.6511,1.6261,1.5979,1.6341,1.7058,1.7525,1.7831,1.861,1.9892,2.0533,2.1484,2.1954,2.2274,2.2679,2.2783,2.2637,2.2422,2.2129,2.1904,2.1709,2.1699,2.1748,2.1719,2.1582,2.1289,2.0928,2.0771,2.0771,0.1313,0.1566,0.1566,0.1566,0.1566,0.1566,0.1566,0.1566,0.1566,0.1566,0.1566,0.1566,0.1566,0.1566,0.1566,0.1566,0.1566,0.1566,0.1566,0.1566,0.1566,0.1566,0.1617,0.1718,0.1667,0.1668,0.1722,0.184,0.1876,0.2011,0.3011,0.379,0.4206,0.5368,0.6414,0.7411,0.8163,0.8867,0.9467,0.984,1.0225,1.0355,1.0404,1.0461,1.0485,1.0489,1.0489,1.0497,1.0501,1.0542,1.0578,1.0615,1.0627,1.0668,1.0692,1.0692,1.0692,1.0692,1.0692,1.0692,1.0692,1.0907,1.1337,1.1282,1.1227,1.1391,1.1828,1.2254,1.2955,1.3599,1.4191,1.5375,1.634,1.6935,1.7364,1.7477,1.7589,1.7562,1.7475,1.7514,1.744,1.7407,1.7208,1.7235,1.7228,1.7146,1.7042,1.6968,1.6886,1.6641,1.6814,1.7585,1.8551,1.9127,2.0315,2.158,2.19,2.2369,2.2777,2.3036,2.3003,2.3057,2.2945,2.276,2.2519,2.2197,2.1885,2.1963,2.2158,2.1963,2.1807,2.1504,2.125,2.1133,2.1125,0.1566,0.1566,0.1566,0.1566,0.1566,0.1566,0.1566,0.1566,0.1566,0.1566,0.1566,0.1566,0.1566,0.1566,0.1566,0.1566,0.1566,0.1566,0.1566,0.1566,0.1566,0.1566,0.1617,0.1667,0.1667,0.1669,0.1836,0.2014,0.2213,0.3029,0.4021,0.5225,0.5624,0.6463,0.7459,0.8378,0.9254,0.9915,1.0346,1.0444,1.0485,1.0476,1.0611,1.066,1.0688,1.0692,1.0692,1.0692,1.0692,1.0692,1.0692,1.0692,1.0688,1.0692,1.0692,1.0692,1.0692,1.0692,1.0692,1.0692,1.0692,1.1017,1.1769,1.1878,1.2146,1.2363,1.2792,1.3275,1.4186,1.5049,1.5695,1.6346,1.6935,1.7523,1.7529,1.7589,1.7589,1.7589,1.7582,1.7575,1.7569,1.7562,1.7555,1.7589,1.7608,1.7454,1.7619,1.7897,1.7923,1.7845,1.8008,1.8542,1.9771,2.0814,2.1962,2.2766,2.2941,2.3107,2.3357,2.35,2.3417,2.3359,2.332,2.3101,2.2867,2.2617,2.2373,2.2412,2.251,2.2334,2.2246,2.2139,2.1904,2.1631,2.1638,0.1566,0.1566,0.1566,0.1566,0.1566,0.1566,0.1566,0.1566,0.1566,0.1566,0.1566,0.1566,0.1566,0.1566,0.1566,0.1566,0.1566,0.1566,0.1566,0.1566,0.1566,0.1566,0.1667,0.182,0.1824,0.1935,0.2365,0.2972,0.3264,0.416,0.5503,0.6798,0.708,0.7805,0.8861,0.914,0.9823,1.0397,1.0595,1.0627,1.0647,1.068,1.0692,1.0688,1.0692,1.0692,1.0692,1.0692,1.0692,1.0692,1.0692,1.0692,1.0692,1.0692,1.0692,1.0692,1.0692,1.0692,1.0692,1.0692,1.0692,1.1072,1.1773,1.2472,1.2955,1.3652,1.4137,1.4454,1.5316,1.5908,1.6505,1.6882,1.7364,1.7582,1.7582,1.7589,1.7589,1.7589,1.7589,1.7589,1.7589,1.7589,1.7635,1.7635,1.7747,1.7713,1.7896,1.8383,1.8898,1.8937,1.9535,1.986,2.0772,2.1913,2.2676,2.335,2.3714,2.3938,2.4013,2.397,2.3861,2.3769,2.3682,2.3477,2.3262,2.311,2.2964,2.2896,2.2818,2.2838,2.2779,2.2789,2.2607,2.2278,2.2226,0.1566,0.1566,0.1566,0.1566,0.1566,0.1566,0.1566,0.1566,0.1566,0.1566,0.1566,0.1566,0.1566,0.1566,0.1566,0.1566,0.1566,0.1566,0.1566,0.1566,0.1566,0.1617,0.1719,0.2026,0.2087,0.2415,0.3169,0.443,0.5355,0.6182,0.6972,0.8195,0.8475,0.9085,1.0029,1.0084,1.0359,1.0692,1.0692,1.0692,1.0692,1.0692,1.0692,1.0692,1.0692,1.0692,1.0692,1.0692,1.0692,1.0692,1.0692,1.0692,1.0692,1.0692,1.0692,1.0692,1.0692,1.0692,1.0743,1.0798,1.0907,1.15,1.2309,1.3226,1.4083,1.4948,1.5535,1.5855,1.6234,1.6776,1.7153,1.7424,1.7589,1.7589,1.7589,1.7589,1.7589,1.7589,1.7589,1.7589,1.7589,1.7635,1.7635,1.774,1.7852,1.801,1.8153,1.8655,1.9627,2.0109,2.1403,2.179,2.1904,2.2764,2.3523,2.3993,2.4379,2.4415,2.446,2.4361,2.4297,2.415,2.4004,2.3809,2.3623,2.3545,2.3364,2.312,2.3101,2.3257,2.3266,2.3247,2.3285,2.3057,2.3014,0.1566,0.1566,0.1566,0.1566,0.1566,0.1566,0.1566,0.1566,0.1566,0.1566,0.1566,0.1566,0.1566,0.1566,0.1566,0.1617,0.1617,0.1566,0.1566,0.1566,0.1619,0.1718,0.1923,0.2495,0.2974,0.3418,0.4695,0.602,0.7351,0.7749,0.8361,0.942,0.9695,0.997,1.0692,1.0692,1.0692,1.0692,1.0692,1.0692,1.0692,1.0692,1.0692,1.0692,1.0692,1.0692,1.0692,1.0692,1.0692,1.0692,1.0692,1.0692,1.0692,1.0692,1.0692,1.0692,1.0692,1.0692,1.0852,1.1122,1.1391,1.2146,1.3545,1.4728,1.5102,1.5914,1.6558,1.6882,1.6935,1.7371,1.7371,1.7589,1.7589,1.7589,1.7589,1.7589,1.7589,1.7589,1.7589,1.7589,1.7641,1.7687,1.774,1.7852,1.8016,1.8272,1.8422,1.9391,2.0269,2.0987,2.2447,2.3483,2.3485,2.384,2.4612,2.489,2.5023,2.5011,2.4902,2.4863,2.4785,2.4531,2.427,2.416,2.4053,2.3994,2.3773,2.3559,2.3627,2.3877,2.3773,2.3676,2.3698,2.3883,2.4235,0.1562,0.1566,0.1566,0.1566,0.1566,0.1566,0.1566,0.1566,0.1566,0.1566,0.1566,0.1566,0.1566,0.1566,0.1617,0.1617,0.1617,0.1718,0.1667,0.1626,0.1677,0.2096,0.2723,0.3354,0.4214,0.5223,0.6399,0.7702,0.8999,0.914,0.9581,1.0523,1.0692,1.0692,1.0692,1.0692,1.0692,1.0692,1.0692,1.0692,1.0692,1.0692,1.0692,1.0692,1.0692,1.0692,1.0692,1.0692,1.0692,1.0716,1.0733,1.0761,1.0765,1.0769,1.0716,1.0767,1.1067,1.1067,1.1286,1.2091,1.2413,1.3166,1.4948,1.5861,1.6127,1.6664,1.7312,1.7529,1.7589,1.7589,1.7589,1.7589,1.7589,1.7589,1.7589,1.7589,1.7589,1.7589,1.7589,1.7589,1.7641,1.774,1.7905,1.8016,1.8227,1.8482,1.9146,2.0269,2.1183,2.1785,2.2724,2.3938,2.4551,2.5063,2.5596,2.5528,2.5411,2.543,2.5294,2.5332,2.5273,2.5068,2.4834,2.457,2.4473,2.4414,2.4326,2.415,2.4287,2.4365,2.4199,2.4033,2.4236,2.4559,2.5591,0.1595,0.1566,0.1566,0.1566,0.1566,0.1566,0.1566,0.1566,0.1566,0.1566,0.1566,0.1566,0.1617,0.1617,0.1819,0.1821,0.1675,0.1775,0.1791,0.1702,0.2115,0.2756,0.3665,0.4781,0.6061,0.7229,0.8266,0.9088,0.986,1.0139,1.0417,1.0692,1.0692,1.0692,1.0692,1.0692,1.0692,1.0692,1.0692,1.0692,1.07,1.0696,1.0692,1.0692,1.0692,1.0692,1.0692,1.0692,1.0692,1.0733,1.0886,1.0895,1.1027,1.1071,1.1137,1.1406,1.1698,1.2101,1.2543,1.3281,1.371,1.3917,1.5375,1.608,1.6452,1.6935,1.7424,1.7582,1.7589,1.7589,1.7589,1.7589,1.7589,1.7589,1.7589,1.7589,1.7589,1.7589,1.7589,1.7589,1.7641,1.7799,1.8016,1.8227,1.8541,1.8848,1.9212,2.0336,2.1582,2.2341,2.3094,2.4205,2.5323,2.5528,2.5664,2.5645,2.5586,2.5654,2.5664,2.5596,2.5547,2.5625,2.54,2.5059,2.4893,2.4824,2.4727,2.4697,2.46,2.4609,2.4453,2.4418,2.4617,2.5228,2.6243]},{"header":{"parameterUnit":"m.s-1","parameterCategory":1,"la1":31.0,"la2":29.5877,"lo1":-88.7671,"lo2":-86.6584,"dy":0.0162,"dx":0.0185,"nx":115,"ny":88,"refTime":"2026-03-17T00:00:00:Z","depth":0,"parameterNumber":3,"parameterNumberName":"V-component_of_WINDS"},"data":[0.0,0.0,0.0,0.0,0.0,0.0,0.0,0.0,0.0,0.0,0.0,0.0,0.0,0.0,0.0,0.0,0.0,0.0,0.0,0.0,0.0,0.0,0.0,0.0,0.0,0.0,0.0,0.0,0.0,0.0,0.0,0.0,0.0,0.0,0.0,0.0,0.0,0.0,0.0,0.0,0.0,0.0,0.0,0.0,0.0,0.0,0.0,0.0,0.0,0.0,0.0,0.0,0.0,0.0,0.0,0.0,0.0,0.0,0.0,0.0,0.0,0.0,0.0,0.0,0.0,0.0,0.0,0.0,0.0,0.0,0.0,0.0,0.0,0.0,0.0,0.0,0.0,0.0,0.0,0.0,0.0,0.0,0.0,0.0,0.0,0.0,0.0,0.0,0.0,0.0,0.0,0.0,0.0,0.0,0.0,0.0,0.0,0.0,0.0,0.0,0.0,0.0,0.0,0.0,0.0,0.0,0.0,0.0,0.0,0.0,0.0,0.0,0.0,0.0,0.0,0.0,0.0,0.0,0.0,0.0,0.0,0.0,0.0,0.0,0.0,0.0,0.0,0.0,0.0,0.0,0.0,0.0,0.0,0.0,0.0,0.0,0.0,0.0,0.0,0.0,0.0,0.0,0.0,0.0,0.0,0.0,0.0,0.0,0.0,0.0,0.0,0.0,0.0,0.0,0.0,0.0,0.0,0.0,0.0,0.0,0.0,0.0,0.0,0.0,0.0,0.0,0.0,0.0,0.0,0.0,0.0,0.0,0.0,0.0,0.0,0.0,0.0,0.0,0.0,0.0,0.0,0.0,0.0,0.0,0.0,0.0,0.0,0.0,0.0,0.0,0.0,0.0,0.0,0.0,0.0,0.0,0.0,0.0,0.0,0.0,0.0,0.0,0.0,0.0,0.0,0.0,0.0,0.0,0.0,0.0,0.0,0.0,0.0,0.0,0.0,0.0,0.0,0.0,0.0,0.0,0.0,0.0,0.0,0.0,0.0,0.0,0.0,0.0,0.0,0.0,0.0,0.0,0.0,0.0,0.0,0.0,0.0,0.0,0.0,0.0,0.0,0.0,0.0,0.0,0.0,0.0,0.0,0.0,0.0,0.0,0.0,0.0,0.0,0.0,0.0,0.0,0.0,0.0,0.0,0.0,0.0,0.0,0.0,0.0,0.0,0.0,0.0,0.0,0.0,0.0,0.0,0.0,0.0,0.0,0.0,0.0,0.0,0.0,0.0,0.0,0.0,0.0,0.0,0.0,0.0,0.0,0.0,0.0,0.0,0.0,0.0,0.0,0.0,0.0,0.0,0.0,0.0,0.0,0.0,0.0,0.0,0.0,0.0,0.0,0.0,0.0,0.0,0.0,0.0,0.0,0.0,0.0,0.0,0.0,0.0,0.0,0.0,0.0,0.0,0.0,0.0,0.0,0.0,0.0,0.0,0.0,0.0,0.0,0.0,0.0,0.0,0.0,0.0,0.0,0.0,0.0,0.0,0.0,0.0,0.0,0.0,0.0,0.0,0.0,0.0,0.0,0.0,0.0,0.0,0.0,0.0,0.0,0.0,0.0,0.0,0.0,0.0,0.0,0.0,0.0,0.0,0.0,0.0,0.0,0.0,0.0,0.0,0.0,0.0,0.0,0.0,0.0,0.0,0.0,0.0,0.0,0.0,0.0,0.0,0.0,0.0,0.0,0.0,0.0,0.0,0.0,0.0,0.0,0.0,0.0,0.0,0.0,0.0,0.0,0.0,0.0,0.0,0.0,0.0,0.0,0.0,0.0,0.0,0.0,0.0,0.0,0.0,0.0,0.0,0.0,0.0,0.0,0.0,0.0,0.0,0.0,0.0,0.0,0.0,0.0,0.0,0.0,0.0,0.0,0.0,0.0,0.0,0.0,0.0,0.0,0.0,0.0,0.0,0.0,0.0,0.0,0.0,0.0,0.0,0.0,0.0,0.0,0.0,0.0,0.0,0.0,0.0,0.0,0.0,0.0,0.0,0.0,0.0,0.0,0.0,0.0,0.0,0.0,0.0,0.0,0.0,0.0,0.0,0.0,0.0,0.0,0.0,0.0,0.0,0.0,0.0,0.0,0.0,0.0,0.0,0.0,0.0,0.0,0.0,0.0,0.0,0.0,0.0,0.0,0.0,0.0,0.0,0.0,0.0,0.0,0.0,0.0,0.0,0.0,0.0,0.0,0.0,0.0,0.0,0.0,0.0,0.0,0.0,0.0,0.0,0.0,0.0,0.0,0.0,0.0,0.0,0.0,0.0,0.0,0.0,0.0,0.0,0.0,0.0,0.0,0.0,0.0,0.0,0.0,0.0,0.0,0.0,0.0,0.0,0.0,0.0,0.0,0.0,0.0,0.0,0.0,0.0,0.0,0.0,0.0,0.0,0.0,0.0,0.0,0.0,0.0,0.0,0.0,0.0,0.0,0.0,0.0,0.0,0.0,0.0,0.0,0.0,0.0,0.0,0.0,0.0,0.0,0.0,0.0,0.0,0.0,0.0,0.0,0.0,0.0,0.0,0.0,0.0,0.0,0.0,0.0,0.0,0.0,0.0,0.0,0.0,0.0,0.0,0.0,0.0,0.0,0.0,0.0,0.0,0.0,0.0,0.0,0.0,0.0,0.0,0.0,0.0,0.0,0.0,0.0,0.0,0.0,0.0,0.0,0.0,0.0,0.0,0.0,0.0,0.0,0.0,0.0,0.0,0.0,0.0,0.0,0.0,0.0,0.0,0.0,0.0,0.0,0.0,0.0,0.0,0.0,0.0,0.0,0.0,0.0,0.0,0.0,0.0,0.0,0.0,0.0,0.0,0.0,0.0,0.0,0.0,0.0,0.0,0.0,0.0,0.0,0.0,0.0,0.0,0.0,0.0,0.0,0.0,0.0,0.0,0.0,0.0,0.0,0.0,0.0,0.0,0.0,0.0,0.0,0.0,0.0,0.0,0.0,0.0,0.0,0.0,0.0,0.0,0.0,0.0,0.0,0.0,0.0,0.0,0.0,0.0,0.0,0.0,0.0,0.0,0.0,0.0,0.0,0.0,0.0,0.0,0.0,0.0,0.0,0.0,0.0,0.0,0.0,0.0,0.0,0.0,0.0,0.0,0.0,0.0,0.0,0.0,0.0,0.0,0.0,0.0,0.0,0.0,0.0,0.0,0.0,0.0,0.0,0.0,0.0,0.0,0.0,0.0,0.0,0.0,0.0,0.0,0.0,0.0,0.0,0.0,0.0,0.0,0.0,0.0,0.0,0.0,0.0,0.0,0.0,0.0,0.0,0.0,0.0,0.0,0.0,0.0,0.0,0.0,0.0,0.0,0.0,0.0,0.0,0.0,0.0,0.0,0.0,0.0,0.0,0.0,0.0,0.0,0.0,0.0,0.0,0.0,0.0,0.0,0.0,0.0,0.0,0.0,0.0,0.0,0.0,0.0,0.0,0.0,0.0,0.0,0.0,0.0,0.0,0.0,0.0,0.0,0.0,0.0,0.0,0.0,0.0,0.0,0.0,0.0,0.0,0.0,0.0,0.0,0.0,0.0,0.0,0.0,0.0,0.0,0.0,0.0,0.0,0.0,0.0,0.0,0.0,0.0,0.0,0.0,0.0,0.0,0.0,0.0,0.0,0.0,0.0,0.0,0.0,0.0,0.0,0.0,0.0,0.0,0.0,0.0,0.0,0.0,0.0,0.0,0.0,0.0,0.0,0.0,0.0,0.0,0.0,0.0,0.0,0.0,0.0,0.0,0.0,0.0,0.0,0.0,0.0,0.0,0.0,0.0,0.0,0.0,0.0,0.0,0.0,0.0,0.0,0.0,0.0,0.0,0.0,0.0,0.0,0.0,0.0,0.0,0.0,0.0,0.0,0.0,0.0,0.0,0.0,0.0,0.0,0.0,0.0,0.0,0.0,0.0,0.0,0.0,0.0,0.0,0.0,0.0,0.0,0.0,0.0,0.0,0.0,0.0,0.0,0.0,0.0,0.0,0.0,0.0,0.0,0.0,0.0,0.0,0.0,0.0,0.0,0.0,0.0,0.0,0.0,0.0,0.0,0.0,0.0,0.0,0.0,0.0,0.0,0.0,0.0,0.0,0.0,0.0,0.0,0.0,0.0,0.0,0.0,0.0,0.0,0.0,0.0,0.0,0.0,0.0,0.0,0.0,0.0,0.0,0.0,0.0,0.0,0.0,0.0,0.0,0.0,0.0,0.0,0.0,0.0,0.0,0.0,0.0,0.0,0.0,0.0,0.0,0.0,0.0,0.0,0.0,0.0,1.2278,0.0,0.0,0.0,0.0,0.0,0.0,0.0,0.0,0.0,0.0,0.0,0.0,0.0,0.0,0.0,0.0,0.0,0.0,0.0,0.0,0.0,0.0,0.0,0.0,0.0,0.0,0.0,0.0,0.0,0.0,0.0,0.0,0.0,0.0,0.0,0.0,0.0,0.0,0.0,0.0,0.0,0.0,0.0,0.0,0.0,0.0,0.0,0.0,0.0,0.0,0.0,0.0,0.0,0.0,0.0,0.0,0.0,0.0,0.0,0.0,0.0,0.0,0.0,0.0,0.0,0.0,0.0,0.0,0.0,0.0,0.0,0.0,0.0,0.0,0.0,0.0,0.0,0.0,0.0,0.0,0.0,0.0,0.0,0.0,0.0,0.0,0.0,0.0,0.0,0.0,0.0,0.0,0.0,0.0,0.0,0.0,0.0,0.0,0.0,0.0,0.0,0.0,0.0,0.0,0.0,0.0,0.0,0.0,0.0,0.0,1.289,1.2407,1.2975,1.3051,1.2484,0.0,0.0,0.0,0.0,0.0,0.0,0.0,0.0,0.0,0.0,0.0,0.0,0.0,0.0,0.0,0.0,0.0,0.0,0.0,0.0,0.0,0.0,0.0,0.0,0.0,0.0,0.0,0.0,0.0,0.0,0.0,0.0,0.0,0.0,0.0,0.0,0.0,0.0,0.0,0.0,0.0,0.0,0.0,0.0,0.0,0.0,0.0,0.0,0.0,0.0,0.0,0.0,0.0,0.0,0.0,0.0,0.0,0.0,0.0,0.0,0.0,0.0,0.0,0.0,0.0,0.0,0.0,0.0,0.0,0.0,0.0,0.0,0.0,0.0,0.0,0.0,0.0,0.0,0.0,0.0,0.0,0.0,0.0,0.0,0.0,0.0,0.0,0.0,0.0,0.0,0.0,0.0,0.0,0.0,0.0,0.0,0.0,0.0,0.0,0.0,0.0,0.0,0.0,0.0,0.0,0.0,0.0,0.0,0.0,0.0,0.0,0.0,1.3035,1.31,1.254,0.0,0.0,0.0,0.0,0.0,0.0,0.0,0.0,0.0,0.0,0.0,0.0,0.0,0.0,0.0,0.0,0.0,0.0,0.0,0.0,0.0,0.0,0.0,0.0,0.0,0.0,0.0,0.0,0.0,0.0,0.0,0.0,0.0,0.0,0.0,0.0,0.0,0.0,0.0,0.0,0.0,0.0,0.0,0.0,0.0,0.0,0.0,0.0,0.0,0.0,0.0,0.0,0.0,0.0,0.0,0.0,0.0,0.0,0.0,0.0,0.0,0.0,0.0,0.0,0.0,0.0,0.0,0.0,0.0,0.0,0.0,0.0,0.0,0.0,0.0,0.0,0.0,0.0,0.0,0.0,0.0,0.0,0.0,0.0,0.0,0.0,0.0,0.0,0.0,0.0,0.0,0.0,0.0,0.0,0.0,0.0,0.0,0.0,0.0,0.0,0.0,0.0,0.0,0.0,0.0,0.0,0.0,0.0,0.0,0.0,1.2581,1.3334,1.3087,0.0,1.2008,0.0,0.0,0.0,0.0,0.0,0.0,0.0,0.0,0.0,0.0,0.0,0.0,0.0,0.0,0.0,0.0,0.0,0.0,0.0,0.0,0.0,0.0,0.0,0.0,0.0,0.0,0.0,0.0,0.0,0.0,0.0,0.0,0.0,0.0,0.0,0.0,0.0,0.0,0.0,0.0,0.0,0.0,0.0,0.0,0.0,0.0,0.0,0.0,0.0,0.0,0.0,0.0,0.0,0.0,0.0,0.0,0.0,0.0,0.0,0.0,0.0,0.0,0.0,0.0,0.0,0.0,0.0,0.0,0.0,0.0,0.0,0.0,0.0,0.0,0.0,0.0,0.0,0.0,0.0,0.0,0.0,0.0,0.0,0.0,0.0,0.0,0.0,0.0,0.0,0.0,0.0,0.0,0.0,0.0,0.0,0.0,0.0,0.0,0.0,0.0,0.0,0.0,0.0,0.0,0.0,0.0,0.0,0.0,0.0,0.0,0.0,1.2315,1.2619,1.236,0.0,0.0,0.0,0.0,0.0,0.0,0.0,0.0,0.0,0.0,0.0,0.0,0.0,0.0,0.0,0.0,0.0,0.0,0.0,0.0,0.0,0.0,0.0,0.0,0.0,0.0,0.0,0.0,0.0,0.0,0.0,0.0,0.0,0.0,0.0,0.0,0.0,0.0,0.0,0.0,0.0,0.0,0.0,0.0,0.0,0.0,0.0,0.0,0.0,0.0,0.0,0.0,0.0,0.0,0.0,0.0,0.0,0.0,0.0,0.0,0.0,0.0,0.0,0.0,0.0,0.0,0.0,0.0,0.0,0.0,0.0,0.0,0.0,0.0,0.0,0.0,0.0,0.0,0.0,0.0,0.0,0.0,0.0,0.0,0.0,0.0,0.0,0.0,0.0,0.0,0.0,0.0,0.0,0.0,0.0,0.0,0.0,0.0,0.0,0.0,0.0,0.0,0.0,0.0,0.0,0.0,0.0,0.0,0.0,0.0,1.2836,0.0,1.1829,1.2534,1.2404,1.1189,0.0,0.0,0.0,0.0,0.0,0.0,0.0,0.0,0.0,0.0,0.0,0.0,0.0,0.0,0.0,0.0,0.0,0.0,0.0,0.0,0.0,0.0,0.0,0.0,0.0,0.0,0.0,0.0,0.0,0.0,0.0,0.0,0.0,0.0,0.0,0.0,0.0,0.0,0.0,0.0,0.0,0.0,0.0,0.0,0.0,0.0,0.0,0.0,0.0,0.0,0.0,0.0,0.0,0.0,0.0,0.0,0.0,0.0,0.0,0.0,0.0,0.0,0.0,0.0,0.0,0.0,0.0,0.0,0.0,0.0,0.0,0.0,0.0,0.0,0.0,0.0,0.0,0.0,0.0,0.0,0.0,0.0,0.0,0.0,0.0,0.0,0.0,0.0,0.0,0.0,0.0,0.0,0.0,0.0,0.0,0.0,0.0,0.0,0.0,0.0,0.0,0.0,0.0,0.0,0.0,0.0,0.0,0.0,0.0,1.2848,1.2207,1.2277,1.3156,1.2904,0.0,0.0,0.0,0.0,0.0,0.0,0.0,0.0,0.0,0.0,0.0,0.0,0.0,0.0,0.0,0.0,0.0,0.0,0.0,0.0,0.0,0.0,0.0,0.0,0.0,0.0,0.0,0.0,0.0,0.0,0.0,0.0,0.0,0.0,0.0,0.0,0.0,0.0,0.0,0.0,0.0,0.0,0.0,0.0,0.0,0.0,0.0,0.0,0.0,0.0,0.0,0.0,0.0,0.0,0.0,0.0,0.0,0.0,0.0,0.0,0.0,0.0,0.0,0.0,0.0,0.0,0.0,0.0,0.0,0.0,0.0,0.0,0.0,0.0,0.0,0.0,0.0,0.0,0.0,0.0,0.0,0.0,0.0,0.0,0.0,0.0,0.0,0.0,0.0,0.0,0.0,0.0,0.0,0.0,0.0,0.0,0.0,0.0,0.0,0.0,0.0,0.0,0.0,0.0,0.0,0.0,0.0,0.0,0.0,1.2667,1.2079,1.2076,1.2639,1.236,1.1873,0.0,0.0,0.0,0.0,0.0,0.0,0.0,0.0,0.0,0.0,0.0,0.0,0.0,0.0,0.0,0.0,0.0,0.0,0.0,0.0,0.0,0.0,0.0,0.0,0.0,0.0,0.0,0.0,0.0,0.0,0.0,0.0,0.0,0.0,0.0,0.0,0.0,0.0,0.0,0.0,0.0,0.0,0.0,0.0,0.0,0.0,0.0,0.0,0.0,0.0,0.0,0.0,0.0,0.0,0.0,0.0,0.0,0.0,0.0,0.0,0.0,0.0,0.0,0.0,0.0,0.0,0.0,0.0,0.0,0.0,0.0,0.0,0.0,0.0,0.0,0.0,0.0,0.0,0.0,0.0,0.0,0.0,0.0,0.0,0.0,0.0,0.0,0.0,0.0,0.0,0.0,0.0,0.0,0.0,0.0,0.0,0.0,0.0,0.0,0.0,0.0,0.0,0.0,0.0,0.0,0.0,0.0,0.0,0.0,1.1809,0.0,1.2128,0.0,1.1789,1.1228,0.0,0.0,0.0,0.0,0.0,0.0,0.0,0.0,0.0,0.0,0.0,0.0,0.0,0.0,0.0,0.0,0.0,0.0,0.0,0.0,0.0,0.0,0.0,0.0,0.0,0.0,0.0,0.0,0.0,0.0,0.0,0.0,0.0,0.0,0.0,0.0,0.0,0.0,0.0,0.0,0.0,0.0,0.0,0.0,0.0,0.0,0.0,0.0,0.0,0.0,0.0,0.0,0.0,0.0,0.0,0.0,0.0,0.0,0.0,0.0,0.0,0.0,0.0,0.0,0.0,0.0,0.0,0.0,0.0,0.0,0.0,0.0,0.0,0.0,0.0,0.0,0.0,0.0,0.0,0.0,0.0,0.0,0.0,0.0,0.0,0.0,0.0,0.0,0.0,0.0,0.0,0.0,0.0,0.0,0.0,0.0,0.0,0.0,0.0,0.0,0.0,0.0,0.0,0.0,0.0,0.0,0.0,0.0,1.149,1.1818,1.2424,1.2326,1.1477,1.1602,1.1118,0.0,0.0,0.0,0.0,0.0,0.0,0.0,0.0,0.0,0.0,0.0,0.0,0.0,0.0,0.0,0.0,0.0,0.0,0.0,0.0,0.0,0.0,0.0,0.0,0.0,0.0,0.0,0.0,0.0,0.0,0.0,0.0,0.0,0.0,0.0,0.0,0.0,0.0,0.0,0.0,0.0,0.0,0.0,0.0,0.0,0.0,0.0,0.0,0.0,0.0,0.0,0.0,0.0,0.0,0.0,0.0,0.0,0.0,0.0,0.0,0.0,0.0,0.0,0.0,0.0,0.0,0.0,0.0,0.0,0.0,0.0,0.0,0.0,0.0,0.0,0.0,0.0,0.0,0.0,0.0,0.0,0.0,0.0,0.0,0.0,0.0,0.0,0.0,0.0,0.0,0.0,0.0,0.0,0.0,0.0,0.0,0.0,0.0,0.0,0.0,0.0,0.0,0.0,0.0,0.0,0.0,0.0,0.0,0.0,1.1805,1.2086,1.2258,1.2267,1.1456,1.0945,0.0,0.0,0.0,0.0,0.0,0.0,0.0,0.0,0.0,0.0,0.0,0.0,0.0,0.0,0.0,0.0,0.0,0.0,0.0,0.0,0.0,0.0,0.0,0.0,0.0,0.0,0.0,0.0,0.0,0.0,0.0,0.0,0.0,0.0,0.0,0.0,0.0,0.0,0.0,0.0,0.0,0.0,0.0,0.0,0.0,0.0,0.0,0.0,0.0,0.0,0.0,0.0,0.0,0.0,0.0,0.0,0.0,0.0,0.0,0.0,0.0,0.0,0.0,0.0,0.0,0.0,0.0,0.0,0.0,0.0,0.0,0.0,0.0,0.0,0.0,0.0,0.0,0.0,0.0,0.0,0.0,0.0,0.0,0.0,0.0,0.0,0.0,0.0,0.0,0.0,0.0,0.0,0.0,0.0,0.0,0.0,0.0,0.0,0.0,0.0,0.0,0.0,0.0,0.0,0.0,0.0,0.0,0.0,0.0,1.1739,1.2153,1.2395,1.2443,1.1347,1.0851,1.1021,0.0,0.0,0.0,0.0,0.0,0.0,0.0,0.0,0.0,0.0,0.0,0.0,0.0,0.0,0.0,0.0,0.0,0.0,0.0,0.0,0.0,0.0,0.0,0.0,0.0,0.0,0.0,0.0,0.0,0.0,0.0,0.0,0.0,0.0,0.0,0.0,0.0,0.0,0.0,0.0,0.0,0.0,0.0,0.0,0.0,0.0,0.0,0.0,0.0,0.0,0.0,0.0,0.0,0.0,0.0,0.0,0.0,0.0,0.0,0.0,0.0,0.0,0.0,0.0,0.0,0.0,0.0,0.0,0.0,0.0,0.0,0.0,0.0,0.0,0.0,0.0,0.0,0.0,0.0,0.0,0.0,0.0,0.0,0.0,0.0,0.0,0.0,0.0,0.0,0.0,0.0,0.0,0.0,0.0,0.0,0.0,0.0,0.0,0.0,0.0,0.0,0.0,0.0,0.0,0.0,0.0,0.0,0.0,1.1593,1.2518,1.2649,1.203,1.1345,1.0904,0.0,0.0,0.0,0.0,0.0,0.0,0.0,0.0,0.0,0.0,0.0,0.0,0.0,0.0,0.0,0.0,0.0,0.0,0.0,0.0,0.0,0.0,0.0,0.0,0.0,0.0,0.0,0.0,0.0,0.0,0.0,0.0,0.0,0.0,0.0,0.0,0.0,0.0,0.0,0.0,0.0,0.0,0.0,0.0,0.0,0.0,0.0,0.0,0.0,0.0,0.0,0.0,0.0,0.0,0.0,0.0,0.0,0.0,0.0,0.0,0.0,0.0,0.0,0.0,0.0,0.0,0.0,0.0,0.0,0.0,0.0,0.0,0.0,0.0,0.0,0.0,0.0,0.0,0.0,0.0,0.0,0.0,0.0,0.0,0.0,0.0,0.0,0.0,0.0,0.0,0.0,0.0,0.0,0.0,0.0,0.0,0.0,0.0,0.0,0.0,0.0,0.0,0.0,0.0,0.0,0.0,0.0,0.0,0.0,1.1446,1.234,1.2577,1.2009,1.1858,1.1459,0.0,0.0,0.0,0.0,0.0,0.0,0.0,0.0,0.0,0.0,0.0,0.0,0.0,0.0,0.0,0.0,0.0,0.0,0.0,0.0,0.0,0.0,0.0,0.0,0.0,0.0,0.0,0.0,0.0,0.0,0.0,0.0,0.0,0.0,0.0,0.0,0.0,0.0,0.0,0.0,0.0,0.0,0.0,0.0,0.0,0.0,0.0,0.0,0.0,0.0,0.0,0.0,0.0,0.0,0.0,0.0,0.0,0.0,0.0,0.0,0.0,0.0,0.0,0.0,0.0,0.0,0.0,0.0,0.0,0.0,0.0,0.0,0.0,0.0,0.0,0.0,0.0,0.0,0.0,0.0,0.0,0.0,0.0,0.0,0.0,0.0,0.0,0.0,0.0,0.0,0.0,0.0,0.0,0.0,0.0,0.0,0.0,0.0,0.0,0.0,0.0,0.0,0.0,0.0,0.0,0.0,0.0,0.0,1.2519,1.2271,1.2514,1.2453,1.2049,1.2311,1.2076,0.0,0.0,0.0,0.0,0.0,0.0,0.0,0.0,0.0,0.0,0.0,0.0,0.0,0.0,0.0,0.0,0.0,0.0,0.0,0.0,0.0,0.0,0.0,0.0,0.0,0.0,0.0,0.0,0.0,0.0,0.0,0.0,0.0,0.0,0.0,0.0,0.0,0.0,0.0,0.0,0.0,0.0,0.0,0.0,0.0,0.0,0.0,0.0,0.0,0.0,0.0,0.0,0.0,0.0,0.0,0.0,0.0,0.0,0.0,0.0,0.0,0.0,0.0,0.0,0.0,0.0,0.0,0.0,0.0,0.0,0.0,0.0,0.0,0.0,0.0,0.0,0.0,0.0,0.0,0.0,0.0,0.0,0.0,0.0,0.0,0.0,0.0,0.0,0.0,0.0,0.0,0.0,0.0,0.0,0.0,0.0,0.0,0.0,0.0,0.0,0.0,0.0,0.0,0.0,0.0,0.0,0.0,0.0,1.331,1.3515,1.278,1.2341,1.2179,1.2626,1.2645,0.0,0.0,0.0,0.0,0.0,0.0,0.0,0.0,0.0,0.0,0.0,0.0,0.0,0.0,0.0,0.0,0.0,0.0,0.0,0.0,0.0,0.0,0.0,0.0,0.0,0.0,0.0,0.0,0.0,0.0,0.0,0.0,0.0,0.0,0.0,0.0,0.0,0.0,0.0,0.0,0.0,0.0,0.0,0.0,0.0,0.0,0.0,0.0,0.0,0.0,0.0,0.0,0.0,0.0,0.0,0.0,0.0,0.0,0.0,0.0,0.0,0.0,0.0,0.0,0.0,0.0,0.0,0.0,0.0,0.0,0.0,0.0,0.0,0.0,0.0,0.0,0.0,0.0,0.0,0.0,0.0,0.0,0.0,0.0,0.0,0.0,0.0,0.0,0.0,0.0,0.0,0.0,0.0,0.0,0.0,0.0,0.0,0.0,0.0,0.0,0.0,0.0,0.0,0.0,0.0,0.0,0.0,0.0,1.3131,1.2968,1.2591,1.2467,1.2573,1.2693,1.2366,0.0,0.0,0.0,0.0,0.0,0.0,0.0,0.0,0.0,0.0,0.0,0.0,0.0,0.0,0.0,0.0,0.0,0.0,0.0,0.0,0.0,0.0,0.0,0.0,0.0,0.0,0.0,0.0,0.0,0.0,0.0,0.0,0.0,0.0,0.0,0.0,0.0,0.0,0.0,0.0,0.0,0.0,0.0,0.0,0.0,0.0,0.0,0.0,1.8165,0.0,0.0,0.0,0.0,0.0,0.0,0.0,0.0,0.0,0.0,0.0,0.0,0.0,0.0,0.0,0.0,0.0,0.0,0.0,0.0,0.0,0.0,0.0,0.0,0.0,0.0,0.0,0.0,0.0,0.0,0.0,0.0,0.0,0.0,0.0,0.0,0.0,0.0,0.0,0.0,0.0,0.0,0.0,0.0,0.0,0.0,0.0,0.0,0.0,0.0,0.0,0.0,0.0,0.0,0.0,0.0,0.0,0.0,0.0,1.352,1.3064,1.2249,1.1964,1.2306,1.2318,1.2238,0.0,0.0,0.0,0.0,0.0,0.0,0.0,0.0,0.0,0.0,0.0,0.0,0.0,0.0,0.0,0.0,0.0,0.0,0.0,0.0,0.0,0.0,0.0,0.0,0.0,0.0,0.0,0.0,0.0,0.0,0.0,0.0,0.0,0.0,0.0,0.0,0.0,0.0,0.0,0.0,0.0,0.0,0.0,0.0,0.0,0.0,0.0,0.0,0.0,0.0,0.0,0.0,0.0,0.0,0.0,0.0,0.0,0.0,0.0,0.0,0.0,0.0,0.0,0.0,0.0,0.0,0.0,0.0,0.0,0.0,0.0,0.0,0.0,0.0,0.0,0.0,0.0,0.0,0.0,0.0,0.0,0.0,0.0,0.0,0.0,0.0,0.0,0.0,0.0,0.0,0.0,0.0,0.0,0.0,0.0,0.0,0.0,0.0,0.0,0.0,0.0,0.0,0.0,0.0,0.0,0.0,0.0,1.4391,1.3863,1.3268,1.1853,1.1319,1.1748,1.1861,1.2114,1.2565,0.0,0.0,0.0,0.0,0.0,0.0,0.0,0.0,0.0,0.0,0.0,0.0,0.0,0.0,0.0,0.0,0.0,0.0,0.0,0.0,0.0,0.0,0.0,0.0,0.0,0.0,0.0,0.0,0.0,0.0,0.0,0.0,0.0,0.0,0.0,0.0,0.0,0.0,1.7412,1.8845,0.0,0.0,0.0,0.0,0.0,0.0,0.0,0.0,2.0823,0.0,0.0,0.0,0.0,0.0,0.0,0.0,0.0,0.0,0.0,0.0,0.0,0.0,0.0,0.0,0.0,0.0,0.0,0.0,0.0,0.0,0.0,0.0,0.0,0.0,0.0,0.0,0.0,0.0,0.0,0.0,0.0,0.0,0.0,0.0,0.0,0.0,0.0,0.0,0.0,0.0,0.0,0.0,0.0,0.0,0.0,0.0,0.0,0.0,0.0,0.0,0.0,0.0,0.0,0.0,0.0,1.4958,1.4033,1.3318,1.2817,1.1696,1.1135,1.1247,1.168,1.1945,1.2041,0.0,0.0,0.0,0.0,0.0,0.0,0.0,0.0,0.0,0.0,0.0,0.0,0.0,0.0,0.0,0.0,0.0,0.0,0.0,0.0,0.0,0.0,0.0,0.0,0.0,0.0,0.0,0.0,0.0,0.0,0.0,0.0,0.0,0.0,0.0,0.0,0.0,0.0,0.0,1.9365,2.02,0.0,0.0,0.0,0.0,0.0,0.0,0.0,0.0,2.0664,0.0,0.0,0.0,0.0,0.0,0.0,0.0,0.0,0.0,0.0,0.0,0.0,0.0,0.0,0.0,0.0,0.0,0.0,0.0,0.0,0.0,0.0,0.0,0.0,0.0,0.0,0.0,0.0,0.0,0.0,0.0,0.0,0.0,0.0,0.0,0.0,0.0,0.0,0.0,0.0,0.0,0.0,0.0,0.0,0.0,0.0,0.0,0.0,0.0,0.0,0.0,0.0,0.0,0.0,0.0,1.4597,1.369,1.3128,1.2888,1.1695,1.1335,1.1899,1.2173,1.2382,0.0,0.0,0.0,0.0,0.0,0.0,0.0,0.0,0.0,0.0,0.0,0.0,0.0,0.0,0.0,0.0,0.0,0.0,0.0,0.0,0.0,0.0,0.0,0.0,0.0,0.0,0.0,0.0,0.0,0.0,0.0,0.0,0.0,0.0,0.0,0.0,0.0,0.0,0.0,0.0,1.9381,1.9799,1.9567,0.0,0.0,0.0,0.0,0.0,0.0,2.0932,2.118,0.0,0.0,0.0,0.0,0.0,0.0,0.0,0.0,0.0,0.0,0.0,0.0,0.0,0.0,0.0,0.0,0.0,0.0,0.0,0.0,0.0,0.0,0.0,0.0,0.0,0.0,0.0,0.0,0.0,0.0,0.0,0.0,0.0,0.0,0.0,0.0,0.0,0.0,0.0,0.0,0.0,0.0,0.0,0.0,0.0,0.0,0.0,0.0,0.0,0.0,0.0,0.0,0.0,0.0,0.0,1.4246,1.3487,1.309,1.3035,1.1864,1.1614,1.2517,1.263,1.28,0.0,0.0,0.0,0.0,0.0,0.0,0.0,0.0,0.0,0.0,0.0,0.0,0.0,0.0,0.0,0.0,0.0,0.0,0.0,0.0,0.0,0.0,0.0,0.0,0.0,0.0,0.0,0.0,0.0,0.0,0.0,0.0,0.0,0.0,0.0,0.0,0.0,0.0,0.0,0.0,0.0,1.9718,1.9504,1.9073,0.0,0.0,0.0,0.0,2.1578,2.1513,0.0,0.0,0.0,0.0,0.0,0.0,0.0,0.0,0.0,0.0,0.0,0.0,0.0,0.0,0.0,0.0,0.0,0.0,0.0,0.0,0.0,0.0,0.0,0.0,0.0,0.0,0.0,0.0,0.0,0.0,0.0,0.0,0.0,0.0,0.0,0.0,0.0,0.0,0.0,0.0,0.0,0.0,0.0,0.0,0.0,0.0,0.0,0.0,0.0,0.0,0.0,0.0,0.0,0.0,0.0,0.0,1.4284,1.349,1.309,1.3048,1.2242,1.1866,1.1993,1.2455,1.2733,0.0,0.0,0.0,0.0,0.0,0.0,0.0,0.0,0.0,0.0,0.0,0.0,0.0,0.0,0.0,0.0,0.0,0.0,0.0,0.0,0.0,0.0,0.0,0.0,0.0,0.0,0.0,0.0,0.0,0.0,0.0,0.0,0.0,0.0,0.0,0.0,0.0,0.0,0.0,0.0,0.0,2.0976,1.9522,1.9941,2.0489,0.0,0.0,2.0676,2.305,2.166,0.0,0.0,0.0,0.0,0.0,0.0,0.0,0.0,0.0,0.0,0.0,0.0,0.0,0.0,0.0,0.0,0.0,0.0,0.0,0.0,0.0,0.0,0.0,0.0,0.0,0.0,0.0,0.0,0.0,0.0,0.0,0.0,0.0,0.0,0.0,0.0,0.0,0.0,0.0,0.0,0.0,0.0,0.0,0.0,0.0,0.0,0.0,0.0,0.0,0.0,0.0,0.0,0.0,0.0,0.0,1.5747,1.4618,1.3905,1.3647,1.3756,1.3098,1.3009,1.3515,1.3583,1.3624,0.0,0.0,0.0,0.0,0.0,0.0,0.0,0.0,0.0,0.0,0.0,0.0,0.0,0.0,0.0,0.0,0.0,0.0,0.0,0.0,0.0,0.0,0.0,0.0,0.0,0.0,0.0,0.0,0.0,0.0,0.0,0.0,0.0,0.0,0.0,0.0,0.0,0.0,0.0,0.0,0.0,0.0,2.0111,2.038,0.0,0.0,0.0,2.1451,2.2557,0.0,0.0,0.0,0.0,0.0,0.0,0.0,0.0,0.0,0.0,0.0,0.0,0.0,0.0,0.0,0.0,0.0,0.0,0.0,0.0,0.0,0.0,0.0,0.0,0.0,0.0,0.0,0.0,0.0,0.0,0.0,0.0,0.0,0.0,0.0,0.0,0.0,0.0,0.0,0.0,0.0,0.0,0.0,0.0,0.0,0.0,0.0,0.0,0.0,0.0,0.0,0.0,0.0,0.0,0.0,0.0,0.0,1.4948,1.4481,1.4348,1.4533,1.4101,1.4224,1.489,1.4685,0.0,0.0,0.0,0.0,0.0,0.0,0.0,0.0,0.0,0.0,0.0,0.0,0.0,0.0,0.0,0.0,0.0,0.0,0.0,0.0,0.0,0.0,0.0,0.0,0.0,0.0,0.0,0.0,0.0,0.0,0.0,0.0,0.0,0.0,0.0,0.0,0.0,0.0,0.0,0.0,0.0,0.0,1.9861,2.054,2.0565,2.0533,0.0,0.0,2.1708,2.1977,2.1884,2.1706,0.0,0.0,0.0,0.0,0.0,0.0,0.0,0.0,0.0,0.0,0.0,0.0,0.0,0.0,0.0,0.0,0.0,0.0,0.0,0.0,0.0,0.0,0.0,0.0,0.0,0.0,0.0,0.0,0.0,0.0,0.0,0.0,0.0,0.0,0.0,0.0,0.0,0.0,0.0,0.0,0.0,0.0,0.0,0.0,0.0,0.0,0.0,0.0,0.0,0.0,0.0,0.0,0.0,0.0,0.0,1.5284,1.5211,1.5211,1.5225,1.5196,1.5196,1.5269,1.5225,1.5225,0.0,0.0,0.0,0.0,0.0,0.0,0.0,0.0,0.0,0.0,0.0,0.0,0.0,0.0,0.0,0.0,0.0,0.0,0.0,0.0,0.0,0.0,0.0,0.0,0.0,0.0,0.0,0.0,0.0,0.0,0.0,0.0,0.0,0.0,0.0,0.0,0.0,0.0,0.0,0.0,0.0,2.0419,2.0501,2.0511,2.0511,0.0,0.0,2.0931,2.1855,2.088,2.0261,2.1081,0.0,0.0,0.0,0.0,0.0,0.0,0.0,0.0,0.0,0.0,0.0,0.0,0.0,0.0,0.0,0.0,0.0,0.0,0.0,0.0,0.0,0.0,0.0,0.0,0.0,0.0,0.0,0.0,0.0,0.0,0.0,0.0,0.0,0.0,0.0,0.0,0.0,0.0,0.0,0.0,0.0,0.0,0.0,0.0,0.0,0.0,0.0,0.0,0.0,0.0,0.0,0.0,0.0,1.6368,1.5551,1.5565,1.5477,1.53,1.5285,1.5374,1.5551,1.5389,1.5359,0.0,0.0,0.0,0.0,0.0,0.0,0.0,0.0,0.0,0.0,0.0,0.0,0.0,0.0,0.0,0.0,0.0,0.0,0.0,0.0,0.0,0.0,0.0,0.0,0.0,0.0,0.0,0.0,1.906,1.9091,1.9184,0.0,0.0,0.0,0.0,0.0,0.0,0.0,0.0,0.0,0.0,2.0503,2.0503,2.0503,0.0,0.0,2.0503,2.0829,2.174,2.1133,2.0653,2.1023,2.1508,0.0,0.0,0.0,0.0,0.0,0.0,0.0,0.0,0.0,0.0,0.0,0.0,0.0,0.0,0.0,0.0,0.0,0.0,0.0,0.0,0.0,0.0,0.0,0.0,0.0,0.0,0.0,0.0,0.0,0.0,0.0,0.0,0.0,0.0,0.0,0.0,0.0,0.0,0.0,0.0,0.0,0.0,0.0,0.0,0.0,0.0,0.0,0.0,0.0,0.0,0.0,0.0,1.6875,1.614,1.593,1.5754,1.558,1.5566,1.5653,1.5825,1.5754,1.5767,0.0,0.0,0.0,0.0,0.0,0.0,0.0,0.0,0.0,0.0,0.0,0.0,0.0,0.0,0.0,0.0,0.0,0.0,0.0,0.0,0.0,0.0,0.0,0.0,0.0,0.0,0.0,0.0,2.0542,2.0355,2.0244,0.0,0.0,0.0,0.0,0.0,0.0,0.0,0.0,0.0,0.0,2.0365,2.0831,2.0904,2.0878,2.0878,2.1098,2.1399,2.1797,2.1566,2.1292,2.1092,0.0,0.0,0.0,0.0,0.0,0.0,0.0,0.0,0.0,0.0,0.0,0.0,0.0,0.0,0.0,0.0,0.0,0.0,0.0,0.0,0.0,0.0,0.0,0.0,0.0,0.0,0.0,0.0,0.0,0.0,2.0827,0.0,0.0,0.0,0.0,0.0,0.0,0.0,0.0,0.0,0.0,0.0,0.0,0.0,0.0,0.0,0.0,0.0,0.0,0.0,0.0,0.0,0.0,0.0,1.7162,1.6531,1.6194,1.618,1.6194,1.6194,1.6208,1.6436,1.6567,1.6583,0.0,0.0,0.0,0.0,0.0,0.0,0.0,0.0,0.0,0.0,0.0,0.0,0.0,0.0,0.0,0.0,0.0,0.0,0.0,0.0,0.0,0.0,0.0,0.0,0.0,0.0,2.1562,2.0879,2.0207,0.0,0.0,0.0,0.0,0.0,0.0,0.0,0.0,0.0,0.0,2.057,2.0104,2.1561,2.1766,2.1738,2.1738,2.2382,2.271,2.2089,2.2092,2.1951,0.0,0.0,0.0,0.0,0.0,0.0,0.0,0.0,0.0,0.0,0.0,0.0,0.0,0.0,0.0,0.0,0.0,0.0,0.0,0.0,0.0,0.0,0.0,0.0,0.0,0.0,0.0,2.1398,2.1369,0.0,0.0,0.0,0.0,0.0,0.0,0.0,0.0,0.0,0.0,0.0,2.2776,2.2759,0.0,0.0,0.0,0.0,0.0,0.0,0.0,0.0,0.0,0.0,0.0,0.0,1.7798,1.7768,1.7088,1.6725,1.6738,1.6725,1.6725,1.6738,1.6815,1.6866,1.6866,0.0,0.0,0.0,0.0,0.0,0.0,0.0,0.0,0.0,0.0,0.0,0.0,0.0,0.0,0.0,0.0,0.0,0.0,0.0,0.0,0.0,0.0,0.0,0.0,0.0,2.2361,0.0,0.0,0.0,0.0,0.0,0.0,0.0,0.0,0.0,0.0,0.0,2.2149,2.2131,2.2149,2.2154,2.2084,2.207,2.1883,0.0,0.0,0.0,0.0,0.0,0.0,0.0,0.0,0.0,0.0,0.0,0.0,0.0,0.0,2.3594,2.2455,2.2705,2.2912,2.2299,0.0,0.0,0.0,0.0,0.0,0.0,0.0,0.0,0.0,0.0,0.0,0.0,0.0,0.0,2.2599,0.0,2.2849,0.0,0.0,0.0,0.0,0.0,0.0,0.0,0.0,2.3425,2.3335,2.3353,2.3353,2.3335,0.0,2.3289,2.2639,0.0,0.0,0.0,0.0,0.0,0.0,0.0,0.0,1.8437,1.8405,1.7504,1.7005,1.7005,1.7005,1.7005,1.7005,1.7093,1.7179,1.7276,1.7243,1.7491,0.0,0.0,0.0,0.0,0.0,0.0,0.0,0.0,0.0,0.0,0.0,0.0,0.0,0.0,0.0,0.0,0.0,0.0,0.0,0.0,0.0,0.0,0.0,2.3069,0.0,0.0,0.0,0.0,0.0,0.0,0.0,0.0,0.0,2.2313,2.2552,2.2576,2.2306,2.2752,2.2996,2.2684,0.0,0.0,0.0,0.0,0.0,0.0,0.0,2.2847,2.3265,2.3143,2.2959,2.2848,2.2911,2.3196,2.3846,0.0,0.0,2.291,2.3413,2.3836,2.3275,2.3614,2.3991,2.3951,2.3852,2.3663,0.0,0.0,0.0,0.0,0.0,0.0,0.0,0.0,2.4115,2.4254,0.0,2.4294,0.0,0.0,0.0,0.0,0.0,0.0,0.0,0.0,2.405,2.3795,2.3795,2.3785,2.3795,2.3785,2.3598,2.3082,2.2324,2.2028,0.0,0.0,0.0,0.0,0.0,0.0,1.9149,1.9079,1.7763,1.7068,1.7068,1.7055,1.7043,1.7039,1.7313,1.7549,1.7794,1.7749,1.8205,1.9197,1.8973,0.0,0.0,0.0,0.0,0.0,0.0,0.0,0.0,0.0,0.0,0.0,0.0,0.0,0.0,0.0,0.0,0.0,0.0,0.0,0.0,2.3759,0.0,0.0,0.0,0.0,0.0,0.0,0.0,0.0,0.0,0.0,2.2778,2.1948,2.1614,2.2405,0.0,0.0,0.0,0.0,2.3813,2.4505,2.4666,2.4719,2.4812,2.4226,2.3512,2.2833,0.0,0.0,2.2798,2.2971,2.3524,2.5167,2.4767,2.4323,2.4336,2.4987,2.5558,2.5515,2.541,2.5575,2.559,2.5096,2.4776,2.8364,0.0,0.0,0.0,0.0,2.5958,2.579,2.5759,2.5139,2.4997,2.5212,2.5125,0.0,0.0,0.0,0.0,0.0,0.0,2.442,2.4836,2.4143,2.3795,2.3795,2.3795,2.3795,2.3795,2.3742,2.3321,2.2597,2.2491,2.2311,2.1987,0.0,0.0,0.0,0.0,2.0044,1.9442,1.8553,1.8048,1.8003,1.7859,1.7782,1.7782,1.8044,1.8208,1.8277,1.8297,1.8415,1.872,1.9157,0.0,0.0,0.0,0.0,0.0,0.0,0.0,0.0,0.0,0.0,0.0,0.0,0.0,0.0,0.0,0.0,0.0,0.0,0.0,2.3885,2.4336,2.4184,0.0,0.0,0.0,0.0,0.0,0.0,0.0,0.0,0.0,2.371,2.3901,2.4133,0.0,0.0,2.4465,2.4676,2.4708,2.4588,2.4208,0.0,0.0,0.0,2.4441,2.4604,2.4549,2.3925,2.3526,2.3841,2.3417,2.3174,2.377,2.4124,2.4381,2.4434,2.5096,2.5444,2.4906,2.4288,2.4085,2.4568,2.3708,2.2835,3.0214,2.9328,2.8011,2.7532,2.7591,2.6899,2.6723,2.6949,2.6329,2.622,2.6495,2.6325,2.6182,2.6051,2.5821,0.0,0.0,0.0,2.551,2.5651,2.485,2.4292,2.4008,2.3947,2.3917,2.3935,2.3827,2.3415,2.2709,2.2988,2.2818,2.2223,0.0,0.0,2.1412,2.0703,2.01,1.9598,1.8871,1.8467,1.8422,1.8313,1.827,1.827,1.8408,1.8495,1.8495,1.8573,1.878,1.9072,1.9222,1.9432,0.0,0.0,0.0,0.0,0.0,0.0,0.0,0.0,0.0,0.0,0.0,2.257,0.0,0.0,0.0,0.0,2.2812,2.3886,2.4551,2.473,0.0,0.0,0.0,0.0,0.0,0.0,0.0,2.5947,2.522,2.4619,2.4615,2.501,2.5156,2.4811,2.506,2.5276,2.5276,0.0,2.5098,2.4575,2.4926,2.5098,2.4575,2.4565,2.4585,2.4364,2.3999,2.3873,2.4208,2.3599,2.3303,2.3926,2.4266,2.4511,2.486,2.5347,2.5442,2.4593,2.3968,2.3676,2.3852,2.2882,2.2161,3.143,3.1437,2.9294,2.8569,2.878,2.806,2.7967,2.8237,2.7561,2.7697,2.8352,2.7747,2.7495,2.7477,2.6947,0.0,0.0,2.7161,2.6816,2.6667,2.5873,2.5069,2.4303,2.4163,2.4113,2.4113,2.3927,2.3456,2.2793,2.342,2.3383,2.263,2.1662,2.1068,2.0837,2.0139,1.972,1.9632,1.9001,1.8604,1.8542,1.8551,1.8534,1.8514,1.8604,1.8659,1.8659,1.8883,1.9361,2.0061,1.9433,1.9822,2.143,0.0,0.0,0.0,0.0,0.0,0.0,0.0,0.0,0.0,0.0,0.0,0.0,0.0,0.0,0.0,2.4132,0.0,2.4915,2.4974,0.0,0.0,0.0,2.5009,2.4287,2.4913,2.5395,2.5395,0.0,0.0,0.0,0.0,2.5138,2.4327,2.4917,2.5391,2.5391,2.5387,2.5391,2.5344,2.5387,2.5387,2.5281,2.4784,2.4157,2.3556,2.3108,2.3557,2.4241,2.3898,2.4021,2.5218,2.4999,2.4741,2.5566,2.5616,2.5317,2.4407,2.4277,2.4042,2.3368,2.2956,2.2506,3.2389,3.2462,3.1326,3.0581,3.0086,2.9322,2.9041,2.904,2.8282,2.8134,2.8393,2.8216,2.8297,2.8554,2.8381,2.8491,2.8747,2.8033,2.7342,2.6667,2.5873,2.5069,2.4312,2.4257,2.4238,2.4238,2.421,2.3768,2.3033,2.318,2.2858,2.2103,2.183,2.1872,2.2168,2.143,2.0739,2.0136,1.9965,1.9497,1.8759,1.8861,1.8896,1.8742,1.9452,1.9885,1.9885,2.0516,2.0988,2.1261,2.1052,2.0941,2.0944,2.1107,0.0,0.0,0.0,0.0,0.0,0.0,0.0,0.0,0.0,2.3104,2.11,0.0,2.381,0.0,2.4282,2.4987,2.513,2.5233,0.0,0.0,2.5253,2.5301,2.5102,2.5317,2.5476,2.5476,2.552,2.5548,2.5548,2.5544,2.5489,2.5273,2.5337,2.5391,2.5391,2.5391,2.5391,2.5391,2.5395,2.5391,2.538,2.5294,2.5096,2.4994,2.4945,2.5041,2.5245,2.5145,2.5176,2.5602,2.5547,2.5503,2.5625,2.5147,2.4378,2.3597,2.3852,2.4208,2.3886,2.3223,2.2626,3.2834,3.2941,3.2511,3.2203,3.1855,3.019,2.9593,2.9638,2.8861,2.8589,2.8707,2.8707,2.8815,2.8978,2.9075,2.9163,2.9222,2.8897,2.8089,2.6907,2.6451,2.5632,2.4479,2.44,2.4374,2.4393,2.433,2.4072,2.3628,2.3259,2.3056,2.2953,2.2241,2.2231,2.2822,2.2081,2.1459,2.101,2.101,2.074,2.0207,2.0283,2.0292,2.0189,2.0721,2.1029,2.101,2.1441,2.1714,2.179,2.1746,2.1777,2.1855,2.194,2.1888,0.0,0.0,0.0,0.0,0.0,0.0,0.0,0.0,0.0,0.0,0.0,2.4508,0.0,0.0,0.0,2.5241,2.5032,2.4873,2.4853,2.4544,2.433,2.433,2.4703,2.4972,2.4972,2.535,2.5601,2.5601,2.5601,2.5601,2.5601,2.5522,2.5492,2.5503,2.5495,2.5495,2.5495,2.5495,2.549,2.5499,2.5525,2.556,2.5585,2.5615,2.5603,2.5584,2.5286,2.5185,2.5547,2.5074,2.467,2.4957,2.4704,2.4016,2.3305,2.3573,2.3646,2.2616,2.1916,2.1541,3.3052,3.3205,3.3223,3.3412,3.3561,3.107,3.0135,3.0229,2.9325,2.8996,2.9104,2.9104,2.9107,2.9148,2.9322,2.9412,2.9443,2.9608,2.8866,2.7392,2.7355,2.6529,2.5037,2.4914,2.4845,2.4837,2.4642,2.4505,2.4487,2.37,2.3645,2.4255,2.2866,2.2477,2.3071,2.2364,2.1911,2.1906,2.1813,2.1766,2.1739,2.185,2.1914,2.1914,2.1998,2.2054,2.2054,2.2138,2.222,2.2226,2.2134,2.245,2.3246,2.2682,2.2869,0.0,2.3116,0.0,0.0,0.0,0.0,0.0,0.0,0.0,0.0,2.4611,2.5343,2.5515,2.5649,2.5706,2.5649,2.5066,2.4661,2.4548,2.3908,2.3467,2.3387,2.4006,2.4469,2.4469,2.5141,2.5613,2.5596,2.5599,2.5604,2.5615,2.5585,2.5589,2.5595,2.5587,2.5587,2.5604,2.5601,2.5583,2.5595,2.5607,2.5598,2.5604,2.5606,2.561,2.5612,2.5076,2.4843,2.5388,2.4592,2.3855,2.436,2.4408,2.4016,2.3203,2.3445,2.3115,2.1387,2.0812,2.0432,3.3522,3.3823,3.3842,3.3881,3.3841,3.2698,3.1851,3.1206,2.9724,2.9071,2.9104,2.9104,2.918,2.9343,2.9392,2.9472,2.9645,2.9673,2.9157,2.8191,2.8172,2.7646,2.6754,2.6691,2.6701,2.6645,2.601,2.5683,2.5656,2.4805,2.446,2.4591,2.3652,2.3278,0.0,0.0,0.0,0.0,2.125,2.0925,2.0944,2.1554,2.1914,2.1924,2.2545,0.0,2.2898,2.3499,2.3903,2.3986,2.3401,0.0,0.0,0.0,0.0,0.0,0.0,0.0,0.0,0.0,0.0,0.0,2.583,2.5571,2.403,2.5239,2.6477,2.7227,2.7374,2.7443,2.7496,2.7415,2.71,2.6463,2.6239,2.5892,2.5213,2.5251,2.5365,2.5368,2.5506,2.5609,2.5648,2.5598,2.5614,2.565,2.5599,2.5601,2.5595,2.5612,2.5614,2.5614,2.5609,2.5595,2.5602,2.5602,2.5605,2.5609,2.5609,2.5616,2.5663,2.5566,2.5446,2.569,2.5417,2.5114,2.5204,2.4723,2.4099,2.3801,2.3314,2.2708,2.2244,2.2114,2.2328,3.381,0.0,3.3998,3.4061,0.0,3.3276,3.2778,3.2382,3.1069,3.0307,2.999,2.999,2.9826,2.955,2.955,2.9617,2.9701,2.9701,2.9232,2.8426,2.8407,2.7984,2.7204,2.7204,2.7204,2.7186,2.68,2.6593,2.6556,2.5759,2.5552,2.5901,2.4707,2.4088,2.405,2.2886,2.2229,2.2092,2.1678,2.1499,2.1518,2.2264,2.2682,2.2693,0.0,0.0,0.0,0.0,0.0,0.0,0.0,0.0,0.0,0.0,0.0,2.3786,2.4587,2.5111,2.5149,2.5585,2.6043,2.6497,2.7022,2.6962,2.6028,2.6749,2.7419,2.7898,2.7981,2.8005,2.8027,2.7721,2.7174,2.6362,2.5879,2.5294,2.4579,2.4752,2.4996,2.5056,2.5364,2.5746,2.6196,2.5836,2.5824,2.6137,2.5891,2.5641,2.5659,2.5615,2.5609,2.5609,2.5609,2.5613,2.564,2.5641,2.5643,2.5644,2.5644,2.5662,2.5696,2.532,2.5177,2.5494,2.5019,2.4448,2.4784,2.4432,2.3949,2.3477,2.3273,2.3032,2.2658,2.2502,2.2599,3.4074,3.4111,3.413,3.4197,3.4314,3.3649,3.3467,3.354,0.0,0.0,0.0,3.11,3.0724,3.0143,3.0114,3.0133,3.0114,3.0114,2.9664,2.8848,2.8838,2.8416,2.7655,2.7636,2.7655,2.7636,2.7486,2.7419,2.7418,2.6618,2.657,2.7048,2.5712,2.481,2.4452,2.306,2.2327,2.2346,2.2468,2.2511,2.2548,2.3288,2.372,2.372,2.4351,2.4681,2.4681,2.473,2.4727,2.4742,2.4764,2.4825,2.4948,2.5101,2.5252,2.5354,2.5521,2.595,2.664,2.6799,2.7239,2.8107,2.8279,2.833,2.8339,2.8339,2.8401,2.8531,2.857,2.857,2.857,2.799,2.7223,2.6376,2.5639,2.4964,2.4237,2.4607,2.5239,2.5144,2.5633,2.6182,2.6965,2.6244,2.5932,2.6598,2.6191,2.5702,2.5703,2.5644,2.5622,2.5622,2.5623,2.5643,2.5683,2.5701,2.5696,2.5685,2.5697,2.569,2.559,2.5091,2.4943,2.5525,2.4367,2.397,2.4273,2.4386,2.3957,2.3214,2.3613,2.3879,2.3082,2.283,2.2803,3.437,3.4517,3.4517,3.4528,3.455,3.4438,3.4411,3.4301,3.276,3.2009,3.1936,3.1936,3.186,3.1767,3.1767,3.1777,3.1767,3.1767,3.1316,0.0,3.0555,3.0124,2.9363,2.9345,2.9354,2.9298,2.8585,2.83,2.8301,2.7536,2.7255,2.7335,2.6467,2.5293,2.3872,2.2925,2.247,2.2483,2.302,2.3325,2.3344,2.4107,2.4538,2.4538,2.4632,2.4681,2.47,2.4823,2.4881,2.4877,2.4974,2.5071,2.5174,2.5932,2.6362,2.6419,2.7185,2.7737,2.785,2.788,2.8283,2.9077,2.9207,2.9211,2.9211,2.9207,2.9541,3.0224,3.0243,3.0344,3.0321,3.0153,2.9674,2.9,2.8797,2.8388,2.7404,2.741,2.7491,2.7472,2.7126,2.7109,2.7734,2.6714,2.6141,2.6681,2.6293,2.5701,2.5703,2.5705,2.569,2.5689,2.5686,2.5703,2.5703,2.5698,2.5697,2.5692,2.5689,2.5684,2.5683,2.5451,2.534,2.5495,2.5137,2.5016,2.5105,2.5144,2.4912,2.4654,2.4803,2.4782,2.4384,2.4273,2.4039,3.4517,3.4602,3.4612,3.4864,3.5353,3.5766,3.572,3.5259,3.4508,3.3644,3.2826,3.2818,3.2536,3.2105,3.2115,3.2115,3.2115,3.2115,3.1947,3.1685,3.1666,3.1252,3.057,3.0532,3.0259,2.9816,2.9401,2.929,2.9357,2.9004,2.8874,2.8909,2.8089,2.7065,2.5931,2.551,2.5338,2.53,2.3771,2.2981,2.3019,2.3803,2.422,2.4265,2.5127,2.5621,2.5628,2.6149,2.6421,2.6414,2.6468,2.6568,2.6679,2.708,2.7342,2.7416,2.7838,2.8309,2.8773,2.9243,2.9673,3.0069,3.0108,3.0088,3.0092,3.0088,3.0263,3.0655,3.0694,3.0707,3.07,3.0706,3.038,2.9592,2.951,2.915,2.8396,2.8242,2.8261,2.8222,2.7927,2.8021,2.8859,2.7892,2.7219,2.7548,2.661,2.5747,2.5708,2.5707,2.5689,2.5693,2.5692,2.569,2.5689,2.5704,2.5701,2.5699,2.564,2.5604,2.5598,2.5507,2.5463,2.5434,2.5387,2.533,2.5288,2.5282,2.5228,2.5214,2.521,2.512,2.4858,2.4602,2.4288,3.5146,3.5176,3.5157,3.5559,3.6216,3.6828,3.6735,3.6179,3.616,3.5446,3.4301,3.3851,3.3306,3.2687,3.2668,3.2668,3.2668,3.2668,3.2624,3.2552,3.2552,3.2175,3.1503,3.1322,3.0883,3.0269,3.0079,3.0038,3.0121,3.0154,3.0182,3.0132,2.9388,2.8651,2.8041,2.7849,2.7739,2.7575,2.5086,2.373,2.3774,2.4356,2.4689,2.4849,2.6006,2.6677,2.6735,2.7377,2.7739,2.7745,2.7766,2.7841,2.7931,2.8133,2.8287,2.839,2.8592,2.8987,2.9641,3.0302,3.0694,3.0694,3.0694,3.0701,3.0695,3.0698,3.0695,3.0698,3.0736,3.0723,3.0733,3.072,3.0464,2.9872,2.9803,2.959,2.8944,2.8818,2.8867,2.8847,2.869,2.8902,2.9447,2.8936,2.8169,2.7719,2.678,2.5974,2.5731,2.5664,2.566,2.5638,2.5646,2.565,2.5652,2.5632,2.5619,2.5641,2.556,2.5492,2.5473,2.5418,2.5386,2.5374,2.5327,2.5283,2.5268,2.5181,2.5137,2.5113,2.5076,2.4966,2.4689,2.4419,2.4218,3.6847,3.6885,3.681,3.6904,3.6998,3.711,3.711,3.6998,3.6998,3.6941,3.6521,3.5176,3.4462,3.4376,3.4331,3.4293,3.4293,3.4358,3.3966,3.3375,3.3298,3.2949,3.2264,3.1572,3.1268,3.1198,3.0528,3.0196,3.0296,3.0283,3.0312,3.0285,2.9562,2.9182,2.9008,2.8304,2.7899,2.7899,2.7562,2.7363,2.7234,2.7305,2.7344,2.7336,2.7476,2.7585,2.7602,2.7773,2.7889,2.7893,2.8059,2.8085,2.8184,2.8828,2.9262,2.9308,2.9991,3.0515,3.0577,3.0655,3.074,3.0694,3.0778,3.0805,3.0789,3.0755,3.0716,3.0782,3.0813,3.0791,3.0796,3.0816,3.0827,3.0722,3.0684,3.0624,3.0516,3.0564,3.056,3.056,2.9812,2.9721,3.0266,2.9265,2.8032,2.7526,2.7091,2.6534,2.5954,2.5807,2.5767,2.5596,2.5512,2.5551,2.5532,2.5463,2.5446,2.5432,2.5414,2.5403,2.5387,2.5372,2.5303,2.5293,2.5271,2.5231,2.516,2.5082,2.4954,2.4927,2.4844,2.4689,2.4476,2.4312,2.4218,3.711,3.711,3.711,3.7373,3.785,3.835,3.8275,3.7824,3.7947,3.7718,3.7259,3.6653,3.6033,3.5345,3.4827,3.4612,3.4623,3.4742,3.4652,3.4415,3.452,3.4209,3.3496,3.2659,3.2065,3.1569,3.0735,3.037,3.0462,3.053,3.0542,3.0554,3.0229,3.0098,3.0059,2.9734,2.9563,2.9559,2.9559,2.9543,2.9358,2.8424,2.7898,2.7987,2.844,2.8715,2.8754,2.9252,2.9544,2.9571,2.962,2.9634,2.9641,2.9972,3.0166,3.0189,3.0496,3.0709,3.0712,3.1193,3.1525,3.1545,3.1976,3.2237,3.225,3.2267,3.2294,3.2195,3.139,3.0786,3.0874,3.1266,3.1562,3.1559,3.1575,3.1553,3.1565,3.1111,3.0796,3.0774,3.0497,3.0372,3.0535,2.9708,2.8807,2.8252,2.7863,2.7286,2.6924,2.692,2.6904,2.6799,2.6457,2.5909,2.558,2.5418,2.5391,2.5398,2.5365,2.535,2.534,2.5293,2.5239,2.5239,2.5214,2.5131,2.5019,2.4974,2.4881,2.479,2.4647,2.4493,2.4425,2.4303,2.4218,3.7786,3.7786,3.7786,3.8131,3.8707,3.938,3.931,3.8818,3.8963,3.8716,3.8185,3.8113,3.7451,3.6354,3.5491,3.5019,3.4803,3.4925,3.5039,3.5133,3.5288,3.5072,3.4556,3.3732,3.3026,3.2425,3.1637,3.1274,3.1308,3.1096,3.1059,3.102,3.0826,3.0694,3.0694,3.0694,3.0694,3.069,3.0694,3.0694,3.0512,2.9415,2.8771,2.8858,2.9428,2.9758,2.9777,3.0364,3.0694,3.0694,3.0694,3.0694,3.0694,3.0694,3.0701,3.0724,3.0952,3.1077,3.1077,3.1926,3.2426,3.2485,3.2992,3.3308,3.3333,3.3378,3.3378,3.328,3.2246,3.1562,3.1601,3.2088,3.2417,3.2463,3.2461,3.2461,3.24,3.1852,3.1573,3.1508,3.1334,3.0971,3.0691,3.0115,2.9555,2.9126,2.8635,2.8082,2.7913,2.7808,2.7803,2.7831,2.7225,2.6587,2.5854,2.5455,2.5406,2.535,2.5308,2.5287,2.5287,2.5231,2.521,2.522,2.5174,2.5069,2.4935,2.4881,2.4768,2.4586,2.4452,2.4365,2.433,2.4247,2.4218,3.9495,3.9458,3.9477,3.9445,3.9557,3.9792,3.9854,3.9762,3.9995,4.0061,3.9849,3.928,3.8465,3.7592,3.684,3.5951,3.5247,3.5178,3.5193,3.5227,3.5249,3.5302,3.5396,3.4571,3.4196,3.4061,3.3289,3.2967,3.3014,3.2318,3.1949,3.191,3.1234,3.0771,3.0849,3.0888,3.0752,3.0888,3.0888,3.0791,3.0771,3.0651,3.059,3.0593,3.0593,3.0577,3.0597,3.0674,3.0694,3.0694,3.0694,3.0694,3.0694,3.0717,3.0769,3.0835,3.1567,3.2034,3.2112,3.2799,3.325,3.3269,3.3428,3.3392,3.3633,3.3652,3.3649,3.346,3.3462,3.3285,3.3283,3.3284,3.3341,3.3357,3.3338,3.3335,3.3328,3.3144,3.3253,3.3017,3.2269,3.1405,3.0638,3.0491,3.0013,2.9506,2.9178,2.8898,2.8247,2.7956,2.798,2.7929,2.7739,2.7369,2.6603,2.5931,2.5425,2.5343,2.5431,2.5233,2.5216,2.521,2.5205,2.5169,2.5019,2.4908,2.4835,2.4719,2.4581,2.445,2.4331,2.4247,2.4266,2.4228,2.4199,3.9608,3.9633,3.9731,3.98,3.9823,4.001,4.0091,4.0101,4.0319,4.0407,4.0385,4.0209,3.9696,3.8889,3.8612,3.7276,3.5345,3.5328,3.54,3.5393,3.5521,3.5611,3.5592,3.4782,3.4417,3.4377,3.3682,3.3293,3.3274,3.2982,3.2846,3.2807,3.2536,3.2361,3.2361,3.2361,3.2341,3.2341,3.2364,3.238,3.2322,3.2361,3.2361,3.2283,3.1277,3.0694,3.0694,3.0694,3.0694,3.0694,3.0713,3.0695,3.0753,3.1278,3.1595,3.1667,3.2434,3.2928,3.3026,3.373,3.4197,3.4236,3.4743,3.4976,3.5069,3.5067,3.5063,3.5052,3.5048,3.5066,3.4945,3.4576,3.4248,3.4222,3.4222,3.424,3.4094,3.37,3.3276,3.3132,3.2377,3.142,3.0755,3.037,3.0227,2.9939,2.985,2.964,2.9468,2.9315,2.9225,2.9167,2.8822,2.8377,2.8147,2.6808,2.5956,2.5803,2.5707,2.5426,2.5306,2.5273,2.5285,2.5374,2.5158,2.5178,2.5241,2.5277,2.504,2.4974,2.4814,2.4575,2.4199,2.4548,2.4456,3.9731,3.9823,3.9946,4.0,4.004,4.0203,4.03,4.034,4.0514,4.0597,4.0649,4.0765,4.0368,3.9733,3.9641,3.8479,3.6344,3.6118,3.5866,3.5639,3.5741,3.5795,3.5717,3.5197,3.4905,3.4866,3.44,3.4109,3.4051,3.3818,3.3682,3.3682,3.3448,3.3293,3.3293,3.3293,3.3293,3.3293,3.3293,3.3293,3.3293,3.3293,3.3293,3.3138,3.2151,3.1545,3.1549,3.1549,3.1524,3.1544,3.1547,3.1538,3.1607,3.215,3.2513,3.2612,3.334,3.3806,3.3922,3.4616,3.5115,3.5135,3.5623,3.601,3.6009,3.6007,3.6004,3.6017,3.6015,3.5992,3.5867,3.5422,3.5112,3.5108,3.5127,3.5106,3.5061,3.4489,3.3953,3.3557,3.3005,3.2129,3.1251,3.0881,3.072,3.0631,3.0421,3.0223,3.0204,3.0204,3.0204,3.0166,2.9669,2.9383,2.9071,2.8109,2.7103,2.6835,2.6536,2.6084,2.5748,2.5652,2.5544,2.5591,2.5615,2.5665,2.5727,2.5795,2.579,2.576,2.564,2.5456,2.5236,2.5107,2.5106,4.001,4.0148,4.0186,4.0194,4.0238,4.0423,4.0494,4.0551,4.0711,4.0801,4.0842,4.0902,4.049,3.9888,3.9834,3.9208,3.8243,3.7525,3.6792,3.6112,3.6024,3.6028,3.6028,3.5896,3.5717,3.5678,3.5717,3.5698,3.5542,3.4866,3.4521,3.4385,3.3856,3.3643,3.339,3.3565,3.3448,3.3526,3.3565,3.3487,3.3332,3.3507,3.3549,3.3495,3.3363,3.3308,3.3289,3.3227,3.3067,3.3125,3.3132,3.3251,3.3108,3.3299,3.3418,3.3535,3.4211,3.4669,3.4804,3.5447,3.5875,3.5874,3.5991,3.6027,3.6157,3.6136,3.6171,3.6317,3.6276,3.6155,3.6165,3.608,3.5965,3.594,3.5817,3.5792,3.5772,3.5772,3.5329,3.4306,3.3853,3.362,3.2797,3.1831,3.1346,3.1205,3.0701,3.0204,3.0204,3.0204,3.0204,3.0204,3.0051,2.9898,2.9726,2.9452,2.8624,2.793,2.7599,2.7217,2.6949,2.6776,2.6522,2.6497,2.656,2.6579,2.6546,2.6615,2.6615,2.6576,2.6437,2.6253,2.6033,2.5894,2.6015,4.0148,4.0221,4.0351,4.0396,4.0438,4.0636,4.073,4.0798,4.0862,4.0888,4.0893,4.0893,4.0743,4.0572,4.0519,4.0072,3.9315,3.8965,3.8402,3.7702,3.7566,3.7528,3.743,3.6945,3.6401,3.5872,3.5795,3.5814,3.5775,3.5542,3.5391,3.5333,3.5134,3.5037,3.496,3.5037,3.5018,3.5018,3.4998,3.5037,3.5022,3.5002,3.5029,3.5078,3.5103,3.5101,3.5058,3.396,3.3327,3.3349,3.3292,3.3324,3.3475,3.3962,3.4287,3.4384,3.512,3.5602,3.5621,3.5817,3.6048,3.6025,3.6024,3.6311,3.6731,3.6829,3.7076,3.7552,3.7725,3.772,3.7684,3.7601,3.7055,3.593,3.5794,3.5811,3.5696,3.5581,3.5065,3.4275,3.4033,3.3639,3.2848,3.205,3.1675,3.156,3.088,3.0338,3.0242,3.03,3.0204,3.0204,3.0204,3.0169,2.9915,2.9711,2.9266,2.8673,2.8341,2.8101,2.7896,2.7713,2.7489,2.7371,2.7432,2.7456,2.7434,2.742,2.742,2.7244,2.7013,2.683,2.6635,2.6622,2.6706,4.1319,4.137,4.1174,4.11,4.11,4.0951,4.0877,4.0898,4.0898,4.0888,4.0883,4.0888,4.0888,4.0888,4.0888,4.0616,4.0169,4.013,3.9858,3.9237,3.8581,3.8406,3.8348,3.7882,3.7333,3.6867,3.677,3.6595,3.628,3.6284,3.6129,3.5853,3.5795,3.5775,3.5795,3.5795,3.5807,3.5838,3.5806,3.5836,3.5837,3.5843,3.5861,3.5873,3.5877,3.588,3.5808,3.4803,3.4258,3.4271,3.4295,3.4316,3.4429,3.4889,3.5174,3.5291,3.5641,3.5992,3.6031,3.6305,3.6479,3.6494,3.6744,3.7107,3.7585,3.7678,3.7981,3.8377,3.839,3.8413,3.8392,3.83,3.7666,3.6684,3.6294,3.5959,3.5653,3.5451,3.517,3.4642,3.4472,3.414,3.3654,3.2955,3.2458,3.2332,3.1694,3.093,3.0815,3.0701,3.0572,3.0326,3.0057,3.0019,2.9972,2.9869,2.9786,2.9387,2.9004,2.8799,2.8617,2.8462,2.8269,2.8186,2.8195,2.8257,2.8235,2.8264,2.8235,2.793,2.7658,2.7636,2.7536,2.7259,2.7223,4.3166,4.3227,4.2429,4.2006,4.1867,4.1218,4.0903,4.0903,4.0888,4.0903,4.0888,4.0888,4.0888,4.0888,4.0888,4.083,4.0869,4.0791,4.0752,4.0325,3.9455,3.8756,3.8596,3.8503,3.8348,3.8192,3.8192,3.7862,3.7197,3.7159,3.6789,3.6222,3.6203,3.6017,3.6165,3.5982,3.6008,3.6084,3.5972,3.5895,3.5887,3.589,3.5893,3.5896,3.5897,3.5948,3.6055,3.5937,3.5859,3.5878,3.5754,3.5725,3.5916,3.5992,3.5914,3.5895,3.6012,3.6148,3.6285,3.6928,3.7357,3.7393,3.7894,3.8551,3.8536,3.8553,3.8653,3.8871,3.8751,3.8621,3.8603,3.8521,3.826,3.7906,3.7109,3.6344,3.5617,3.5455,3.5223,3.5146,3.5163,3.5144,3.4915,3.4273,3.3899,3.3651,3.3012,3.2183,3.1744,3.1424,3.1039,3.0773,3.0543,3.0297,3.036,2.9699,2.9617,2.9467,2.9204,2.9111,2.9027,2.8921,2.8806,2.8773,2.8753,2.887,2.8895,2.8785,2.8767,2.8601,2.8504,2.8554,2.8286,2.7874,2.7352,4.3008,4.2496,4.2274,4.1805,4.1267,4.0956,4.0917,4.0907,4.0927,4.0966,4.0907,4.0888,4.0888,4.0888,4.0888,4.0888,4.0888,4.0888,4.0888,4.0849,4.0519,3.9878,3.947,3.9353,3.9043,3.8561,3.8561,3.8289,3.8076,3.8061,3.7901,3.7746,3.7583,3.765,3.767,3.7034,3.6815,3.6739,3.6196,3.5963,3.5973,3.5975,3.5885,3.5896,3.5955,3.6308,3.6846,3.694,3.6589,3.6002,3.5998,3.6012,3.6109,3.6129,3.6168,3.6226,3.6656,3.6968,3.7105,3.7725,3.8147,3.8179,3.8497,3.8778,3.9427,3.9353,3.963,4.0032,4.0155,4.0006,4.0002,3.9863,3.95,3.8676,3.7597,3.66,3.6216,3.5637,3.5231,3.5218,3.522,3.5259,3.5037,3.4617,3.409,3.3929,3.3433,3.2703,3.2458,3.2298,3.2014,3.1824,3.1575,3.1094,3.0615,2.9861,2.9433,2.9355,2.9221,2.9167,2.9111,2.905,2.8975,2.8932,2.8888,2.895,2.8968,2.8913,2.8987,2.8964,2.8827,2.862,2.8456,2.8107,2.7398,4.4236,4.3746,4.3446,4.3015,4.25,4.2151,4.1995,4.1917,4.1587,4.1451,4.1374,4.1024,4.0888,4.0888,4.0888,4.0888,4.0888,4.0888,4.0888,4.0888,4.0849,4.0577,4.0266,4.0184,3.9936,3.9528,3.9436,3.9256,3.8998,3.893,3.8774,3.8415,3.8436,3.845,3.8324,3.7995,3.7702,3.7667,3.722,3.7007,3.703,3.7031,3.7031,3.7028,3.7047,3.7353,3.7792,3.7848,3.7575,3.7126,3.6812,3.6714,3.7048,3.7087,3.7087,3.7126,3.7572,3.7803,3.7959,3.8575,3.9015,3.9121,3.9271,3.9728,4.0128,4.013,4.0372,4.0657,4.0687,4.0622,4.0588,4.0508,4.0158,3.9516,3.8353,3.7417,3.7082,3.6604,3.6126,3.5878,3.5717,3.5564,3.5297,3.477,3.4579,3.4445,3.4254,3.3664,3.3206,3.313,3.2889,3.2519,3.2127,3.1571,3.1236,3.0604,3.0246,3.0054,2.9717,2.9568,2.9329,2.9255,2.9044,2.8987,2.8987,2.8975,2.8964,2.894,2.8917,2.887,2.8779,2.852,2.8259,2.8051,2.7344,4.5939,4.5789,4.5098,4.4734,4.4404,4.3816,4.3292,4.3277,4.2466,4.2116,4.1961,4.1257,4.0907,4.0888,4.0888,4.0888,4.0888,4.0888,4.0888,4.0893,4.0906,4.0837,4.0803,4.0737,4.0727,4.0643,4.0848,4.0438,3.9964,3.9818,3.9447,3.9107,3.8926,3.8827,3.8987,3.8754,3.8648,3.8594,3.8359,3.822,3.8252,3.8268,3.8247,3.8266,3.8498,3.8555,3.8689,3.8708,3.8708,3.8845,3.7946,3.7828,3.8435,3.8533,3.8492,3.847,3.8482,3.8653,3.8768,3.9423,3.9916,3.9978,4.0466,4.0876,4.0752,4.061,4.0559,4.0675,4.0545,4.0481,4.0449,4.0372,4.03,4.0034,3.9461,3.8801,3.8171,3.7808,3.7406,3.6767,3.6634,3.6214,3.566,3.5335,3.5288,3.4766,3.4605,3.4296,3.3884,3.3715,3.3307,3.2768,3.2347,3.1908,3.167,3.1427,3.1238,3.1041,3.0575,3.0252,2.9774,2.9536,2.9175,2.8987,2.8987,2.894,2.8881,2.8858,2.8791,2.8614,2.8425,2.8079,2.7742,2.7609,2.7145,4.5639,4.504,4.487,4.4404,4.3821,4.3563,4.3525,4.3466,4.2597,4.2272,4.2019,4.1296,4.0927,4.0888,4.0888,4.0888,4.0888,4.0893,4.0888,4.0897,4.0949,4.0967,4.0956,4.0937,4.0937,4.0956,4.097,4.086,4.0686,4.0619,4.0649,4.0418,4.0214,4.0437,4.035,3.9765,3.9531,3.9422,3.897,3.8736,3.875,3.8767,3.8767,3.8806,3.9253,3.9527,3.9546,3.9546,3.9879,4.0016,3.9253,3.8551,3.8726,3.8701,3.8717,3.885,3.9252,3.9518,3.9653,4.0245,4.0766,4.0637,4.0721,4.0864,4.0729,4.0622,4.0537,4.0519,4.0411,4.0459,4.0537,4.0376,4.0387,4.0339,4.0129,3.9881,3.9556,3.8553,3.7808,3.754,3.7426,3.7139,3.6339,3.6197,3.5878,3.5219,3.4908,3.4737,3.4525,3.4281,3.3765,3.3171,3.2899,3.2576,3.2441,3.2255,3.2089,3.188,3.1476,3.1127,3.0638,2.9953,2.961,2.928,2.8987,2.8917,2.8791,2.8676,2.8596,2.8347,2.8075,2.7794,2.755,2.7322,2.71,4.5733,4.5356,4.538,4.5103,4.4695,4.4676,4.4676,4.4404,4.3316,4.2811,4.252,4.149,4.0907,4.0888,4.0888,4.0888,4.0902,4.0917,4.0933,4.0953,4.0986,4.0994,4.0994,4.0972,4.097,4.0996,4.0976,4.0994,4.0991,4.1024,4.0989,4.1049,4.1053,4.0956,4.107,4.062,4.0439,4.0372,4.0016,3.9762,3.9762,3.9762,3.9762,3.9801,4.0171,4.0405,4.0405,4.0405,4.0638,4.0751,4.0264,3.9754,3.9754,3.9726,3.972,3.9835,4.0079,4.0404,4.0596,4.0753,4.0937,4.0926,4.0793,4.0668,4.0588,4.0492,4.0633,4.0828,4.0958,4.0998,4.138,4.0998,4.0903,4.0769,4.0511,4.0339,4.0148,3.947,3.8706,3.8476,3.8323,3.7764,3.7289,3.7023,3.6663,3.6075,3.5438,3.5243,3.4881,3.4598,3.4188,3.3734,3.3531,3.3345,3.3246,3.309,3.2884,3.2651,3.2357,3.2087,3.1775,3.0944,3.0118,2.977,2.9429,2.881,2.8633,2.8515,2.8376,2.7957,2.7683,2.755,2.7434,2.7289,2.7058,4.5982,4.5982,4.5982,4.5982,4.5982,4.5944,4.5808,4.5472,4.419,4.3277,4.3,4.1568,4.0888,4.0893,4.0911,4.0915,4.0933,4.0954,4.0967,4.0978,4.1021,4.1016,4.1017,4.1021,4.1024,4.1023,4.102,4.1021,4.1049,4.1074,4.1093,4.1112,4.1103,4.1098,4.1093,4.109,4.0994,4.0934,4.0875,4.0855,4.0875,4.0894,4.0894,4.0894,4.0914,4.0969,4.0969,4.0987,4.1081,4.1111,4.1109,4.1109,4.1105,4.11,4.1111,4.1033,4.0983,4.0928,4.0942,4.1061,4.1155,4.1043,4.1067,4.0966,4.0952,4.1031,4.1246,4.1504,4.1743,4.1953,4.2622,4.2144,4.1667,4.1399,4.0845,4.0492,4.032,4.0301,3.9794,3.9374,3.9136,3.8746,3.809,3.7651,3.7311,3.6904,3.6264,3.5684,3.5318,3.5013,3.4659,3.4238,3.3994,3.3729,3.3624,3.3611,3.3435,3.3348,3.3109,3.2936,3.2698,3.194,3.1084,3.0344,2.9849,2.9297,2.8932,2.8937,2.8597,2.782,2.7739,2.8074,2.7807,2.7351,2.7233,4.5982,4.5982,4.5982,4.5982,4.5982,4.5982,4.5647,4.4909,4.4015,4.3083,4.2427,4.1374,4.0966,4.095,4.0953,4.0983,4.0994,4.0996,4.1002,4.1028,4.1068,4.1074,4.1074,4.1073,4.1087,4.1088,4.1093,4.1094,4.1089,4.1098,4.1101,4.1116,4.1112,4.1109,4.1109,4.1109,4.1109,4.1109,4.1109,4.1109,4.1109,4.1108,4.1108,4.1108,4.1106,4.1103,4.1117,4.1115,4.1109,4.1118,4.1108,4.1161,4.1273,4.1268,4.1229,4.1106,4.1192,4.1201,4.1138,4.1582,4.1697,4.1779,4.2035,4.2358,4.2335,4.2307,4.2259,4.2469,4.2622,4.2737,4.2756,4.2717,4.2259,4.1762,4.1437,4.1055,4.0568,4.0377,4.0291,3.99,3.9843,3.9691,3.8895,3.8261,3.7915,3.7455,3.6845,3.6209,3.5692,3.5537,3.5354,3.4908,3.4426,3.4151,3.3894,3.3925,3.388,3.3899,3.3757,3.3661,3.3345,3.2821,3.2109,3.1193,3.0549,3.0096,2.9804,2.9473,2.9092,2.8541,2.8613,2.8749,2.8423,2.8116,2.8301,4.5982,4.5982,4.5982,4.5982,4.5982,4.5982,4.5783,4.5322,4.454,4.3938,4.3238,4.2214,4.1581,4.1502,4.1126,4.1008,4.1008,4.1046,4.1048,4.1071,4.1093,4.1107,4.1108,4.1115,4.1111,4.1114,4.1102,4.1123,4.1111,4.1109,4.1109,4.1109,4.1109,4.1109,4.1109,4.1109,4.1109,4.1109,4.1129,4.1148,4.1147,4.1143,4.1121,4.114,4.1154,4.1109,4.1183,4.1632,4.1781,4.1886,4.2189,4.2318,4.2287,4.2175,4.1879,4.1295,4.14,4.1567,4.1557,4.2112,4.2466,4.2447,4.2769,4.2842,4.2823,4.2756,4.3042,4.3405,4.3959,4.4093,4.415,4.3692,4.3233,4.2851,4.2431,4.18,4.1189,4.095,4.0682,4.0346,4.0057,3.9802,3.9414,3.8867,3.8527,3.8016,3.7401,3.6805,3.6189,3.6156,3.6156,3.5734,3.5312,3.5073,3.4816,3.4743,3.4578,3.4523,3.4513,3.4417,3.4035,3.355,3.2721,3.1764,3.1273,3.0879,3.0041,2.9513,2.9369,2.9279,2.9156,2.9067,2.9014,2.9012,2.918,4.5982,4.5982,4.5982,4.5982,4.5982,4.5982,4.5905,4.5652,4.505,4.4598,4.4331,4.2976,4.2206,4.2039,4.1473,4.1019,4.1027,4.1074,4.1093,4.1092,4.1102,4.1111,4.1109,4.1109,4.1109,4.1129,4.1443,4.1246,4.1109,4.1109,4.1109,4.1109,4.1109,4.1109,4.1109,4.1109,4.1109,4.1148,4.1343,4.14,4.1553,4.1449,4.148,4.1616,4.1625,4.1718,4.1871,4.232,4.2574,4.2731,4.3042,4.3416,4.3359,4.3352,4.2726,4.1696,4.1992,4.2168,4.233,4.2826,4.3239,4.3183,4.3283,4.333,4.3415,4.3634,4.3692,4.4265,4.4743,4.5125,4.4953,4.4647,4.4197,4.3796,4.33,4.2717,4.1969,4.1537,4.1241,4.0843,4.0356,3.992,3.9601,3.9189,3.8795,3.8641,3.8052,3.7554,3.7055,3.711,3.7019,3.6633,3.6285,3.6101,3.5936,3.5826,3.5587,3.533,3.5361,3.5341,3.483,3.4274,3.337,3.251,3.2033,3.1553,3.054,2.9885,3.0033,3.0005,2.9605,2.9568,2.9839,2.9909,2.9941,4.5982,4.5982,4.5982,4.5982,4.5982,4.5982,4.5594,4.503,4.4938,4.4345,4.3947,4.2798,4.2351,4.2036,4.1433,4.1094,4.1086,4.1082,4.1099,4.1098,4.1112,4.1109,4.1129,4.1109,4.1148,4.1304,4.1888,4.1732,4.1461,4.1285,4.1246,4.1304,4.1402,4.1187,4.148,4.1519,4.1109,4.1285,4.1888,4.2567,4.3008,4.2568,4.2659,4.3046,4.3219,4.3111,4.3016,4.3263,4.3392,4.333,4.3408,4.3405,4.3266,4.3234,4.312,4.2891,4.2917,4.2992,4.3011,4.359,4.4018,4.4078,4.4419,4.4868,4.4753,4.4704,4.4781,4.5078,4.5288,4.5288,4.5277,4.5182,4.4743,4.4348,4.3916,4.321,4.2503,4.2178,4.1865,4.1425,4.0946,4.0352,3.9875,3.9456,3.905,3.8956,3.8733,3.8228,3.7881,3.7881,3.7845,3.7441,3.7184,3.7,3.7,3.689,3.6545,3.6211,3.6241,3.617,3.532,3.4658,3.4198,3.3441,3.2897,3.2318,3.1555,3.1102,3.104,3.0762,3.0381,3.0581,3.0954,3.0886,3.0635,4.5982,4.5982,4.5982,4.5982,4.5982,4.5982,4.5823,4.5572,4.5522,4.5356,4.4787,4.3585,4.2557,4.1742,4.121,4.1121,4.1111,4.1129,4.1109,4.1148,4.1148,4.1148,4.1246,4.1537,4.1674,4.1597,4.2279,4.2611,4.222,4.2358,4.2573,4.2495,4.2552,4.2651,4.2396,4.2533,4.2588,4.2721,4.2986,4.3312,4.3502,4.3356,4.3267,4.3638,4.3688,4.3659,4.3681,4.4031,4.4118,4.4153,4.4369,4.4634,4.4538,4.4503,4.4465,4.4355,4.4344,4.4123,4.3771,4.4375,4.4632,4.4784,4.5067,4.5182,4.5277,4.5277,4.5277,4.5277,4.5277,4.5277,4.5277,4.5277,4.4982,4.4641,4.436,4.3708,4.3089,4.2857,4.2502,4.2029,4.1593,4.1109,4.0593,4.0115,3.9775,3.9549,3.9234,3.8732,3.845,3.8395,3.8358,3.823,3.8028,3.7881,3.7936,3.7918,3.7466,3.7183,3.7244,3.685,3.5641,3.4924,3.4582,3.4029,3.3326,3.2815,3.2388,3.1848,3.1325,3.1215,3.1173,3.1241,3.1292,3.1173,3.0973,4.5982,4.5982,4.5982,4.6012,4.6018,4.6022,4.6056,4.6102,4.6105,4.6014,4.5418,4.4004,4.2418,4.1386,4.1121,4.1111,4.1109,4.1304,4.1402,4.1422,4.1441,4.1636,4.1929,4.2318,4.2162,4.1753,4.3333,4.3626,4.3587,4.3762,4.4135,4.3744,4.3432,4.3546,4.3642,4.3562,4.3539,4.388,4.3673,4.3899,4.4287,4.41,4.413,4.4218,4.4233,4.4148,4.4161,4.4541,4.4859,4.4901,4.5182,4.5337,4.5262,4.5178,4.5179,4.5091,4.5072,4.4889,4.464,4.4859,4.522,4.5277,4.5277,4.5277,4.5277,4.5297,4.5277,4.5277,4.5277,4.5277,4.5277,4.5277,4.5094,4.4893,4.473,4.4101,4.3572,4.3315,4.3098,4.277,4.2432,4.2218,4.1654,4.1006,4.054,4.021,3.9753,3.9258,3.9056,3.8982,3.8762,3.8652,3.856,3.8432,3.8453,3.8472,3.8148,3.7935,3.7967,3.7468,3.6166,3.5532,3.5255,3.4589,3.3833,3.3397,3.3008,3.2269,3.1594,3.1805,3.1901,3.1529,3.1393,3.1343,3.1241,4.5982,4.5982,4.5982,4.6036,4.6087,4.6111,4.6131,4.6179,4.6199,4.5751,4.4944,4.3354,4.2205,4.1392,4.1231,4.1168,4.1246,4.1967,4.2201,4.2279,4.2357,4.2669,4.2923,4.2923,4.2884,4.3372,4.4387,4.4797,4.4933,4.5226,4.4877,4.3979,4.419,4.3874,4.3907,4.4177,4.4404,4.4587,4.432,4.4663,4.5186,4.5271,4.514,4.5671,4.5812,4.5808,4.5797,4.557,4.5413,4.5293,4.5419,4.5608,4.5553,4.5551,4.5548,4.5719,4.5717,4.5621,4.5564,4.5392,4.5307,4.5316,4.5354,4.5411,4.5297,4.5335,4.5316,4.5316,4.5277,4.5373,4.5354,4.5265,4.5293,4.5274,4.5108,4.4533,4.4073,4.3769,4.3561,4.343,4.3181,4.2868,4.272,4.2083,4.1442,4.1093,4.06,4.0104,3.9735,3.957,3.9184,3.8982,3.8927,3.882,3.8786,3.8666,3.8572,3.8163,3.7931,3.7431,3.658,3.6171,3.5618,3.5164,3.4447,3.4037,3.3643,3.3072,3.272,3.2767,3.2628,3.2222,3.2002,3.1968,3.1698,4.6018,4.6052,4.6072,4.6092,4.6118,4.6118,4.6138,4.6184,4.6187,4.5742,4.4882,4.3724,4.3014,4.2497,4.1539,4.1753,4.2515,4.2357,4.2767,4.3079,4.3294,4.3411,4.3626,4.3899,4.3977,4.4133,4.5012,4.5421,4.507,4.5909,4.5964,4.5436,4.5139,4.5332,4.5308,4.5099,4.5359,4.5429,4.5355,4.566,4.5787,4.5877,4.5749,4.5993,4.5894,4.5764,4.5641,4.5619,4.5518,4.5429,4.539,4.5628,4.5929,4.5984,4.6271,4.6596,4.6672,4.6691,4.6577,4.6328,4.6042,4.6042,4.6023,4.5889,4.5602,4.5736,4.564,4.5507,4.5392,4.5621,4.6003,4.5917,4.5829,4.5825,4.5519,4.4956,4.457,4.4313,4.3935,4.3751,4.357,4.3313,4.3258,4.3166,4.2543,4.1956,4.1462,4.0985,4.06,4.0267,3.9918,3.9753,3.9735,3.9811,3.9779,3.9465,3.9064,3.8524,3.799,3.7427,3.6901,3.6182,3.5693,3.5326,3.5193,3.4861,3.4506,3.4066,3.3761,3.3592,3.3288,3.2916,3.2747,3.2594,3.2307,4.606,4.6128,4.6111,4.6123,4.6136,4.6116,4.6175,4.623,4.6228,4.5754,4.4953,4.4114,4.3705,4.3295,4.2632,4.2437,4.3313,4.343,4.3645,4.3899,4.4094,4.4231,4.4524,4.4699,4.4738,4.4758,4.5402,4.5909,4.5533,4.6023,4.6095,4.6145,4.626,4.618,4.615,4.6231,4.6187,4.6146,4.6135,4.6102,4.6036,4.5938,4.5869,4.5891,4.5736,4.5627,4.5541,4.5482,4.541,4.5445,4.5585,4.5957,4.6366,4.6776,4.7207,4.7578,4.7807,4.7826,4.7616,4.733,4.6882,4.6901,4.689,4.6596,4.6366,4.6557,4.6634,4.6328,4.6156,4.6271,4.686,4.6697,4.6486,4.6464,4.6053,4.553,4.5224,4.4906,4.4447,4.4066,4.3938,4.3864,4.3515,4.3441,4.324,4.2635,4.2084,4.1682,4.1444,4.1113,4.0802,4.071,4.0747,4.0859,4.0952,4.0142,3.9373,3.8987,3.8443,3.7769,3.7159,3.6483,3.6112,3.6011,3.5881,3.5707,3.5312,3.4827,3.4506,3.4252,3.3947,3.3626,3.3169,3.3,3.2966,4.6137,4.62,4.62,4.6199,4.6191,4.6191,4.6248,4.627,4.6287,4.5856,4.507,4.4211,4.3879,4.3821,4.353,4.3626,4.4075,4.4524,4.4836,4.4914,4.4992,4.5441,4.5558,4.5558,4.5441,4.6085,4.628,4.6238,4.6171,4.6232,4.6264,4.6448,4.6599,4.6432,4.6264,4.6206,4.6138,4.6022,4.6007,4.5908,4.5964,4.595,4.5942,4.6119,4.6034,4.5982,4.5975,4.5879,4.5865,4.5891,4.6271,4.6634,4.692,4.7494,4.7865,4.8075,4.8056,4.7979,4.7865,4.7826,4.7865,4.7807,4.778,4.7578,4.7635,4.7731,4.7635,4.7207,4.7341,4.7529,4.7621,4.7466,4.7243,4.708,4.6685,4.6217,4.5881,4.5461,4.5002,4.4745,4.4635,4.4434,4.392,4.3625,4.3663,4.3296,4.2708,4.2378,4.2213,4.2049,4.1757,4.1604,4.1623,4.1466,4.1324,4.0415,3.9708,3.935,3.8846,3.8148,3.7659,3.7172,3.6898,3.6768,3.6406,3.6062,3.5825,3.5532,3.5177,3.4861,3.4675,3.4336,3.3812,3.3541,3.3643,4.6186,4.6208,4.6208,4.6211,4.6261,4.621,4.6226,4.6305,4.6282,4.6124,4.5734,4.4933,4.4953,4.4992,4.4367,4.4348,4.5265,4.4836,4.5148,4.5812,4.5812,4.5987,4.6124,4.6046,4.5987,4.6204,4.63,4.6298,4.6257,4.6392,4.6718,4.6982,4.7387,4.7177,4.6415,4.605,4.5983,4.5828,4.5854,4.6002,4.6462,4.6507,4.6653,4.708,4.6973,4.6885,4.6866,4.6732,4.674,4.6787,4.7215,4.7532,4.7952,4.8563,4.8869,4.9232,4.9423,4.9461,4.9461,4.9442,4.9175,4.8888,4.864,4.8411,4.796,4.843,4.8296,4.8017,4.8014,4.8109,4.8175,4.7988,4.7841,4.7979,4.7639,4.7002,4.6562,4.6049,4.5608,4.5535,4.5443,4.5369,4.5002,4.4562,4.4488,4.4213,4.3681,4.3204,4.2947,4.2986,4.2823,4.2541,4.2414,4.2157,4.1694,4.0895,4.0244,3.9873,3.9247,3.8454,3.8048,3.7844,3.7648,3.7523,3.6924,3.6366,3.6332,3.6174,3.5752,3.5414,3.5453,3.525,3.4793,3.4619,3.4687,4.6209,4.6247,4.6227,4.6259,4.6306,4.6261,4.6258,4.6303,4.6302,4.6302,4.6144,4.5675,4.5695,4.5792,4.5343,4.4955,4.6223,4.5792,4.5578,4.6282,4.6282,4.6282,4.628,4.6298,4.622,4.6298,4.6335,4.6392,4.678,4.6743,4.7203,4.793,4.8473,4.7933,4.7208,4.6957,4.6934,4.6828,4.6834,4.686,4.715,4.7251,4.7395,4.7682,4.7752,4.7704,4.7761,4.7807,4.7826,4.7903,4.8151,4.8468,4.9003,4.9442,4.9729,5.0168,5.0283,5.0264,5.0187,5.0168,4.9824,4.9576,4.9519,4.9232,4.882,4.927,4.9194,4.8904,4.8521,4.8624,4.8816,4.86,4.8378,4.8506,4.8181,4.7536,4.7352,4.6856,4.6562,4.6471,4.6305,4.6232,4.6049,4.5773,4.5461,4.5094,4.469,4.4195,4.3717,4.3609,4.3485,4.3142,4.2827,4.2459,4.2044,4.1481,4.0887,4.0436,3.9743,3.8986,3.8839,3.8715,3.8488,3.8193,3.7635,3.7195,3.7077,3.6857,3.6597,3.6512,3.6586,3.6282,3.5769,3.5549,3.5447,4.6245,4.6303,4.6302,4.6302,4.6302,4.6303,4.6302,4.6302,4.6302,4.6302,4.6282,4.6243,4.6223,4.6262,4.6184,4.6184,4.6243,4.6204,4.6243,4.6282,4.6302,4.6302,4.6298,4.6294,4.6296,4.6296,4.6372,4.6663,4.7377,4.7808,4.825,4.8691,4.9113,4.8842,4.859,4.8432,4.8236,4.7808,4.7565,4.7636,4.7862,4.7903,4.8083,4.8272,4.8326,4.8304,4.8304,4.8246,4.8189,4.8372,4.8735,4.9022,4.9404,4.9901,5.0168,5.0302,5.0302,5.0302,5.0302,5.0302,5.0283,5.0061,5.0114,5.0183,5.0107,4.9911,4.973,4.9657,4.9404,4.9476,4.9533,4.9109,4.8683,4.8585,4.8421,4.8198,4.8159,4.7902,4.7645,4.7424,4.7204,4.7003,4.6636,4.6361,4.6397,4.603,4.559,4.5058,4.4526,4.3901,4.3705,4.3304,4.297,4.2653,4.217,4.1472,4.1071,4.0405,4.0329,3.9773,3.9679,3.9462,3.9208,3.8836,3.8328,3.7939,3.7601,3.7584,3.7669,3.7618,3.7381,3.6874,3.6248,3.5977,3.5797,4.629,4.6302,4.6302,4.6302,4.6302,4.6302,4.6302,4.6302,4.6302,4.6302,4.6302,4.6302,4.6302,4.6302,4.6282,4.6302,4.6302,4.6302,4.6282,4.6302,4.6302,4.6302,4.63,4.6296,4.6298,4.6318,4.6413,4.6839,4.7736,4.8493,4.9224,4.9543,4.996,5.0025,4.9981,4.9961,4.9111,4.8433,4.814,4.8365,4.8624,4.8716,4.8945,4.9213,4.9328,4.9347,4.9347,4.9385,4.9404,4.9595,4.9767,4.9939,4.9996,5.0187,5.0302,5.0302,5.0302,5.0302,5.0302,5.0302,5.0302,5.0236,5.01,5.0113,5.0125,5.0088,4.9987,4.9844,4.9646,4.9453,4.9287,4.8951,4.8658,4.8495,4.8364,4.8344,4.8324,4.8251,4.8012,4.7957,4.7755,4.7663,4.7278,4.7352,4.7333,4.6947,4.6507,4.5993,4.5315,4.4656,4.409,4.3662,4.3048,4.2709,4.1767,4.1017,4.0758,4.0458,4.0567,4.051,4.0146,3.9935,3.9842,3.952,3.9005,3.8447,3.7905,3.8041,3.8379,3.8041,3.777,3.7246,3.6806,3.6603,3.6224,4.6302,4.6302,4.6302,4.6302,4.6302,4.6302,4.6302,4.6302,4.6302,4.6302,4.6302,4.6302,4.6302,4.6302,4.6302,4.6302,4.6302,4.6302,4.6302,4.6302,4.6302,4.6302,4.63,4.6298,4.6298,4.6357,4.6722,4.732,4.8269,4.9517,5.0387,5.0237,5.0842,5.0801,5.0665,5.0402,4.9931,4.9286,4.8938,4.9137,4.9328,4.9549,4.992,5.0149,5.0283,5.0302,5.0302,5.0302,5.0302,5.0302,5.0302,5.0302,5.0283,5.0302,5.0302,5.0302,5.0302,5.0302,5.0302,5.0302,5.0302,5.0212,4.9981,4.9955,4.987,4.9817,4.9688,4.9541,4.9268,4.9031,4.8849,4.8676,4.8495,4.8307,4.8325,4.8324,4.8324,4.8324,4.8306,4.8288,4.8269,4.8251,4.8233,4.8324,4.8213,4.7791,4.7439,4.7084,4.6238,4.5303,4.4713,4.4219,4.3383,4.2675,4.1743,4.1176,4.128,4.1366,4.1495,4.1325,4.0764,4.046,4.0392,4.0113,3.9706,3.9174,3.8751,3.8819,3.8988,3.8684,3.8531,3.8345,3.7939,3.7466,3.701,4.6302,4.6302,4.6302,4.6302,4.6302,4.6302,4.6302,4.6302,4.6302,4.6302,4.6302,4.6302,4.6302,4.6302,4.6302,4.6302,4.6302,4.6302,4.6302,4.6302,4.6302,4.6302,4.6298,4.6312,4.6429,4.6659,4.7089,4.7739,4.8973,5.0062,5.0757,5.0777,5.0778,5.0711,5.0577,5.0547,5.024,4.9985,4.9843,4.9996,5.0092,5.0245,5.0302,5.0283,5.0302,5.0302,5.0302,5.0302,5.0302,5.0302,5.0302,5.0302,5.0302,5.0302,5.0302,5.0302,5.0302,5.0302,5.0302,5.0302,5.0302,5.02,5.0,4.979,4.9646,4.9439,4.9302,4.919,4.8949,4.878,4.8623,4.8514,4.8364,4.8306,4.8306,4.8324,4.8324,4.8324,4.8324,4.8324,4.8324,4.8324,4.8287,4.8287,4.8267,4.8175,4.8024,4.7735,4.707,4.6001,4.5197,4.4607,4.3671,4.2891,4.2536,4.2125,4.2236,4.2311,4.2336,4.2046,4.1433,4.117,4.1018,4.0663,4.029,4.013,3.9876,3.9757,3.9622,3.9656,3.9554,3.9571,3.9157,3.849,3.7638,4.6302,4.6302,4.6302,4.6302,4.6302,4.6302,4.6302,4.6302,4.6302,4.6302,4.6302,4.6302,4.6302,4.6302,4.6302,4.6302,4.6302,4.6302,4.6302,4.6302,4.6302,4.63,4.6335,4.6401,4.6633,4.7067,4.7551,4.8215,4.9398,5.0344,5.0813,5.067,5.0643,5.0557,5.0418,5.0407,5.0352,5.0302,5.0302,5.0302,5.0302,5.0302,5.0302,5.0302,5.0302,5.0302,5.0302,5.0302,5.0302,5.0302,5.0302,5.0302,5.0302,5.0302,5.0302,5.0302,5.0302,5.0302,5.0271,5.0259,5.0236,5.0063,4.983,4.9575,4.9317,4.9083,4.89,4.8797,4.8693,4.855,4.8439,4.8363,4.8324,4.8324,4.8324,4.8324,4.8324,4.8324,4.8324,4.8324,4.8324,4.8287,4.8287,4.8248,4.8228,4.8169,4.8073,4.7818,4.7385,4.6524,4.5382,4.4676,4.3814,4.3153,4.2989,4.2952,4.2981,4.2826,4.2688,4.2407,4.2083,4.183,4.1576,4.1238,4.0916,4.0781,4.057,4.0146,4.0113,4.0383,4.04,4.0367,4.0028,3.9438,3.8397,4.6302,4.6302,4.6302,4.6302,4.6302,4.6302,4.6302,4.6302,4.6302,4.6302,4.6302,4.6302,4.6302,4.6302,4.6302,4.63,4.63,4.6302,4.6302,4.6302,4.6358,4.6296,4.6366,4.6632,4.6937,4.7396,4.8209,4.9026,4.993,5.0345,5.0642,5.0516,5.0464,5.041,5.0302,5.0302,5.0302,5.0302,5.0302,5.0302,5.0302,5.0302,5.0302,5.0302,5.0302,5.0302,5.0302,5.0302,5.0302,5.0302,5.0302,5.0302,5.0302,5.0302,5.0302,5.0302,5.0302,5.0302,5.0248,5.0169,5.0088,4.987,4.9468,4.9129,4.9015,4.8799,4.8604,4.8514,4.8495,4.8382,4.8382,4.8324,4.8324,4.8324,4.8324,4.8324,4.8324,4.8324,4.8324,4.8324,4.8305,4.8267,4.8248,4.8228,4.8187,4.807,4.7992,4.7545,4.7178,4.6863,4.5768,4.4871,4.4053,4.3795,4.3836,4.3769,4.3671,4.343,4.3132,4.3064,4.2929,4.2489,4.2144,4.1847,4.166,4.1559,4.128,4.0908,4.1027,4.1356,4.128,4.1111,4.0737,4.0244,3.9163,4.6184,4.6282,4.6302,4.6302,4.6302,4.6302,4.6302,4.6302,4.6302,4.6302,4.6302,4.6302,4.6302,4.6302,4.63,4.63,4.63,4.6296,4.6298,4.6554,4.6571,4.6828,4.705,4.7225,4.7568,4.8175,4.9018,4.968,5.0394,5.0547,5.0466,5.0317,5.0302,5.0302,5.0302,5.0302,5.0302,5.0302,5.0302,5.0302,5.0302,5.0302,5.0302,5.0302,5.0302,5.0302,5.0302,5.0302,5.0302,5.0417,5.0493,5.0627,5.0646,5.0665,5.0417,5.0386,5.0181,5.0181,5.0132,4.9884,4.9784,4.957,4.9083,4.8816,4.8729,4.8568,4.8383,4.8325,4.8324,4.8324,4.8324,4.8324,4.8324,4.8324,4.8324,4.8324,4.8324,4.8324,4.8324,4.8324,4.8305,4.8248,4.8208,4.8187,4.8108,4.799,4.7687,4.7178,4.6753,4.6454,4.5828,4.5139,4.4519,4.4412,4.4445,4.4327,4.4124,4.4158,4.3921,4.3876,4.3775,4.342,4.3014,4.2557,4.2388,4.2286,4.2134,4.183,4.2066,4.2202,4.1914,4.1627,4.135,4.0772,3.9785,4.5675,4.6302,4.6302,4.6302,4.6302,4.6302,4.6302,4.6302,4.6302,4.6302,4.6302,4.6302,4.63,4.63,4.6292,4.6351,4.6513,4.647,4.688,4.7274,4.7257,4.7616,4.7907,4.8005,4.849,4.91,4.9728,5.0259,5.0432,5.0396,5.0359,5.0302,5.0302,5.0302,5.0302,5.0302,5.0302,5.0302,5.0302,5.0302,5.034,5.0321,5.0302,5.0302,5.0302,5.0302,5.0302,5.0302,5.0302,5.0493,5.094,5.1257,5.1329,5.1259,5.1025,5.0665,5.0418,5.0163,5.0074,4.9782,4.9646,4.9345,4.8951,4.8765,4.8641,4.8495,4.8363,4.8306,4.8324,4.8324,4.8324,4.8324,4.8324,4.8324,4.8324,4.8324,4.8324,4.8324,4.8324,4.8324,4.8305,4.8247,4.8187,4.8108,4.7988,4.7847,4.7702,4.7191,4.6548,4.6189,4.5817,4.5284,4.4759,4.4665,4.4564,4.453,4.4429,4.4547,4.4564,4.4333,4.4248,4.4384,4.3995,4.3403,4.3115,4.2997,4.2828,4.2777,4.2608,4.2625,4.2354,4.2081,4.1897,4.1371,4.041]}]]